GFSMA_250_spd_000.txt.gz
Wind_Speed
68 71 69 71 72 70 66 71 65 61 46 41 41 43 44 46 46 47 46 45 45 46 48 50 51 51 49 51 54 56 61 67 72 76 76 74 74 75 70 70 71 73 73
69 69 68 67 69 65 64 62 60 47 41 38 40 43 45 48 48 49 49 50 52 54 56 56 57 57 56 57 57 56 57 62 68 72 77 79 81 81 79 75 74 77 78
63 65 68 66 66 61 59 57 50 42 42 42 43 45 47 48 48 50 51 53 53 54 56 58 59 61 62 64 63 63 63 64 65 67 72 80 84 88 87 86 85 82 81
64 68 68 67 63 56 54 53 46 45 43 43 44 44 45 46 47 48 50 52 54 56 58 60 61 62 64 65 68 69 70 72 72 72 72 73 76 79 84 91 94 95 94
68 70 67 63 56 53 49 47 46 43 41 43 45 45 47 48 49 51 53 55 57 59 61 63 66 68 70 72 74 74 75 77 78 77 79 81 82 82 82 83 86 90 95
68 67 57 53 50 49 43 43 42 40 44 47 48 48 50 53 53 55 57 61 62 65 68 70 72 74 77 79 80 81 82 83 83 83 86 86 86 87 89 90 90 90 92
58 56 52 49 48 43 41 42 42 44 48 50 51 52 53 56 60 63 67 70 71 75 78 80 82 84 85 86 86 87 88 90 90 91 92 93 93 94 96 97 97 96 97
50 50 49 46 43 41 43 45 46 49 51 53 55 56 59 61 62 67 72 77 79 82 85 89 90 92 93 93 93 93 93 95 96 97 98 98 98 99 101 102 104 104 104
46 46 44 40 41 42 44 48 49 52 53 55 57 57 59 64 69 80 85 87 87 91 96 98 99 99 99 98 97 97 97 98 99 101 102 103 105 105 107 108 109 109 109
41 41 40 41 43 45 49 51 53 55 58 61 63 64 67 68 72 76 89 97 101 104 107 108 104 101 97 95 94 94 96 98 100 102 103 105 106 107 108 109 110 111 113
41 40 41 43 47 50 53 55 58 61 63 65 68 72 75 78 81 80 81 92 100 107 107 100 95 93 94 96 97 98 98 100 102 105 107 108 110 112 113 114 115 116 118
42 43 44 47 51 54 57 60 63 66 69 72 76 77 81 85 92 94 94 97 98 103 98 96 97 98 99 100 102 103 105 106 107 109 111 113 113 113 112 111 111 112 110
46 47 49 53 56 59 62 66 69 71 74 79 81 85 88 93 97 100 103 105 106 93 90 93 96 98 98 100 103 105 106 107 108 110 112 113 113 113 113 113 112 111 111
50 52 55 59 62 65 68 71 74 78 82 85 88 90 95 100 105 109 112 114 99 95 95 88 90 93 94 95 96 99 102 108 111 113 116 118 120 122 123 122 121 121 120
55 56 59 63 67 70 73 77 80 85 86 90 93 98 102 107 112 116 121 110 108 95 84 88 88 90 95 99 103 108 112 115 120 124 129 131 132 132 131 129 128 127 125
58 61 64 67 71 74 77 81 85 88 92 96 99 104 109 113 118 121 113 113 105 99 87 90 94 97 102 108 114 118 123 126 127 127 125 126 128 129 126 124 119 117 118
62 65 68 72 76 79 82 86 90 95 98 102 106 110 115 118 120 113 112 106 103 103 103 101 109 113 118 123 124 120 115 113 113 114 114 112 109 109 110 108 103 102 103
67 70 74 77 80 84 87 91 96 100 104 108 112 115 119 120 114 110 106 103 108 113 117 117 118 123 127 123 116 111 107 105 103 101 99 98 98 96 95 94 95 97 98
71 74 76 81 84 88 92 98 101 105 109 112 115 119 117 113 109 105 105 110 116 122 127 126 124 120 114 110 101 99 97 94 92 88 86 87 87 87 88 86 87 87 88
73 77 81 84 89 94 98 102 104 108 112 116 120 114 113 108 104 108 112 119 124 128 129 124 117 108 101 97 93 87 86 84 80 78 81 77 75 76 75 76 77 77 78
76 80 84 89 92 97 100 104 107 112 116 118 112 111 106 104 110 116 120 125 130 131 121 112 105 98 94 90 86 81 80 77 71 72 69 63 68 64 66 65 66 68 68
79 84 88 92 95 99 103 107 110 115 113 110 107 104 106 112 118 123 128 132 133 120 106 99 96 94 90 85 82 76 72 67 64 60 59 58 60 56 57 57 58 58 58
82 86 90 95 99 102 107 110 114 108 108 105 103 108 114 120 125 128 132 128 117 110 102 95 94 89 85 79 73 68 62 59 58 56 54 50 52 48 51 51 50 48 50
85 90 94 98 102 105 110 109 106 105 101 103 110 116 120 126 131 130 121 116 112 105 101 94 86 81 75 70 64 59 57 51 50 50 49 44 45 41 42 44 41 40 44
88 93 97 100 105 108 103 104 98 97 103 110 116 123 128 130 130 119 114 108 103 100 93 84 78 72 66 61 59 55 50 47 43 44 44 41 40 37 36 39 33 34 37
92 96 100 104 100 100 97 92 97 103 108 114 121 129 131 129 118 114 106 101 97 89 82 76 68 62 57 54 50 47 46 44 41 39 39 39 39 40 31 36 28 26 30

GFSMA_250_spd_003.txt.gz
Wind_Speed
69 68 69 68 68 68 69 68 63 63 64 63 58 57 50 41 39 38 40 40 40 41 41 42 44 44 46 47 48 49 51 52 52 52 52 53 56 62 69 73 75 74 73
71 68 68 69 69 68 66 64 64 64 67 58 55 51 44 42 40 40 40 41 41 42 43 44 45 47 48 50 52 53 55 56 56 57 57 58 59 59 62 69 75 78 80
63 64 65 66 66 64 61 62 63 65 62 56 53 49 44 42 40 42 43 43 44 45 46 47 48 50 51 52 54 56 59 62 63 64 65 66 66 65 64 65 67 73 77
64 61 61 61 60 60 62 65 65 61 56 53 50 45 41 40 42 46 46 46 47 48 50 52 54 57 59 61 62 63 64 68 69 68 70 74 75 74 72 71 71 72 74
64 62 63 60 61 63 66 65 63 56 54 52 48 43 44 44 48 49 50 51 51 53 55 57 60 63 66 69 72 74 75 78 79 79 78 79 79 80 80 80 80 79 79
57 60 64 64 65 69 66 62 56 53 50 47 46 46 47 48 53 55 56 57 57 59 60 62 65 69 73 76 79 81 83 86 89 89 88 89 88 87 86 86 87 87 87
54 56 57 59 61 60 57 55 52 51 49 47 50 48 51 52 57 59 60 62 64 66 68 72 75 79 82 85 88 91 94 96 98 97 95 95 95 94 93 93 94 94 94
51 54 55 56 55 52 53 51 49 48 47 48 51 53 56 56 60 64 67 69 71 75 78 80 84 88 90 93 96 99 101 103 101 97 94 93 94 95 96 97 97 99 100
49 50 49 49 50 52 49 48 48 47 49 52 55 56 59 62 65 71 75 76 79 83 86 87 91 94 97 99 103 106 109 105 98 95 95 94 94 94 95 97 100 102 104
49 48 46 49 49 48 47 47 47 49 53 54 58 61 64 66 68 71 80 86 88 91 95 98 102 105 108 111 114 116 108 100 99 99 98 99 99 100 100 102 102 104 105
45 44 45 46 46 46 46 48 50 53 55 60 63 68 71 73 74 74 78 87 90 96 100 104 107 111 115 119 122 116 109 108 105 102 99 98 99 100 103 105 108 110 112
45 44 46 46 48 49 50 53 55 57 61 65 69 73 77 79 82 83 83 83 88 94 103 107 114 118 121 124 117 114 111 107 105 104 103 103 104 104 105 105 105 107 109
47 48 49 49 53 54 56 58 60 64 67 71 74 78 80 84 87 89 91 92 92 97 101 105 113 118 122 115 115 110 108 108 107 106 106 107 109 110 111 111 110 111 111
50 52 52 54 56 57 60 63 66 69 73 76 80 84 87 89 92 95 99 100 99 104 107 111 118 119 113 111 105 105 104 105 109 113 117 120 122 125 126 127 126 125 123
53 54 56 58 59 62 64 67 70 75 78 82 86 89 92 95 99 103 107 109 110 107 110 119 113 114 108 105 105 107 110 113 118 123 128 131 134 134 134 133 132 131 129
54 56 60 61 63 66 69 73 76 80 85 88 91 95 98 101 105 109 112 115 119 121 116 113 110 106 105 106 112 117 123 126 130 128 123 120 119 121 123 124 124 123 122
57 59 62 65 67 70 74 77 81 85 89 92 95 99 103 106 110 114 117 121 124 121 116 105 107 110 114 120 125 127 125 120 115 111 109 106 107 106 104 107 108 106 104
60 63 65 67 70 73 76 80 84 88 91 96 99 103 107 111 115 119 122 125 120 121 113 109 113 118 124 129 129 119 112 108 100 97 96 97 95 95 96 95 98 97 95
63 65 67 71 73 77 80 84 87 91 96 100 103 108 112 116 119 123 122 119 117 114 119 120 120 127 129 124 114 108 99 94 91 88 87 81 83 84 84 86 85 86 86
65 68 71 74 77 80 83 87 91 96 100 104 109 111 115 120 122 118 117 112 116 121 124 127 129 126 118 110 101 92 91 89 82 81 77 76 75 73 73 74 74 74 73
68 70 74 78 82 84 87 91 94 98 104 108 112 115 120 119 116 113 113 118 124 127 128 129 122 113 105 96 92 88 83 81 77 75 71 68 67 63 65 65 67 67 65
69 73 78 82 83 86 90 93 98 103 106 110 116 118 113 113 108 114 120 127 131 132 128 117 108 99 97 94 90 83 79 75 74 67 64 56 61 57 57 56 57 57 58
73 78 81 83 86 89 93 99 102 106 110 114 111 111 105 109 114 120 125 130 134 129 117 106 101 97 95 87 83 79 73 66 59 59 61 49 50 47 46 48 48 48 48
76 79 82 85 89 93 98 101 105 110 109 107 103 104 108 114 121 125 127 132 125 116 109 103 97 90 82 79 74 70 65 59 50 49 52 47 45 36 42 38 41 40 42
78 81 84 89 94 96 100 106 106 104 101 97 104 110 115 122 126 129 130 121 114 107 102 96 86 80 75 69 65 62 55 51 46 41 45 42 42 37 40 37 37 32 36
81 86 89 91 95 101 104 102 100 92 97 103 110 116 122 127 129 129 119 110 105 100 93 84 77 70 63 58 53 51 48 47 42 39 38 37 37 38 32 32 33 28 28

GFSMA_250_spd_006.txt.gz
Wind_Speed
80 78 77 76 77 76 76 72 70 71 67 68 69 67 63 64 64 57 54 50 46 39 38 39 39 39 40 40 41 43 44 44 43 44 46 48 49 50 50 50 51 52 54
81 81 80 78 78 78 78 75 72 70 68 63 63 64 66 66 62 55 53 47 43 39 41 42 41 42 42 43 44 46 48 49 50 51 53 55 55 56 58 59 59 59 59
74 75 74 74 73 71 72 71 68 68 64 60 62 65 67 66 60 54 50 44 44 44 46 46 47 48 48 49 50 51 53 55 56 57 59 62 63 64 65 64 67 68 68
70 71 70 69 70 69 68 65 65 64 62 63 64 67 67 64 57 54 49 47 48 49 50 52 53 54 55 56 56 58 59 61 63 63 64 67 70 71 72 74 76 76 77
53 53 55 57 60 62 65 65 66 66 66 66 65 66 62 58 56 51 51 52 53 54 55 57 58 59 60 62 64 66 67 70 72 74 75 76 79 80 81 82 83 85 87
48 50 52 54 53 55 60 62 64 65 67 67 64 62 58 57 54 53 55 56 56 58 59 60 63 66 68 71 72 76 79 80 82 84 85 84 87 89 91 93 94 94 91
50 47 49 53 53 55 57 60 61 63 62 62 60 59 57 55 54 56 57 61 61 63 63 66 68 70 73 75 77 81 85 87 90 92 93 95 97 99 102 102 98 89 86
49 49 52 51 50 51 53 55 55 56 58 59 60 57 56 54 56 59 62 64 66 68 70 72 75 76 77 80 85 88 90 93 96 98 100 101 104 108 108 107 98 92 88
51 52 53 51 51 52 51 52 54 57 58 58 58 56 55 57 59 63 66 69 70 73 76 78 80 82 84 85 88 92 96 97 100 103 105 108 112 112 112 104 101 102 99
54 53 53 53 51 51 52 53 55 55 53 53 55 56 57 60 62 66 73 74 77 81 84 85 88 91 93 93 97 98 100 102 105 108 111 113 116 111 104 106 102 98 96
57 57 56 55 52 51 50 51 51 51 51 53 56 58 61 64 67 69 74 81 82 86 89 93 98 102 103 106 108 110 112 114 116 117 120 118 110 111 107 97 93 91 92
59 58 57 57 55 52 52 51 52 55 57 59 61 64 66 70 73 74 76 81 84 91 95 100 104 108 110 112 114 117 120 123 125 127 122 119 116 104 98 94 94 96 97
59 58 57 58 56 55 54 53 56 58 60 63 65 69 72 75 77 80 83 85 88 93 96 99 105 110 115 118 121 123 126 130 129 124 124 116 111 109 112 115 116 115 114
61 59 59 59 58 57 58 58 59 62 64 67 70 74 76 80 84 86 89 91 93 97 100 103 109 111 115 118 122 126 127 122 123 116 113 114 118 122 126 129 131 131 129
63 62 61 60 60 60 61 63 64 66 68 72 76 79 82 85 87 91 94 97 98 98 102 108 115 118 120 124 127 123 123 115 111 116 118 121 124 128 132 131 126 123 122
65 65 63 61 62 63 64 66 68 70 73 76 79 82 85 88 92 94 97 100 104 105 106 115 118 122 126 123 123 119 114 119 122 125 126 125 122 119 117 113 113 114 112
66 67 64 62 64 65 67 69 71 74 77 79 82 85 89 91 95 98 102 105 109 114 114 116 123 123 121 120 116 120 125 126 127 126 118 111 108 105 100 102 102 103 102
67 66 64 64 65 67 69 72 75 77 80 82 85 87 91 95 99 103 106 111 115 118 121 120 118 114 117 122 124 128 130 129 119 111 105 99 97 92 93 92 94 94 94
67 65 65 66 67 69 72 75 77 80 83 85 87 91 96 100 103 108 112 115 120 124 121 117 109 119 123 127 129 132 126 114 104 95 92 90 83 87 83 83 84 84 83
64 64 65 66 69 72 75 77 80 83 85 89 93 96 100 105 110 113 117 122 121 117 112 117 120 122 128 132 129 117 108 100 92 86 85 82 77 79 78 78 78 78 74
64 63 64 68 71 74 77 79 83 86 90 95 99 102 107 110 114 119 120 116 110 114 119 121 126 130 132 126 111 100 92 89 85 80 84 78 69 74 70 67 68 69 68
63 63 65 69 73 76 79 84 87 90 96 100 104 109 112 116 119 115 109 111 119 123 125 128 130 127 116 105 99 93 86 84 82 73 77 71 63 62 63 61 61 60 60
61 62 67 71 74 79 83 87 91 96 100 106 109 113 117 115 108 105 112 120 126 130 131 129 121 111 102 96 93 90 84 80 71 65 69 61 58 53 53 52 53 54 55
58 64 69 73 77 82 86 91 96 101 105 109 114 116 111 102 107 113 119 126 131 132 129 118 107 98 93 89 86 84 78 72 62 52 59 56 53 47 47 46 45 46 49
61 66 71 75 80 85 90 95 100 103 110 113 111 105 103 109 116 121 126 129 133 128 115 105 97 92 87 83 78 74 69 64 59 45 48 45 46 43 45 42 42 44 44
64 68 73 78 84 89 94 98 105 109 109 104 98 102 108 116 122 128 130 132 124 112 102 97 91 86 81 74 68 63 60 57 52 45 41 41 39 43 35 38 37 40 38

GFSMA_250_spd_009.txt.gz
Wind_Speed
91 89 84 80 79 80 79 81 82 82 82 81 79 79 77 77 72 67 65 62 63 62 59 55 50 46 42 42 42 42 42 41 41 42 43 43 43 44 45 46 47 47 48
78 90 90 85 81 82 83 81 81 82 79 77 77 79 75 70 67 65 62 65 66 65 63 54 49 47 46 46 45 47 47 47 47 47 48 49 49 50 50 51 52 53 54
70 74 80 85 86 85 84 84 83 82 80 76 73 71 69 66 63 63 67 69 67 66 58 53 51 51 51 50 51 52 51 52 53 53 54 56 57 58 60 61 61 62 63
61 65 69 73 78 83 81 75 77 75 73 71 71 70 69 66 65 67 68 66 65 63 56 54 54 55 55 55 56 56 55 56 58 60 61 63 64 66 70 71 72 72 73
59 60 58 57 57 58 57 59 58 57 59 62 63 63 62 64 65 67 66 65 62 58 57 57 59 59 59 61 60 61 61 63 65 67 69 69 70 71 75 77 78 80 82
62 60 55 54 54 54 54 55 55 56 58 59 57 56 59 61 62 63 64 63 60 58 59 61 63 63 63 65 65 65 67 70 72 73 74 74 76 78 80 82 83 84 85
65 61 57 55 55 55 55 54 53 54 53 52 52 54 57 59 61 62 60 59 59 60 61 64 65 67 68 69 70 71 73 75 78 80 81 82 83 84 87 89 90 90 90
66 64 61 60 57 55 54 53 54 54 53 53 53 54 56 59 60 60 59 58 59 62 65 67 69 69 71 74 75 78 80 82 83 85 88 90 92 93 95 96 97 98 98
69 67 64 61 60 58 56 55 54 55 55 55 56 57 57 56 55 55 56 58 61 64 66 69 72 74 76 78 80 82 85 89 90 92 94 95 97 99 101 103 104 104 105
68 66 65 62 61 61 59 58 56 57 56 56 57 57 55 53 53 56 59 61 64 68 70 72 76 79 81 84 86 88 91 94 95 97 99 101 103 105 106 107 109 112 113
67 68 67 65 63 62 61 60 60 60 59 58 59 60 59 59 59 61 64 67 68 72 75 78 82 88 91 92 95 96 98 100 102 103 105 107 108 110 112 114 116 113 107
69 68 66 65 66 66 65 63 62 61 62 62 62 63 63 64 65 66 67 71 73 78 80 84 89 93 96 99 101 102 103 105 107 109 112 114 116 119 120 119 113 102 95
68 69 69 68 69 69 67 66 63 62 64 66 66 66 68 69 70 72 73 75 78 83 87 91 94 97 100 101 104 107 109 112 116 118 121 124 126 124 119 107 105 106 107
69 69 69 69 70 71 69 67 65 65 66 69 70 71 72 74 76 78 79 80 82 86 90 94 98 100 101 104 107 111 114 118 120 124 128 128 124 118 114 118 121 124 125
68 71 71 71 72 72 70 70 68 69 69 71 73 74 76 78 80 82 84 86 88 88 90 95 98 101 104 107 112 115 117 121 125 126 123 115 112 117 121 127 131 131 129
68 69 71 72 75 74 74 73 71 72 72 73 75 77 79 81 83 84 86 88 91 90 88 96 101 105 110 113 117 121 123 122 120 112 115 118 122 125 129 129 126 123 117
67 69 71 74 76 76 75 74 73 74 76 77 77 79 82 84 85 86 88 91 93 94 97 103 108 112 116 121 124 122 118 110 115 120 124 128 127 124 115 109 104 103 102
69 69 71 73 75 75 75 76 76 77 78 79 81 83 86 87 89 90 93 96 98 103 106 108 114 119 123 124 121 111 118 121 125 125 126 122 113 106 100 95 96 95 93
69 71 71 73 74 76 78 77 77 78 79 80 83 86 87 90 92 95 98 101 106 110 114 116 119 123 123 118 117 122 127 130 127 119 112 105 100 95 89 86 86 83 82
64 69 72 73 74 75 76 76 76 77 78 81 85 87 90 93 96 100 104 108 112 117 121 123 122 120 115 121 126 129 131 128 115 101 97 93 89 84 79 80 78 76 74
61 68 72 74 72 73 74 74 74 75 78 82 86 90 93 96 101 106 110 114 119 124 126 122 118 116 122 128 132 132 118 102 100 86 85 83 80 72 70 73 70 67 67
55 59 68 72 71 71 72 72 74 75 79 84 89 93 97 101 105 110 115 120 126 124 121 114 120 124 130 132 127 110 100 92 86 73 78 79 68 69 65 65 64 61 60
57 58 61 67 68 68 69 70 72 75 82 87 91 96 101 106 110 115 121 124 121 118 120 122 127 132 130 119 107 100 89 81 77 71 70 71 61 62 60 58 57 55 53
56 57 56 60 63 65 66 68 72 79 85 90 96 100 105 111 116 121 118 115 116 123 125 129 132 125 112 102 94 87 83 79 71 62 62 66 56 58 56 54 52 51 48
52 49 51 55 60 62 66 70 77 82 89 95 99 105 111 116 117 113 111 116 122 126 131 130 120 108 99 90 85 82 76 70 68 59 53 57 51 55 49 52 50 47 44
42 45 51 56 59 65 70 76 82 88 92 99 105 112 113 110 107 112 117 122 126 130 128 117 104 95 86 83 78 71 67 65 62 60 48 51 47 48 48 45 46 43 43

GFSMA_250_spd_012.txt.gz
Wind_Speed
70 72 74 82 88 88 87 88 88 85 86 85 81 78 81 84 83 84 78 75 73 68 65 62 61 63 63 60 56 55 51 47 45 45 44 44 43 42 43 42 42 42 42
70 67 67 69 71 75 81 82 87 90 92 93 88 90 88 90 86 82 75 71 67 64 65 63 63 65 62 56 54 54 52 51 50 49 49 49 49 49 48 48 49 49 50
69 66 64 64 64 66 69 71 73 74 77 81 81 79 81 84 81 75 72 69 66 65 65 63 65 63 58 54 55 55 55 54 54 55 55 53 55 54 55 56 57 57 59
74 69 66 64 64 63 63 62 63 65 67 67 68 70 71 68 62 60 59 61 61 61 63 62 61 59 58 55 56 58 57 57 59 60 60 59 59 60 61 63 64 65 66
75 73 70 67 65 63 61 60 60 58 56 54 55 57 59 58 58 60 56 55 57 58 59 59 59 61 58 56 58 60 62 63 64 65 64 65 66 67 68 69 71 71 71
73 74 72 70 68 66 63 61 60 59 57 57 57 57 55 56 56 56 57 59 60 60 59 59 59 58 58 59 61 63 66 68 69 69 69 70 72 74 75 75 76 77 77
70 71 73 73 72 70 68 65 62 59 58 56 55 56 56 55 56 56 55 55 57 58 58 58 58 58 58 60 63 66 69 70 72 73 74 76 78 80 81 82 83 83 85
66 69 71 72 72 71 70 67 65 64 64 61 58 55 55 56 55 56 57 56 55 58 56 56 56 57 59 63 66 67 69 73 76 77 80 82 84 85 87 89 90 91 92
64 67 69 70 69 69 68 68 67 66 67 66 63 60 57 57 59 61 59 57 58 58 57 57 60 62 63 66 69 71 73 77 80 82 85 88 90 92 94 95 96 97 97
61 65 66 67 68 69 70 70 70 69 68 67 65 64 63 62 62 64 62 62 61 63 62 64 67 69 70 72 75 78 81 83 87 90 92 93 95 95 96 97 98 99 101
60 63 65 67 67 69 71 71 71 70 69 69 67 66 66 66 66 65 66 66 67 69 70 71 74 76 78 81 81 83 85 87 90 93 95 96 98 99 100 101 101 103 105
58 62 65 65 67 69 71 73 73 74 72 72 71 70 69 69 69 67 67 69 71 76 75 77 78 79 81 84 86 88 90 93 96 98 99 100 101 103 105 107 108 109 111
55 59 63 66 68 69 70 73 75 75 75 74 73 73 74 73 72 72 70 71 74 78 80 83 83 83 85 88 90 92 94 97 99 101 103 105 107 108 109 112 114 112 106
56 57 57 64 69 68 69 72 75 79 80 78 77 77 77 77 77 77 77 76 77 79 83 87 90 90 90 90 91 95 97 101 103 107 110 112 114 116 115 110 101 101 107
54 54 57 61 66 71 71 72 75 77 79 80 80 81 81 80 81 82 83 83 82 81 84 91 92 95 96 97 99 100 103 107 110 113 116 117 116 111 103 106 112 117 121
56 56 58 62 67 69 72 73 75 78 80 82 83 85 85 85 86 86 87 88 89 89 88 94 96 98 100 103 105 107 110 112 117 119 117 111 103 107 112 117 122 126 127
58 59 58 60 64 71 75 77 77 80 81 82 85 87 89 90 89 89 89 91 93 94 95 97 99 101 103 106 110 113 116 119 120 117 107 110 112 117 120 122 123 121 117
59 57 54 56 58 61 66 73 79 80 82 83 84 86 88 89 90 91 92 93 95 98 99 98 101 105 109 113 115 118 121 119 111 111 116 118 119 119 117 111 106 104 101
59 56 54 56 56 57 64 69 77 83 84 84 84 85 85 88 90 92 92 94 96 98 100 100 104 110 115 119 120 120 115 111 118 118 121 122 118 109 103 97 96 94 90
56 56 57 57 58 60 64 66 71 78 83 86 85 84 84 85 86 88 90 93 96 98 102 106 110 115 120 122 118 111 115 121 126 122 116 109 103 99 92 88 87 85 82
53 55 58 59 62 64 66 66 69 72 76 81 82 82 82 83 83 86 89 92 97 103 108 112 117 120 121 117 111 119 124 125 125 107 101 100 92 87 83 81 77 73 70
55 58 61 63 65 69 67 67 69 69 69 70 75 77 80 82 83 85 90 97 103 108 113 116 118 118 112 116 120 125 126 119 111 95 85 88 80 78 73 69 66 62 58
57 61 64 67 66 66 67 64 66 62 60 63 68 74 78 81 85 90 96 103 110 116 118 116 108 110 117 123 125 125 116 108 97 84 75 83 69 65 62 60 59 55 52
59 62 65 66 66 65 63 58 56 56 60 65 71 75 79 85 91 97 102 110 115 119 116 112 114 119 123 122 117 108 100 94 91 79 62 72 64 57 55 53 53 50 50
60 63 66 64 60 56 54 54 57 62 66 70 75 81 87 92 98 104 109 114 115 111 114 118 122 123 120 110 98 90 87 81 79 75 55 58 57 52 51 47 48 47 48
63 61 56 52 50 52 55 61 64 67 72 78 85 90 95 100 105 109 109 106 109 115 119 124 125 116 104 95 86 80 74 70 66 68 53 52 48 44 47 42 42 45 45

GFSMA_250_spd_015.txt.gz
Wind_Speed
66 68 68 68 67 67 68 71 74 76 81 84 86 90 90 88 87 89 93 92 91 88 86 85 78 72 72 64 63 62 60 59 54 49 47 50 50 47 46 46 46 46 44
67 67 69 67 63 64 64 65 67 68 69 70 73 74 74 76 75 75 77 78 82 84 81 79 74 71 67 62 63 60 60 57 53 50 50 52 53 52 51 50 51 51 50
64 65 70 71 69 67 67 66 66 65 65 64 64 65 65 66 66 69 69 69 69 68 64 61 59 59 59 58 58 59 57 52 52 54 52 54 57 57 56 56 56 55 55
63 64 68 69 70 70 72 72 70 69 68 66 63 62 62 60 60 59 58 59 58 58 60 62 59 57 57 56 55 54 55 56 56 58 56 56 58 60 60 60 61 61 61
63 64 65 66 67 70 73 74 73 72 71 68 65 62 61 61 59 58 59 60 58 58 59 59 59 59 60 59 58 57 57 56 58 60 59 60 62 63 64 66 66 66 68
62 63 63 64 64 66 69 72 75 75 75 73 70 67 65 63 62 62 59 60 58 60 60 59 59 58 59 58 58 59 59 60 60 60 61 63 66 69 70 71 72 72 73
60 62 63 65 64 66 67 70 72 74 74 73 73 72 70 67 65 63 61 59 60 59 58 59 59 59 58 59 61 61 62 61 61 62 62 65 69 72 73 76 77 78 79
58 61 63 65 66 64 65 67 69 73 75 76 76 76 73 70 69 69 68 65 62 62 63 63 61 61 60 60 61 62 62 63 64 65 67 70 73 75 77 80 82 84 85
55 58 62 63 64 66 65 66 67 70 72 73 74 74 72 71 70 71 72 70 68 67 68 68 66 65 64 65 65 65 65 68 71 72 74 76 78 80 82 85 87 89 91
48 52 55 60 65 65 64 65 68 69 70 72 74 75 75 73 73 73 73 73 72 71 71 71 69 69 68 67 70 70 71 74 76 78 80 81 83 84 86 88 91 93 93
52 52 56 57 61 64 63 64 66 68 70 71 72 73 76 77 76 75 77 76 77 75 75 76 75 74 73 74 73 74 76 77 78 80 82 83 83 85 87 89 91 93 96
56 55 56 57 57 60 62 64 66 68 68 69 71 72 75 77 80 81 80 80 80 83 82 81 80 79 79 80 81 81 82 84 86 87 90 90 89 91 92 94 96 99 101
62 58 57 58 58 59 60 61 65 67 69 70 71 72 74 76 79 82 83 82 83 86 87 89 88 86 86 86 88 88 89 90 92 94 96 97 97 98 99 100 103 105 107
61 60 58 59 59 60 60 59 60 62 66 71 74 75 76 78 81 83 85 87 89 90 91 94 95 94 93 94 96 96 97 98 100 103 104 104 103 104 106 107 109 112 115
62 61 59 59 59 61 60 61 63 64 65 68 71 76 79 82 83 85 87 88 89 89 92 99 98 100 102 102 102 102 103 104 105 107 107 107 109 109 112 113 117 120 120
60 61 59 60 61 62 64 65 66 64 66 66 65 72 79 83 87 88 88 89 91 90 90 96 100 102 105 106 106 107 108 108 109 110 110 110 112 115 118 121 122 116 113
63 61 60 60 62 65 67 67 66 64 62 65 68 71 76 82 88 92 93 94 93 91 90 91 92 96 99 103 106 107 108 109 110 111 112 115 118 121 124 120 114 118 120
64 63 62 62 64 67 67 68 67 66 65 65 69 71 73 77 81 84 88 93 94 93 90 89 91 95 97 99 100 101 104 107 109 114 116 121 124 122 112 117 121 122 122
68 65 60 64 66 67 67 68 66 67 67 70 73 76 77 78 79 79 79 83 86 89 90 89 91 94 97 99 97 100 104 109 115 119 122 122 114 118 120 120 118 116 111
62 59 61 63 66 66 68 67 67 68 71 74 76 76 77 78 77 76 77 77 78 80 84 87 91 94 94 97 100 104 111 117 123 121 113 117 117 118 117 109 105 101 97
55 56 62 64 65 66 69 68 69 73 74 75 76 77 76 74 72 68 67 70 74 78 83 88 91 95 100 105 109 113 116 114 113 116 116 120 112 111 104 96 93 90 88
53 58 60 62 62 65 67 70 72 72 73 74 72 69 66 64 65 68 71 75 79 82 86 91 96 101 108 111 113 106 106 112 118 121 111 107 98 99 91 86 83 80 77
59 58 56 56 61 66 67 69 71 73 71 68 64 63 65 69 72 75 78 83 89 94 97 101 104 108 108 100 102 107 112 115 113 104 92 92 92 88 81 77 68 66 66
50 54 52 59 64 68 72 74 74 69 64 63 65 68 72 76 80 84 87 93 98 103 107 109 106 101 102 105 108 109 108 103 99 94 80 81 83 78 71 64 56 57 56
54 58 59 64 69 73 75 68 62 61 65 69 72 76 78 83 86 91 94 99 103 104 103 104 103 106 110 108 105 100 95 90 86 86 72 68 69 64 65 57 47 46 46
63 60 65 69 71 65 60 62 65 68 70 74 78 82 85 88 91 94 95 96 98 102 104 108 111 112 106 101 94 88 81 79 73 72 64 64 60 55 62 49 40 38 44

GFSMA_250_spd_018.txt.gz
Wind_Speed
76 74 71 70 69 67 67 67 68 69 69 69 69 68 68 69 70 71 73 73 73 75 76 74 73 73 73 73 71 71 71 61 58 57 55 57 57 57 50 48 48 49 49
71 68 68 69 69 66 65 67 68 67 67 68 67 66 65 65 65 66 65 64 64 66 66 68 68 68 67 64 61 60 57 54 52 52 53 55 57 55 52 52 53 53 52
66 66 67 66 66 66 66 66 67 69 70 71 71 71 68 68 68 68 66 64 63 64 64 61 60 58 58 57 59 59 57 54 52 54 54 56 55 53 52 54 56 57 57
64 65 67 67 67 67 67 66 65 67 69 70 72 74 73 73 73 71 68 66 65 64 63 62 61 61 61 59 60 58 57 55 56 58 57 55 57 59 57 57 58 59 60
60 62 63 65 66 67 67 67 67 66 66 68 71 73 75 76 75 74 72 71 69 68 65 65 66 63 61 61 60 59 58 57 58 58 57 59 59 60 60 59 59 61 62
53 56 58 61 63 63 64 66 68 67 66 67 68 71 73 74 75 76 76 75 73 72 70 69 68 65 62 63 62 59 58 58 59 59 60 61 62 63 63 62 62 63 64
53 53 51 56 58 61 63 65 66 67 68 67 68 70 71 72 74 75 76 75 75 75 74 73 72 71 69 68 67 64 61 61 61 61 61 60 61 63 64 64 64 65 67
52 53 53 53 54 57 59 63 65 66 67 68 69 70 71 72 73 74 76 77 78 78 77 76 75 75 75 73 74 72 69 68 66 65 64 63 63 64 64 66 66 68 69
57 60 58 52 54 56 57 58 60 61 64 67 68 69 70 71 71 72 74 75 75 76 77 78 79 78 78 78 77 77 76 73 71 71 69 68 68 69 70 71 73 74 76
60 57 57 53 54 57 59 60 60 61 60 63 66 69 70 70 70 72 73 74 76 77 81 81 82 82 82 82 82 81 80 80 78 76 76 76 76 75 76 77 78 79 81
61 62 62 60 58 61 62 63 62 60 58 59 60 63 67 70 71 72 73 75 78 80 81 82 83 84 86 87 87 87 87 86 85 84 83 84 83 83 83 84 84 85 86
68 69 69 66 65 66 66 65 64 61 58 58 57 59 62 66 68 72 75 76 78 82 83 84 84 86 88 90 92 92 92 93 93 93 93 92 93 93 93 93 93 94 94
71 71 72 70 68 67 67 66 65 62 58 58 59 58 59 60 64 67 70 75 78 82 85 88 89 89 91 93 94 95 96 98 99 100 100 101 101 100 100 100 101 101 102
73 73 72 69 67 68 68 68 64 62 59 60 62 63 65 66 69 70 71 72 75 79 84 90 93 95 96 96 96 96 97 99 99 101 102 103 103 104 105 105 106 106 107
76 75 73 68 70 67 68 65 65 65 62 63 66 68 68 69 70 70 71 71 73 74 78 87 93 98 101 102 102 102 101 100 100 101 101 101 100 99 100 101 104 104 105
75 75 73 72 71 67 68 69 67 67 66 67 70 72 71 72 72 70 72 72 74 75 76 80 86 89 92 96 100 103 104 104 104 103 101 101 100 99 100 102 101 102 103
72 71 69 68 69 68 68 70 68 69 68 70 73 74 74 75 73 72 73 77 79 81 80 80 83 85 86 87 90 93 98 101 103 104 103 103 102 101 102 101 102 105 109
71 70 67 65 65 64 64 68 71 71 70 73 74 75 75 76 76 77 81 82 84 85 85 81 82 83 83 84 82 83 87 91 95 99 101 101 104 104 105 108 111 116 120
64 65 66 65 64 63 68 71 70 69 72 73 75 74 74 75 77 79 81 84 86 86 84 78 74 73 75 78 78 81 84 88 93 97 100 103 108 112 115 118 120 120 119
65 63 62 59 60 49 71 69 68 70 71 73 71 73 73 76 79 82 84 83 78 75 73 74 75 77 79 83 84 86 92 97 101 105 110 112 116 115 114 114 114 116 118
50 53 55 60 63 63 67 66 66 70 71 70 73 75 80 83 81 76 71 72 75 77 78 80 83 86 89 92 94 97 100 102 103 105 104 106 110 113 115 115 114 111 107
45 49 55 54 60 56 57 64 70 72 69 73 79 81 82 73 70 73 75 77 80 83 85 87 90 92 95 98 98 94 93 97 104 109 106 110 111 110 109 105 102 95 88
43 43 35 50 57 65 65 67 72 69 72 79 82 82 72 75 76 79 81 83 87 91 92 93 93 95 93 93 95 99 104 103 106 106 102 99 98 99 95 92 89 81 76
30 38 44 51 61 68 73 63 64 69 76 81 83 76 78 80 82 85 87 89 93 94 94 95 95 96 99 102 103 104 103 101 100 97 92 86 88 87 86 88 79 71 64
31 41 51 41 58 55 58 67 74 79 83 84 78 81 82 85 88 90 91 90 90 93 95 98 102 104 106 106 104 100 98 93 90 89 83 76 79 73 76 80 73 65 63
40 55 56 57 66 66 70 75 82 87 81 80 82 84 86 89 92 90 87 88 92 98 103 107 108 109 108 104 98 93 88 85 80 76 75 71 74 69 68 71 67 55 59

GFSMA_250_spd_021.txt.gz
Wind_Speed
83 84 88 87 86 87 85 80 77 76 75 74 72 70 70 70 69 67 66 66 64 62 61 61 60 61 60 60 61 61 61 58 55 55 53 51 49 47 46 47 49 51 51
85 83 83 84 81 79 78 75 74 71 70 71 71 72 71 70 70 70 69 69 68 66 65 64 63 62 61 60 59 59 57 55 55 54 53 51 49 46 46 48 49 51 51
75 76 77 76 74 74 71 71 69 70 70 69 69 71 71 72 73 72 70 69 70 69 70 69 68 66 64 62 61 60 59 58 59 57 55 51 47 49 48 50 51 52 53
68 67 69 69 70 68 69 69 69 70 69 69 69 69 71 72 73 73 72 71 71 70 70 71 70 69 68 67 66 64 62 61 59 59 57 54 51 50 50 53 55 53 53
62 60 60 60 60 63 65 64 65 67 69 70 70 70 70 71 71 72 72 72 71 71 71 71 71 71 70 71 70 68 67 65 63 63 60 57 55 53 53 53 55 58 60
59 59 59 57 58 57 57 57 57 60 64 65 66 68 68 69 70 70 71 71 72 72 72 71 70 70 70 71 72 72 71 70 68 68 67 64 60 58 57 56 57 59 61
62 61 61 61 60 58 55 54 56 58 57 58 61 64 66 68 70 70 71 70 70 71 71 71 71 71 72 72 74 75 75 74 73 72 74 71 70 67 66 64 61 60 60
64 62 63 63 63 60 58 59 63 62 60 58 56 57 59 63 66 69 71 70 71 71 72 71 71 71 72 73 74 74 76 76 76 76 76 75 74 74 72 69 69 67 64
69 68 71 71 68 68 69 68 64 59 61 62 63 61 63 61 62 63 65 68 70 72 73 73 73 74 74 75 76 76 78 79 81 81 81 80 79 79 76 75 73 72 72
70 71 68 68 67 65 64 63 63 63 67 70 71 73 69 63 59 59 61 62 65 68 71 72 74 75 76 77 79 80 81 82 83 84 86 87 86 84 83 83 82 81 78
71 70 71 70 71 69 68 70 71 73 73 75 74 73 71 65 62 60 58 57 59 61 63 66 71 76 79 81 82 82 83 84 86 87 88 89 90 91 91 90 90 89 88
74 73 71 71 74 73 72 73 73 73 74 75 74 73 71 64 62 61 62 61 63 64 65 66 67 69 73 77 81 84 87 89 90 92 94 95 96 95 96 95 95 95 95
78 79 77 77 77 76 76 74 75 74 74 73 73 72 71 66 65 64 65 64 66 68 70 72 71 70 71 73 76 79 82 86 90 94 98 100 100 101 101 100 101 101 100
83 79 78 77 76 77 77 77 76 77 76 74 75 73 70 72 67 67 67 67 68 70 73 75 74 75 76 76 78 80 82 85 86 89 91 93 96 99 103 105 105 105 104
83 82 79 76 73 74 74 76 77 78 76 76 74 72 73 74 70 70 70 70 72 72 72 75 77 79 81 84 85 85 86 86 87 87 88 89 90 91 94 97 101 105 107
86 83 79 77 74 73 74 73 75 77 77 75 74 75 75 72 73 72 71 73 76 74 73 75 78 83 86 88 89 89 91 89 87 87 86 86 86 86 86 87 89 91 94
90 86 83 79 76 75 74 72 73 73 74 75 74 74 73 74 75 74 73 76 77 76 76 79 84 87 89 90 89 86 82 80 81 82 82 83 83 83 84 85 87 89 92
91 87 84 80 77 75 69 70 72 73 73 73 76 74 75 75 76 74 75 79 78 82 85 87 88 85 82 79 76 77 81 84 83 85 86 87 89 90 92 94 96 100 102
84 87 84 80 78 71 69 69 71 71 69 73 73 74 74 78 77 77 79 82 83 89 90 79 74 75 78 81 81 84 86 88 91 92 94 94 94 94 97 98 102 107 110
77 76 77 74 70 68 66 67 68 70 72 72 76 76 79 80 77 79 85 85 90 90 80 81 80 82 84 86 87 89 93 95 93 94 93 93 96 99 103 104 107 110 109
72 67 64 66 64 63 63 63 68 67 70 73 75 80 78 77 79 82 82 87 89 83 86 87 87 90 90 92 94 93 89 90 94 98 100 105 103 105 108 107 108 107 105
53 51 55 57 57 58 60 59 62 71 72 71 70 73 79 83 83 85 90 86 88 89 91 92 94 94 94 93 90 92 95 97 100 106 105 109 106 105 104 102 100 95 90
28 33 39 41 43 47 53 60 63 69 63 68 77 81 80 79 85 90 89 89 92 94 96 98 96 93 91 95 97 99 102 103 107 106 104 105 96 98 96 94 91 83 78
25 28 32 37 43 48 46 50 56 66 69 77 72 69 79 85 88 90 91 93 96 100 99 99 95 98 100 103 104 104 104 104 106 103 97 91 91 88 85 86 84 76 68
23 27 33 36 41 44 52 58 66 73 78 77 78 82 90 93 94 95 95 97 100 102 100 101 104 106 108 109 107 105 103 101 96 95 90 83 84 76 76 77 74 68 68
24 30 28 36 50 63 60 59 66 68 72 78 84 88 96 98 97 97 98 100 98 99 105 108 112 112 111 110 106 100 95 92 88 83 80 77 76 67 72 73 70 65 59

GFSMA_250_spd_024.txt.gz
Wind_Speed
75 77 79 80 81 83 84 85 87 85 86 85 80 78 77 75 74 72 71 69 68 69 68 67 66 66 66 65 65 63 60 58 56 54 52 50 49 48 49 47 44 41 40
75 76 78 75 76 80 80 78 82 78 76 74 73 72 70 70 70 69 71 69 68 68 68 67 67 67 68 67 67 66 64 62 60 57 55 52 51 52 51 48 45 42 40
74 75 71 72 69 70 71 71 72 70 65 65 65 65 66 66 67 67 67 67 69 69 69 68 68 68 67 66 67 66 65 63 63 61 60 59 56 54 53 49 47 45 43
70 68 66 63 63 64 65 64 64 62 59 58 58 58 61 61 63 64 64 66 68 68 67 68 69 68 66 65 65 64 63 63 65 64 63 62 61 58 56 55 51 48 47
69 68 67 65 66 66 63 62 61 61 61 60 59 57 56 57 58 58 59 61 63 64 65 67 68 68 67 67 65 65 64 64 64 64 64 64 64 62 62 60 58 54 52
67 70 73 70 69 69 67 66 61 59 58 58 56 56 59 62 58 58 57 59 60 62 62 63 64 66 67 67 67 66 65 65 64 65 67 66 67 68 66 65 65 64 60
72 70 70 72 69 65 65 66 64 64 65 64 63 64 63 57 57 57 60 63 67 65 62 62 62 63 65 66 66 65 65 65 66 66 68 69 69 69 70 69 69 68 67
74 74 73 72 69 70 69 67 67 68 67 66 62 61 60 60 63 68 69 68 67 65 61 60 62 63 64 64 65 66 67 68 68 68 69 71 71 72 73 74 74 74 73
72 73 71 73 74 71 72 70 71 71 68 68 64 63 65 67 68 70 70 70 65 65 60 59 60 62 61 60 61 62 63 66 67 70 72 73 74 75 77 77 78 80 80
77 71 70 75 76 75 72 73 73 71 71 71 69 68 68 71 71 71 69 68 67 67 65 63 62 60 60 60 59 60 61 62 65 68 70 73 76 79 80 81 82 83 84
80 77 73 75 73 77 77 74 74 74 72 72 75 73 73 73 73 72 70 71 70 69 66 68 65 62 60 60 60 61 63 65 66 68 71 73 76 77 79 81 84 87 88
88 85 80 81 81 78 77 77 75 78 77 78 77 74 76 76 74 74 73 72 72 71 70 69 68 64 64 65 65 65 66 67 69 71 74 76 77 78 80 82 83 85 88
99 95 90 82 80 83 78 80 81 80 78 77 78 78 77 77 78 76 76 74 71 72 71 72 71 69 67 66 67 66 68 70 71 74 77 79 80 81 82 82 83 84 84
104 100 96 91 87 88 89 84 82 81 79 79 78 76 78 77 77 77 76 74 71 72 73 77 76 73 70 71 71 71 74 76 78 80 80 80 80 80 80 79 79 80 82
96 94 91 86 82 80 79 80 79 79 76 73 73 78 76 77 79 77 77 76 74 73 75 80 77 76 74 78 78 79 83 89 83 77 75 73 72 71 71 71 73 74 75
95 92 89 85 80 79 78 77 75 75 74 73 74 80 72 81 79 80 80 78 78 79 80 76 79 78 78 82 85 86 89 85 78 79 78 78 78 79 78 79 79 80 81
92 91 90 88 87 86 83 81 80 79 79 77 76 78 76 79 81 83 82 82 82 83 82 80 83 83 81 86 86 89 92 83 81 82 82 83 83 84 85 85 85 86 88
90 89 89 87 85 83 82 78 76 76 77 77 78 76 74 75 76 82 82 83 85 87 85 81 83 84 85 87 90 92 86 86 86 86 87 88 88 87 86 86 86 90 93
90 89 90 86 86 83 81 80 78 78 77 78 78 74 66 76 83 83 86 89 91 89 88 83 82 83 87 92 89 86 86 91 91 91 91 87 86 87 89 91 96 101 103
79 80 82 82 79 76 75 73 73 75 76 74 72 69 70 77 81 84 88 89 91 92 87 83 82 86 90 90 86 89 93 94 94 93 91 93 94 95 98 100 105 107 106
67 69 74 74 69 70 69 67 70 72 69 69 69 69 72 74 88 89 89 90 93 84 78 83 89 92 92 90 91 95 93 93 96 99 102 105 106 106 106 109 109 103 97
64 67 69 69 65 62 66 73 71 63 65 64 68 66 65 75 91 91 94 93 79 85 89 95 94 97 96 96 99 98 96 99 103 110 110 114 113 114 111 109 102 93 86
44 49 50 55 54 55 59 57 51 51 53 61 67 69 76 81 87 87 75 77 87 96 98 96 100 100 101 102 100 101 105 108 113 116 116 118 113 109 104 99 90 83 76
22 28 27 26 29 35 34 35 39 47 54 59 66 72 73 74 77 81 85 90 96 101 101 105 106 105 104 104 106 110 113 115 119 121 113 102 101 95 91 88 80 75 72
18 18 17 14 12 19 28 36 43 48 55 60 65 68 75 81 88 91 96 100 105 106 107 108 106 106 109 112 115 118 121 121 116 109 97 86 88 83 80 77 71 68 68
12 9 10 14 21 28 36 41 45 48 53 59 62 67 74 82 93 97 102 103 104 104 104 107 111 113 116 120 122 118 112 104 95 90 84 80 78 69 73 71 63 63 64

GFSMA_250_spd_027.txt.gz
Wind_Speed
69 68 68 70 71 72 72 74 76 77 78 78 75 74 78 73 66 63 62 63 62 63 63 63 64 63 63 62 62 62 62 61 61 62 61 60 60 58 54 51 49 46 45
69 69 71 71 71 71 72 73 75 76 75 72 73 72 69 65 58 56 55 54 56 56 56 57 58 59 60 62 62 62 63 63 62 60 60 60 61 60 58 55 53 52 49
71 70 69 70 69 72 71 72 71 71 70 71 68 67 65 62 60 58 56 53 51 52 49 50 50 50 52 55 58 60 60 61 61 61 60 59 59 60 59 59 57 55 54
71 69 70 69 70 70 71 73 68 67 69 68 66 63 63 59 56 55 52 54 55 51 48 50 52 53 53 52 54 55 57 58 59 59 59 58 58 59 59 59 60 58 56
69 66 67 68 68 69 69 68 68 68 68 67 61 61 61 64 63 60 56 54 53 52 53 57 59 60 60 58 54 53 54 57 58 59 60 58 59 59 59 60 60 60 59
74 73 71 69 70 70 69 68 68 69 69 66 67 66 64 63 62 62 59 58 55 56 59 61 60 60 57 54 54 55 56 56 57 59 61 61 59 59 59 59 60 61 62
71 67 68 69 71 71 72 74 74 71 71 67 65 66 66 68 66 64 63 61 61 62 63 64 61 60 58 58 53 53 54 56 58 57 57 60 62 63 63 62 62 63 63
78 78 76 76 75 75 76 75 72 73 72 69 68 69 70 68 70 67 66 63 64 65 65 64 63 62 61 60 57 57 57 56 57 55 56 57 59 61 64 65 66 66 66
82 76 75 78 79 78 79 78 76 75 71 72 72 72 72 77 72 71 69 71 70 69 66 66 63 64 62 63 62 62 60 59 59 58 56 55 55 57 60 63 66 68 70
88 84 79 77 77 78 78 76 74 72 76 74 75 77 75 77 73 74 73 73 71 70 69 66 66 64 63 64 65 66 64 65 64 61 58 56 54 54 57 60 63 67 69
93 86 86 80 77 79 77 71 73 75 78 80 78 78 78 76 74 76 76 74 75 74 71 69 66 65 63 64 66 68 68 68 67 64 62 59 58 59 61 64 67 68 69
97 95 90 84 87 81 78 79 81 81 81 79 78 76 77 74 77 79 77 77 77 77 73 71 68 68 65 66 68 69 70 71 69 65 65 62 64 68 70 71 73 73 73
107 106 105 103 100 98 95 91 91 87 84 79 79 79 79 80 83 80 78 79 78 76 75 75 73 70 70 71 72 72 71 74 71 68 69 68 69 69 71 74 69 66 66
107 107 105 102 97 93 87 83 81 83 86 84 83 81 81 83 80 79 78 79 78 77 79 79 78 76 75 76 76 76 78 76 77 71 70 72 70 72 73 71 70 71 72
107 107 105 103 100 98 91 85 83 81 81 82 79 81 81 80 80 79 79 80 81 82 83 82 81 82 81 81 81 79 82 81 80 73 73 75 75 77 77 71 73 74 76
108 109 108 104 101 98 94 89 85 83 81 80 81 79 81 81 79 80 82 84 88 87 84 86 88 85 85 85 85 85 88 83 77 74 77 79 80 79 79 77 76 79 82
100 98 95 93 89 89 89 89 84 91 81 80 79 78 80 81 83 85 88 87 86 86 88 87 87 90 89 93 92 91 87 84 78 79 83 84 84 83 84 83 82 85 85
98 95 92 88 87 85 81 80 82 84 83 82 83 81 82 83 84 84 87 85 85 86 84 87 89 94 97 96 95 94 84 79 84 89 89 88 87 87 87 85 85 85 85
86 91 90 87 85 85 84 82 80 78 79 80 79 77 84 82 84 86 87 88 84 82 83 87 88 92 94 99 93 82 84 89 91 94 92 90 89 87 85 85 90 94 95
73 79 83 87 85 85 83 82 80 79 79 80 76 74 75 76 83 84 83 82 79 80 85 86 91 96 98 94 88 85 86 92 98 100 94 92 93 94 94 95 99 100 100
57 62 68 75 77 80 79 78 76 75 75 70 65 64 63 53 81 79 81 77 78 82 88 93 95 96 89 85 88 89 90 93 98 100 98 101 104 106 105 107 106 102 95
42 46 51 58 65 69 71 72 71 69 69 64 65 70 70 74 76 79 77 78 79 84 89 93 95 90 91 91 92 95 92 94 97 106 107 112 113 116 117 112 102 91 83
23 30 37 42 47 51 54 58 60 62 67 67 74 76 73 72 75 73 72 77 80 86 88 88 89 94 94 96 98 101 105 106 109 114 112 116 120 122 112 102 91 85 84
9 16 22 28 32 40 47 49 51 54 57 59 61 63 67 67 67 71 76 79 83 84 82 86 91 94 94 95 99 103 107 110 115 121 115 115 114 109 100 95 83 79 75
6 9 13 9 14 19 28 34 38 40 42 39 42 49 55 63 68 72 74 76 81 86 90 95 93 94 96 101 105 109 113 116 120 118 102 101 99 92 88 81 73 70 68
19 17 13 9 10 9 9 13 20 27 33 41 45 53 56 61 66 71 75 80 86 90 92 94 96 99 103 108 110 114 115 115 106 98 89 85 83 75 77 71 64 59 56

GFSMA_250_spd_030.txt.gz
Wind_Speed
70 71 72 72 72 69 69 70 69 70 69 69 70 70 71 70 70 70 69 66 61 57 56 56 55 48 47 46 46 48 50 52 52 55 55 56 56 57 57 56 55 55 53
75 73 72 71 69 69 69 70 71 69 70 70 70 71 70 67 68 67 65 61 57 56 56 54 52 50 49 48 49 50 50 49 49 51 53 54 55 55 55 56 56 55 54
74 73 72 71 71 70 70 70 70 69 68 69 69 69 68 69 68 66 63 61 56 57 57 56 52 50 50 50 53 52 52 50 50 50 51 51 53 54 54 55 55 55 54
72 73 73 73 74 73 72 71 71 70 68 69 69 68 67 68 68 67 65 59 57 57 58 57 57 55 54 56 56 55 51 49 49 47 47 48 50 52 55 55 55 55 56
75 75 77 75 77 75 75 75 74 70 69 69 69 68 68 71 69 69 66 61 60 62 64 62 63 58 56 57 57 55 54 52 50 48 49 47 47 48 51 53 55 55 56
78 79 79 80 78 79 78 73 68 68 67 68 70 73 72 73 71 72 67 67 65 65 68 67 65 62 62 61 59 57 55 54 54 51 49 48 47 49 50 50 52 55 57
82 81 83 83 81 81 76 71 74 72 74 74 76 76 73 74 74 71 69 70 69 71 70 67 68 66 65 62 60 58 57 56 56 55 53 50 49 48 48 51 53 51 53
87 84 83 83 82 80 78 81 78 76 75 75 75 76 76 75 75 73 72 73 72 73 72 70 69 69 69 64 62 60 60 59 59 57 56 55 52 52 53 53 53 53 52
88 86 85 84 84 84 84 82 81 79 77 76 74 75 76 73 73 75 75 74 76 76 75 73 70 72 73 69 67 62 61 60 61 58 58 58 57 57 56 56 55 53 51
91 89 90 89 89 89 89 85 84 84 83 82 79 74 73 74 71 77 79 74 76 77 73 73 72 71 72 73 70 65 63 65 62 61 60 60 60 60 59 59 57 54 54
95 93 94 91 90 90 88 88 86 84 84 80 79 78 78 78 80 78 79 80 76 77 77 75 74 76 74 75 73 71 69 69 68 66 64 64 63 64 63 62 62 60 58
99 98 96 96 94 94 94 94 92 92 88 85 83 80 78 77 81 85 77 77 80 76 75 78 77 80 80 80 79 74 76 74 73 71 70 70 68 67 66 68 67 65 63
105 108 109 108 106 106 104 103 101 97 93 88 88 85 83 82 82 82 82 82 82 83 84 85 85 84 84 84 81 78 80 81 80 78 75 71 71 70 71 69 71 68 64
114 114 114 115 114 110 106 102 97 93 87 84 82 86 82 80 79 81 83 84 85 84 86 86 90 88 87 86 86 86 88 84 83 83 83 81 77 75 75 72 67 68 66
112 114 113 112 111 108 103 100 96 94 90 87 83 85 82 82 80 82 83 85 86 87 88 90 91 91 88 90 92 94 89 88 88 86 85 84 83 81 70 67 67 67 71
110 111 111 111 110 109 108 105 101 98 96 93 92 89 85 81 79 83 86 86 86 88 89 92 92 92 92 93 94 94 94 92 92 90 89 86 80 72 68 69 71 75 80
101 104 106 106 107 109 109 107 105 102 98 94 90 84 66 86 91 88 85 86 86 87 85 92 91 90 94 96 96 97 98 98 96 94 86 78 77 73 73 75 79 83 86
88 90 95 98 103 108 106 104 101 96 90 85 80 72 74 79 84 85 86 87 88 89 87 94 94 100 100 96 95 94 94 95 99 96 92 82 77 79 80 83 83 82 84
76 75 76 82 89 99 102 102 103 96 90 82 78 72 74 89 89 93 95 90 85 90 90 92 97 103 95 94 93 92 95 98 99 99 90 84 87 86 85 83 80 84 90
58 62 65 69 76 82 89 94 95 96 89 81 76 76 78 79 81 88 91 88 87 91 92 94 94 95 92 89 91 94 94 97 97 93 90 92 87 89 88 87 91 97 96
42 46 51 55 58 66 76 81 85 84 85 80 75 75 76 78 80 82 88 87 87 91 89 87 91 92 95 97 96 95 93 92 92 94 94 93 91 95 97 99 102 101 101
28 32 37 39 45 52 60 67 71 72 74 75 75 74 75 76 78 81 84 89 85 88 93 90 93 96 102 99 94 92 91 92 91 96 92 94 100 102 107 107 104 101 95
20 21 20 23 29 37 44 51 57 60 62 64 67 70 72 73 77 81 84 90 86 91 95 96 92 95 93 89 88 88 91 90 91 96 95 98 108 111 111 110 104 98 92
28 22 15 10 12 22 29 35 41 46 50 55 57 60 62 64 69 74 78 81 82 84 83 82 82 82 85 88 88 91 92 93 95 99 99 107 109 114 115 106 95 85 80
32 31 32 24 8 3 13 19 24 31 37 41 47 52 56 60 62 67 68 65 67 70 74 79 82 85 88 90 91 91 94 98 103 105 107 112 110 103 101 90 79 71 67
25 24 25 25 24 22 17 13 9 9 15 20 26 32 37 41 46 51 58 65 72 77 83 87 89 90 90 91 93 97 100 102 101 104 104 102 92 86 84 75 65 61 61

GFSMA_250_spd_033.txt.gz
Wind_Speed
70 71 72 74 73 72 73 72 73 70 68 67 67 70 69 69 69 68 68 68 66 64 65 66 59 54 51 50 48 49 50 48 47 49 47 47 45 48 48 48 49 50 49
75 76 75 74 73 73 72 72 71 69 70 70 69 71 71 70 70 70 70 67 67 64 65 63 59 57 55 55 53 54 52 50 50 50 49 47 44 43 46 45 46 48 49
76 76 75 76 75 75 72 72 72 73 72 72 71 72 73 72 72 69 68 67 65 67 64 66 61 57 59 59 59 57 56 55 55 52 49 47 46 44 42 43 44 44 46
78 79 79 79 77 76 75 75 74 75 77 76 75 74 75 71 70 68 65 69 70 71 69 66 63 60 60 61 63 61 57 56 55 53 52 49 47 44 44 44 43 42 40
78 79 78 77 79 79 78 78 78 77 77 77 76 74 71 69 70 69 72 72 72 72 71 69 67 64 64 62 65 65 62 60 58 54 51 51 51 48 47 43 41 41 40
82 83 82 82 81 82 83 82 81 80 79 80 78 74 72 71 71 73 72 73 73 73 73 71 70 67 68 65 70 68 66 63 61 59 57 54 51 50 49 45 43 41 40
87 86 85 85 86 85 85 85 87 85 82 81 79 79 77 78 78 76 72 72 73 72 70 71 71 68 71 69 67 66 67 65 66 64 60 56 55 54 54 51 47 45 42
89 89 90 94 93 91 89 90 90 85 81 81 81 81 81 79 79 77 75 75 74 73 69 70 70 73 72 71 70 65 66 64 63 68 65 60 59 57 57 56 54 51 49
92 91 90 91 91 88 90 91 90 88 88 86 86 85 82 81 81 78 75 75 74 73 72 73 75 76 74 76 71 71 65 65 70 68 67 66 64 60 59 58 57 57 55
93 92 91 89 91 91 91 93 92 91 89 88 86 83 81 79 78 75 74 73 74 75 76 78 75 76 77 74 74 71 71 74 71 72 74 69 68 65 64 62 61 61 61
98 99 96 94 94 95 94 95 94 92 90 86 86 86 85 80 78 78 77 77 78 77 76 78 78 82 82 79 76 80 78 74 79 76 78 76 73 72 73 71 68 66 64
99 101 104 104 102 100 100 102 102 101 100 99 97 98 96 95 92 91 91 84 79 78 80 81 82 80 79 78 76 77 81 82 81 84 80 79 79 81 79 78 73 71 69
102 104 107 109 112 114 113 110 110 109 110 108 104 99 96 94 90 87 83 77 79 79 80 81 81 82 81 82 83 85 84 86 89 86 83 84 83 86 86 83 78 76 75
109 114 119 119 116 115 114 113 112 108 107 103 100 96 95 92 88 82 76 78 72 72 71 81 81 84 85 86 87 92 92 89 90 90 89 86 88 89 89 89 88 83 79
109 110 112 113 114 115 116 114 113 112 109 104 101 96 92 87 85 81 72 78 76 75 76 91 84 85 85 91 91 93 93 94 94 93 92 91 85 90 93 91 91 87 85
103 103 104 105 107 110 112 112 112 111 112 110 104 99 93 89 87 85 83 78 77 70 75 84 89 88 87 91 93 93 97 97 97 95 95 95 97 98 98 96 91 86 80
91 89 91 98 102 103 105 107 109 110 109 109 106 103 99 93 89 84 85 76 62 76 85 64 85 94 98 92 99 93 95 101 100 100 101 100 100 102 101 92 91 90 84
83 83 94 97 94 94 99 104 106 104 104 105 104 101 96 93 94 91 83 84 80 81 86 97 102 103 93 97 100 100 104 100 104 103 106 109 103 104 100 97 94 87 79
75 81 86 88 84 83 80 83 89 95 99 98 101 100 96 91 86 82 80 78 81 84 91 98 100 102 106 107 107 108 106 108 110 109 111 111 107 103 98 99 89 85 87
60 65 68 67 65 61 59 60 65 72 79 87 91 94 95 92 88 85 80 74 88 83 90 95 95 105 111 114 113 108 110 115 113 111 111 106 101 98 100 91 87 87 88
58 59 55 54 54 52 52 53 54 59 67 75 77 78 84 87 87 82 83 82 80 82 89 99 102 102 108 110 112 110 109 111 111 111 106 101 97 92 88 88 87 88 88
54 53 54 47 41 39 38 40 45 50 53 55 59 67 71 73 76 77 78 81 81 82 85 90 96 99 104 109 108 110 108 107 104 103 90 92 90 90 91 91 90 93 94
46 41 42 40 31 26 23 23 26 32 39 43 46 49 51 57 64 69 71 76 80 83 86 91 97 100 103 106 107 105 102 93 91 90 88 93 88 90 94 95 95 93 92
38 39 37 37 35 29 23 19 16 14 14 19 27 34 40 47 55 57 62 68 74 80 85 90 93 96 96 92 90 90 91 93 91 88 85 93 91 94 96 95 94 91 88
37 37 35 33 30 27 30 30 23 18 13 9 14 22 31 39 45 49 54 59 63 67 71 71 72 77 82 86 89 93 92 92 94 93 88 93 92 94 99 94 88 80 77
35 35 34 33 30 28 25 23 19 15 13 10 9 12 16 20 26 31 37 43 50 56 63 70 76 81 85 88 90 91 93 94 95 96 90 92 90 88 94 85 76 70 67

GFSMA_250_spd_036.txt.gz
Wind_Speed
72 73 71 73 73 73 73 73 72 73 73 75 74 74 73 71 70 69 69 68 69 70 66 65 64 61 58 56 57 52 51 50 53 53 50 49 48 45 41 39 38 38 40
72 72 72 72 72 74 75 75 76 76 77 77 76 74 72 71 69 69 71 70 70 70 67 65 64 64 62 58 58 56 55 57 57 58 54 54 50 48 43 40 39 38 37
71 72 74 75 75 75 78 77 78 78 78 76 75 74 73 73 72 70 73 73 71 68 65 66 65 66 64 63 61 57 57 57 57 59 58 54 49 48 44 43 40 39 39
76 76 78 80 82 83 82 82 82 82 81 78 77 77 78 75 73 74 75 77 70 69 65 67 70 68 67 65 65 62 61 58 60 59 60 59 53 51 45 43 41 40 38
82 82 83 82 84 87 86 86 87 82 77 76 77 82 82 79 76 76 76 73 71 70 68 69 69 67 67 68 68 66 64 60 60 62 62 57 57 53 54 46 42 43 42
80 85 87 86 86 89 91 91 89 85 87 86 85 82 81 78 78 79 75 72 71 71 72 69 69 68 68 68 66 66 67 66 66 64 60 60 59 56 58 54 48 46 45
83 86 89 92 91 93 93 93 90 87 85 83 84 83 80 80 79 78 78 78 76 73 73 72 70 71 68 67 65 68 69 68 67 66 64 64 62 60 62 57 55 51 49
90 91 90 94 98 92 91 90 85 86 88 87 86 82 83 82 82 80 79 78 77 76 71 71 70 70 68 68 70 72 73 69 66 67 67 66 66 65 62 61 61 58 56
97 97 98 97 93 88 88 87 90 90 90 90 88 89 88 84 84 84 82 80 77 74 73 71 69 71 69 71 75 73 70 70 71 72 70 69 68 62 62 64 68 66 59
103 102 101 94 92 91 88 87 90 93 93 94 94 94 93 88 87 85 84 81 81 80 77 76 74 76 74 73 74 73 73 72 73 73 73 71 59 63 68 73 70 73 65
104 104 101 98 93 94 97 96 96 99 100 100 101 101 100 99 97 95 95 95 92 89 87 82 79 78 75 76 76 75 77 76 76 74 71 64 70 76 76 75 79 74 72
97 96 98 100 102 103 103 104 105 103 104 107 111 113 112 111 106 98 96 92 89 87 82 78 77 77 78 77 74 73 76 76 74 73 76 77 78 78 80 80 78 78 80
95 96 102 105 109 110 110 113 115 114 109 105 106 107 107 106 102 99 97 93 90 86 83 80 76 76 73 70 70 77 77 77 76 80 82 81 81 80 82 83 83 82 82
97 103 106 109 116 119 117 113 109 107 107 107 106 105 105 106 103 102 96 91 87 85 81 77 75 76 70 66 73 72 76 82 89 87 90 85 87 83 86 86 86 86 88
103 107 116 111 105 108 109 109 108 107 106 105 104 105 104 102 101 101 99 94 86 81 68 76 72 71 72 65 67 69 84 84 93 91 93 94 86 89 93 88 88 90 96
115 109 102 100 99 101 104 106 107 105 103 100 101 102 103 101 101 99 94 91 89 86 75 76 70 67 70 75 81 84 92 88 94 99 92 88 96 99 92 94 94 100 100
96 95 93 93 95 96 99 101 101 101 104 101 99 105 109 105 97 96 91 88 84 81 79 75 81 80 78 79 83 83 86 89 89 95 97 101 106 103 96 96 104 109 110
86 87 87 86 87 89 93 96 88 92 93 90 90 98 99 100 97 93 91 86 83 83 69 72 65 75 77 78 84 86 92 99 104 111 110 110 115 115 114 114 114 116 116
80 80 78 77 83 83 82 75 77 80 72 67 67 66 69 77 85 85 87 85 82 83 78 88 80 86 85 92 92 97 99 102 110 115 115 119 121 119 115 117 116 114 113
73 72 71 69 72 75 73 67 63 59 58 56 56 57 57 58 64 68 73 73 83 81 83 85 90 90 100 105 93 97 108 111 114 118 117 116 119 120 123 119 116 112 108
62 66 65 64 57 61 66 65 58 50 47 44 44 45 45 43 47 54 61 75 72 74 81 86 86 86 89 93 97 100 97 99 103 111 115 121 121 122 121 118 110 99 91
58 60 57 51 52 55 60 60 55 43 35 31 29 31 32 29 30 37 46 55 60 65 72 80 87 89 90 92 98 100 104 108 108 111 114 118 117 118 113 101 91 88 87
53 49 46 49 52 52 51 51 45 39 31 25 20 17 17 20 23 26 34 42 51 55 60 68 74 80 86 90 94 98 103 108 111 113 113 117 110 102 97 94 91 91 90
43 39 44 46 46 45 43 43 41 39 37 29 20 17 15 12 12 15 19 24 31 38 46 55 63 69 74 78 84 90 96 101 103 101 96 99 96 99 99 95 92 90 89
33 36 40 39 38 39 39 36 35 34 33 32 29 26 23 19 15 14 15 19 24 31 38 46 53 59 64 70 75 81 85 90 93 95 91 93 94 94 98 94 91 89 87
32 34 33 33 32 34 35 35 32 29 26 24 21 19 19 21 22 23 25 28 33 38 44 50 55 61 67 73 79 85 89 92 94 97 93 99 96 94 99 93 85 79 77

GFSMA_250_spd_039.txt.gz
Wind_Speed
76 78 80 79 74 72 70 73 73 74 76 76 78 78 78 77 78 80 75 70 67 68 70 68 66 64 64 63 59 58 58 55 54 51 50 50 50 51 49 49 42 40 37
78 74 71 72 72 73 74 75 77 76 80 80 81 82 82 82 82 77 71 67 68 73 72 69 65 67 64 63 59 61 61 56 53 53 53 53 52 50 53 51 45 41 38
71 74 74 76 75 75 80 81 82 82 84 85 83 84 88 86 79 74 73 75 76 71 68 67 67 67 63 61 61 63 62 60 58 56 55 55 52 52 52 51 50 45 40
74 74 75 77 80 82 83 84 84 87 89 88 90 90 88 84 80 74 74 72 72 72 71 68 67 64 63 64 64 64 63 62 62 60 58 57 57 57 52 50 52 47 47
78 77 77 78 80 84 84 88 90 88 92 95 94 92 87 81 78 71 72 73 76 75 70 70 68 67 68 66 65 65 65 63 64 63 61 61 62 59 55 51 52 52 47
75 78 80 80 83 84 89 93 95 96 97 98 94 87 83 82 74 75 73 74 73 73 73 72 69 67 68 68 68 66 66 64 66 63 64 66 62 59 56 55 54 52 49
78 81 82 85 88 91 93 96 97 98 100 98 94 89 82 81 79 77 76 75 76 77 77 77 74 72 71 70 69 68 68 67 66 68 65 67 63 64 57 57 56 54 50
80 82 86 90 92 94 98 100 102 103 103 99 93 88 85 88 88 86 84 84 82 80 80 79 77 74 74 71 69 70 71 70 70 71 68 66 66 61 61 60 58 55 48
87 88 92 95 98 101 101 101 102 101 97 91 91 94 94 93 91 91 91 90 90 88 86 85 85 83 82 82 79 77 72 74 73 72 70 69 67 67 64 61 61 56 45
97 100 101 102 104 105 103 101 96 93 92 95 101 102 102 101 103 102 100 99 99 96 94 93 90 88 84 82 79 75 75 72 70 68 71 72 71 69 66 67 64 53 55
103 106 109 108 107 102 99 99 97 94 97 100 101 106 110 116 114 113 107 106 103 97 91 89 87 82 77 76 78 75 73 72 70 72 73 74 72 68 71 68 60 60 64
105 110 112 111 107 105 102 97 99 100 102 107 111 121 115 108 105 107 105 104 103 99 95 89 87 83 79 77 76 76 75 73 74 72 71 68 69 74 73 66 68 65 75
107 109 107 107 106 105 103 106 108 109 117 119 107 104 105 104 104 103 99 98 97 95 93 89 90 85 79 75 72 73 74 73 71 70 72 74 77 75 69 68 71 77 78
110 107 105 103 99 103 106 110 117 122 109 105 103 100 99 100 97 93 94 93 92 90 85 84 81 81 79 74 70 69 67 62 67 67 69 77 76 73 76 74 73 80 84
107 107 107 102 103 106 110 121 109 107 102 98 98 98 94 93 98 100 99 99 97 93 86 80 80 58 76 63 60 69 68 67 70 70 67 74 76 77 81 85 91 93 85
106 106 104 104 106 111 118 105 102 95 94 94 93 93 95 95 94 97 97 96 96 94 89 82 76 76 64 68 68 72 71 72 71 72 80 81 87 88 88 94 98 95 96
100 104 103 107 117 107 100 94 90 85 89 93 89 86 87 86 85 89 89 92 91 92 91 86 78 73 68 83 74 75 78 75 76 77 83 87 92 91 92 101 101 101 100
102 104 111 111 100 91 85 83 80 82 85 85 77 74 68 65 67 69 79 76 83 88 90 87 82 75 77 83 82 86 86 91 84 88 95 98 101 104 106 100 102 106 105
104 112 99 89 82 78 77 73 77 72 75 80 74 70 59 52 49 50 53 54 55 62 69 74 76 74 74 82 82 89 95 93 94 98 99 101 105 104 106 104 107 110 114
109 92 78 74 74 70 67 68 65 66 68 73 72 65 53 48 42 40 42 43 45 48 51 56 66 72 74 84 90 83 86 88 90 94 99 102 100 102 108 112 116 119 120
84 72 70 69 65 59 58 57 60 60 59 61 63 58 49 40 33 31 29 31 33 35 41 49 59 66 72 75 81 88 93 95 91 91 97 103 108 112 118 120 118 122 121
67 67 66 60 54 53 49 52 52 52 53 53 51 49 45 39 30 22 18 18 18 24 36 43 51 52 59 67 75 83 93 96 100 105 110 110 113 119 121 121 120 119 116
63 61 55 50 47 43 44 45 44 45 46 48 46 42 38 34 31 26 19 14 13 15 19 27 32 39 46 54 59 69 78 86 96 100 108 113 115 117 114 111 107 103 98
56 50 44 40 37 40 40 41 40 40 41 42 41 40 38 35 32 29 27 25 23 20 19 18 22 28 35 40 46 53 61 67 73 77 83 90 91 94 96 97 98 98 98
43 40 36 32 35 36 38 38 39 39 39 38 36 35 34 34 34 33 32 31 30 30 30 31 34 37 42 47 53 60 66 71 77 80 82 90 93 97 100 100 98 95 94
38 35 31 32 34 34 34 35 36 38 40 40 40 42 42 41 40 39 38 38 38 39 40 42 44 48 53 58 64 69 75 79 85 90 90 96 98 99 105 101 94 90 87

GFSMA_250_spd_042.txt.gz
Wind_Speed
70 72 74 76 78 76 71 69 72 74 76 77 78 79 81 81 82 84 84 85 84 79 76 71 65 64 62 62 61 60 58 58 58 56 57 55 53 50 48 47 47 46 47
75 76 77 78 73 69 71 72 76 77 79 79 79 81 81 83 82 82 85 86 83 73 70 69 63 62 62 63 62 59 58 58 58 59 58 56 54 52 51 50 51 48 48
77 79 74 73 72 74 74 77 76 76 80 80 84 83 84 85 86 88 90 88 85 77 71 65 66 63 64 63 62 60 59 58 59 60 59 59 57 55 54 53 54 50 47
72 69 71 75 76 76 74 76 78 80 84 86 85 87 88 90 92 92 92 89 84 76 69 66 68 65 64 64 62 62 61 59 60 61 62 62 60 60 58 57 58 53 48
70 71 73 72 74 74 74 77 80 82 85 89 92 92 95 96 96 92 91 83 77 73 73 74 74 68 67 66 65 65 64 64 63 63 63 63 61 60 61 60 60 55 52
70 71 74 76 76 76 79 83 84 85 89 94 98 101 101 101 94 90 86 81 78 83 81 80 79 76 75 75 73 71 70 66 65 64 63 64 64 62 61 59 58 57 52
75 75 77 77 79 82 83 86 88 92 95 101 103 105 102 95 93 90 85 83 87 87 86 86 86 85 84 81 80 77 73 72 68 67 66 65 66 60 61 63 63 57 54
77 77 78 80 85 87 90 92 97 100 102 105 107 107 100 96 94 91 91 90 92 95 95 95 95 91 89 83 81 80 78 76 73 72 71 68 69 66 66 63 60 56 60
81 83 84 86 89 92 96 99 103 105 110 110 108 106 101 94 93 97 99 101 102 102 101 101 96 92 86 84 81 79 80 79 76 73 72 69 68 68 65 62 61 62 60
88 90 90 91 93 97 101 104 106 111 113 111 110 105 100 98 99 100 105 114 112 105 98 93 93 90 88 85 85 85 81 77 75 73 75 71 71 72 68 65 65 65 63
93 94 97 99 101 102 104 107 111 112 112 109 107 102 102 103 107 112 116 100 103 105 98 89 87 84 82 82 82 84 80 79 76 72 71 73 70 71 69 65 70 69 63
96 98 102 105 107 107 111 111 112 110 108 104 101 102 106 110 115 105 101 96 89 99 98 95 86 79 74 70 69 72 83 79 75 76 70 73 71 70 70 72 74 68 66
98 102 105 108 111 113 115 115 114 109 102 102 106 110 115 108 102 97 97 96 92 90 87 97 86 85 79 73 70 69 66 69 68 67 72 69 73 72 70 71 73 72 74
103 104 108 108 110 113 115 113 110 106 102 108 112 114 104 99 97 99 97 94 94 94 88 99 97 90 88 79 74 68 69 66 67 63 68 72 70 70 67 67 70 73 71
106 106 109 111 111 110 109 109 105 105 108 114 110 100 94 95 96 93 91 89 91 90 89 89 96 91 89 85 83 78 72 72 77 70 72 63 69 70 65 68 74 76 75
107 108 111 109 109 107 106 102 103 107 113 105 92 91 91 90 90 89 90 86 81 85 86 92 93 90 86 86 86 83 73 72 70 69 67 71 75 76 73 75 81 79 83
109 110 109 106 103 101 100 103 106 112 100 88 86 85 82 84 85 84 82 75 73 70 70 75 72 76 82 85 87 84 79 75 84 81 77 78 80 79 85 79 79 83 83
108 104 100 97 96 97 101 105 109 94 83 82 79 73 74 78 79 75 70 64 60 55 56 59 59 63 67 71 82 82 82 77 81 84 85 86 85 86 88 87 87 85 87
98 96 93 93 97 101 106 103 89 78 77 73 68 65 65 69 71 71 67 59 51 44 43 43 44 43 55 68 74 78 81 81 85 89 95 92 93 95 95 95 93 93 95
89 92 95 97 100 107 93 81 75 73 67 59 58 59 58 62 65 66 64 56 45 41 35 36 39 38 44 54 62 73 81 82 86 89 95 96 95 96 99 102 101 100 102
91 94 99 102 102 84 75 72 69 64 53 51 52 53 54 55 54 55 56 48 42 34 30 27 26 30 33 40 48 56 66 75 81 87 92 97 101 103 102 106 111 114 115
97 102 103 86 75 70 69 65 59 50 47 48 47 48 50 50 49 45 42 41 41 38 34 29 24 22 21 23 26 32 43 51 60 75 80 87 93 95 101 104 108 110 112
88 79 73 66 65 65 61 54 48 44 44 44 44 45 47 48 50 48 45 41 37 36 35 34 31 29 27 26 24 25 30 35 44 55 64 72 89 97 103 106 110 111 114
71 63 60 60 60 55 49 45 44 42 43 42 43 44 47 49 50 50 48 47 47 46 43 41 39 37 35 37 39 42 43 46 50 55 61 65 69 74 78 81 85 90 92
57 55 54 54 51 45 44 42 42 43 44 44 45 47 50 52 53 53 53 51 50 49 47 45 45 46 46 48 50 52 56 59 63 67 72 77 80 83 86 88 91 94 95
52 50 49 46 42 41 42 43 43 45 45 47 49 50 52 53 54 55 56 55 53 52 51 50 50 50 52 54 56 60 63 67 71 75 77 84 90 93 98 97 97 97 96

GFSMA_250_spd_045.txt.gz
Wind_Speed
59 61 63 66 68 72 74 76 75 71 70 71 74 75 74 73 75 78 81 83 85 87 89 86 81 77 69 63 58 55 57 57 53 52 54 51 50 51 50 49 47 45 47
64 66 69 71 73 75 75 75 68 68 71 74 76 79 77 77 79 83 87 88 91 95 91 81 77 71 65 57 56 60 63 60 55 54 54 54 53 51 51 52 50 48 48
68 71 73 75 75 73 72 69 69 72 75 75 78 79 80 82 87 89 92 94 98 94 91 84 76 69 66 61 65 64 64 61 57 57 57 57 55 55 55 56 55 53 51
73 75 75 74 72 71 70 70 72 76 77 81 82 81 83 86 89 93 96 99 101 98 96 89 79 73 72 70 72 69 69 68 67 67 63 64 62 60 58 58 57 54 54
72 72 69 71 70 70 70 74 75 79 83 86 86 90 90 91 93 97 101 103 102 101 96 87 80 80 79 78 79 81 81 76 72 70 67 63 62 62 58 57 57 56 54
67 67 69 69 70 71 74 77 80 84 86 90 91 92 95 97 98 103 107 105 104 96 90 88 86 85 85 86 87 89 78 75 74 72 69 67 62 63 58 57 60 60 54
70 71 71 72 73 75 77 81 85 87 90 93 94 97 99 101 104 109 108 108 99 96 92 91 92 93 94 96 92 82 77 75 74 73 70 69 69 65 63 61 63 61 58
73 73 73 76 79 81 85 89 90 92 94 97 99 102 101 106 110 111 109 104 101 96 96 98 102 104 100 90 82 78 77 76 79 76 74 70 70 69 69 65 66 64 64
74 76 80 83 86 88 90 92 95 97 98 100 104 106 109 108 110 111 108 104 99 100 104 107 103 94 88 86 84 80 76 73 73 74 72 72 71 70 69 69 67 66 63
82 85 87 87 90 92 93 95 98 99 103 105 107 111 114 114 115 106 99 101 104 110 107 99 94 90 84 84 81 75 67 67 65 66 67 69 71 69 70 68 69 70 69
89 89 90 94 94 96 95 96 98 102 105 107 111 113 117 116 108 101 100 101 107 102 94 89 87 86 86 84 80 70 66 62 55 55 51 58 63 66 69 67 68 69 69
92 93 95 98 99 97 98 100 102 106 108 110 113 114 113 106 101 103 103 106 97 92 92 89 86 85 87 89 89 82 77 69 62 50 50 58 67 57 64 67 69 68 61
93 95 96 98 101 102 104 105 108 110 112 114 116 113 103 100 103 106 108 97 90 89 86 86 87 86 85 87 89 87 82 77 71 66 67 65 61 62 73 76 68 65 67
97 98 100 102 105 106 108 110 111 114 115 114 108 100 98 104 105 105 96 92 90 83 83 87 87 85 81 83 86 87 87 86 77 74 71 65 66 75 67 65 67 69 73
100 102 103 105 107 109 110 111 114 112 110 102 97 97 102 106 101 92 90 86 81 81 82 80 79 78 75 73 76 79 89 85 84 79 75 75 69 64 70 70 70 67 69
103 103 105 106 108 109 110 112 109 107 99 94 96 101 105 97 88 86 80 77 78 79 75 74 74 69 65 63 61 71 88 85 88 80 78 79 74 70 72 81 77 74 76
105 106 108 108 108 110 108 106 100 94 92 95 100 103 95 85 81 76 71 71 70 70 74 73 66 58 52 46 40 52 69 82 89 84 86 79 80 79 81 84 85 85 85
104 106 107 106 104 103 99 95 92 91 96 101 100 89 81 77 72 64 63 63 62 64 70 71 63 53 43 35 30 34 47 62 74 79 82 83 84 84 84 88 92 90 85
96 99 98 95 92 92 89 90 90 94 100 91 81 76 75 70 61 60 58 57 58 61 63 64 61 53 42 33 30 32 35 44 59 68 73 83 80 83 85 92 93 92 93
90 89 87 87 87 86 87 89 95 96 84 82 73 71 68 60 57 56 56 55 56 59 58 54 52 47 43 35 29 26 28 31 40 54 67 76 76 80 89 91 95 97 98
82 82 84 83 84 86 88 94 91 80 75 71 68 63 57 54 55 55 55 56 57 58 58 57 50 45 42 38 35 32 28 26 28 34 46 61 69 79 86 93 93 97 102
79 80 83 87 87 90 92 90 77 69 68 65 58 54 52 53 54 55 55 56 59 60 58 58 59 57 52 47 42 38 35 32 29 30 37 39 45 53 69 85 95 99 100
81 82 88 89 90 91 79 70 65 62 59 55 54 51 52 54 54 56 56 58 61 62 62 62 61 58 56 54 51 47 45 44 44 44 46 44 49 52 55 61 68 74 81
84 87 88 88 83 72 63 62 57 55 53 53 51 52 54 55 55 56 58 61 63 64 65 65 62 59 56 54 52 51 53 54 55 56 59 61 62 65 68 69 72 75 77
86 80 78 73 64 60 59 55 53 53 51 51 51 53 55 56 57 59 60 62 64 65 67 66 63 60 57 56 57 57 59 61 61 61 64 68 70 74 76 80 83 85 87
68 70 67 59 58 55 53 51 51 51 51 52 52 54 56 58 59 60 61 64 66 67 66 64 62 59 59 61 64 65 67 69 69 68 67 71 75 78 81 82 85 87 89

GFSMA_250_spd_048.txt.gz
Wind_Speed
50 52 52 53 55 58 63 66 69 71 72 69 67 67 67 71 74 78 80 82 85 87 88 88 90 92 91 89 82 72 64 58 54 56 55 51 50 50 45 47 46 44 43
53 54 56 58 61 63 66 70 71 71 68 67 65 69 73 75 79 83 88 88 90 91 92 93 95 96 96 91 84 71 64 61 60 58 57 58 60 58 57 53 54 51 48
59 60 60 64 65 68 69 69 68 66 67 66 70 72 76 79 84 88 89 92 95 94 96 98 100 100 100 94 83 76 67 66 64 65 66 66 66 61 57 58 54 52 52
60 64 67 68 67 67 66 66 66 68 70 72 75 80 82 84 88 90 93 94 95 98 100 103 104 103 97 87 77 75 74 76 76 75 72 67 64 62 60 59 55 55 53
68 70 69 69 67 67 67 67 70 73 75 79 81 84 88 91 92 95 96 96 99 102 106 108 108 104 91 84 83 83 85 86 79 72 69 65 63 63 62 59 56 55 53
69 68 70 71 69 68 69 72 75 78 80 82 86 90 92 93 94 96 99 101 104 109 112 112 109 99 90 90 91 93 91 81 75 70 67 60 61 61 62 60 58 57 56
69 70 69 69 69 72 75 77 81 82 85 90 90 92 93 96 96 100 102 106 112 113 114 112 101 93 96 96 99 92 80 74 70 67 62 60 63 66 65 62 63 60 56
71 72 73 75 76 78 81 83 84 85 90 92 93 95 96 97 101 102 106 110 114 115 113 102 95 100 101 104 91 82 77 72 67 62 60 60 62 65 67 68 63 59 58
74 75 77 78 79 79 81 84 86 88 91 95 98 99 96 97 100 106 110 114 114 113 104 98 101 103 101 91 88 83 77 70 61 57 57 55 55 57 60 63 63 61 58
75 76 76 78 81 82 83 86 90 94 96 96 98 100 104 104 105 106 109 112 110 101 96 100 105 99 91 88 83 77 72 71 71 64 57 51 46 49 52 58 57 57 60
80 81 83 86 89 90 92 94 95 96 98 99 101 104 105 108 109 111 111 110 101 97 101 103 95 91 88 80 76 76 77 74 72 73 66 56 52 53 51 48 44 46 51
88 90 92 93 95 97 98 98 99 101 101 102 102 105 108 110 111 114 113 104 95 100 103 93 90 85 76 75 76 76 76 74 67 73 75 71 58 55 55 52 46 51 52
94 95 96 98 98 99 99 100 102 104 104 106 107 110 112 113 113 108 101 94 97 100 87 86 83 75 73 73 73 71 71 73 69 74 82 75 66 65 60 56 56 60 58
95 96 98 98 98 101 102 103 104 106 107 110 113 112 115 110 104 98 94 96 96 81 80 81 73 70 71 74 73 75 72 65 61 65 73 80 72 67 64 62 65 60 59
97 98 99 100 100 103 104 104 106 109 110 114 113 111 108 98 93 91 97 97 84 77 76 70 67 69 69 72 75 72 60 57 53 55 66 74 76 74 71 64 70 67 67
103 103 102 104 105 105 106 107 110 112 112 111 106 100 93 90 91 94 97 87 79 75 67 65 66 66 67 69 72 69 57 50 46 45 51 68 81 74 68 71 71 74 72
105 105 107 107 108 110 111 111 111 106 102 99 91 89 87 90 91 97 86 77 74 69 61 62 63 65 65 64 65 64 60 50 39 32 43 60 70 70 71 70 71 72 79
105 106 107 107 107 104 105 102 99 93 91 85 84 87 90 92 96 86 77 74 71 61 58 62 63 65 64 62 62 57 55 49 39 33 29 40 49 50 64 68 70 78 82
100 96 99 96 94 94 92 92 89 85 82 84 89 90 90 92 81 74 73 70 62 56 58 61 65 65 64 63 61 58 51 46 38 35 29 35 40 48 60 71 79 86 91
88 87 87 87 86 88 87 87 81 80 84 89 91 91 86 76 70 70 65 60 56 55 59 61 65 66 66 64 58 55 52 48 42 38 35 31 27 30 39 53 67 77 89
81 81 81 84 84 84 86 81 80 85 88 93 88 77 71 67 65 62 59 56 55 57 60 63 64 67 66 63 61 57 52 48 45 42 40 37 35 35 34 37 44 57 70
83 82 83 88 80 84 82 79 82 87 89 81 72 67 64 61 60 57 54 55 57 60 61 62 65 66 64 62 60 57 51 47 45 47 48 44 47 44 45 46 47 50 52
93 93 84 75 78 76 76 79 84 81 74 68 64 63 59 57 56 54 54 56 59 60 61 63 65 66 65 63 59 53 49 49 49 50 54 53 55 57 58 59 60 61 62
79 86 74 75 72 74 77 78 74 68 64 62 60 57 54 53 53 53 55 57 59 62 63 64 65 66 65 62 58 53 54 55 55 55 59 61 61 63 64 66 68 71 72
64 69 72 72 73 73 75 69 67 61 56 54 54 53 52 53 53 53 57 57 59 61 63 64 64 64 63 58 56 58 61 62 63 64 67 71 70 69 68 68 70 72 74
68 68 68 69 73 72 65 63 57 54 55 52 51 51 52 52 54 55 56 57 58 59 61 62 62 59 57 59 63 66 68 69 69 71 73 77 76 72 69 67 69 71 71

GFSMA_250_spd_051.txt.gz
Wind_Speed
45 46 48 48 50 51 52 54 56 60 62 62 64 62 62 66 70 73 74 75 79 83 86 89 92 91 90 92 96 96 94 90 76 63 56 52 50 50 51 50 50 48 47
49 50 50 52 53 54 55 55 61 63 63 65 63 63 66 69 74 75 77 79 85 88 90 93 91 92 94 97 98 97 95 87 72 65 64 64 65 64 60 55 54 50 47
55 54 54 54 53 55 58 63 64 64 66 67 64 66 69 72 76 78 81 86 89 91 94 92 93 96 98 100 100 99 93 81 73 74 72 74 73 65 56 54 55 55 54
58 58 58 56 57 60 64 65 65 66 68 68 68 72 74 77 79 82 87 89 91 94 93 95 97 99 102 104 102 99 88 83 81 82 85 80 71 63 57 55 57 56 54
60 60 60 61 61 65 67 66 67 68 69 71 74 79 79 82 83 89 92 93 94 94 96 99 101 105 107 106 104 96 89 87 87 87 75 66 60 56 56 55 58 58 54
61 62 65 66 67 69 68 69 71 72 74 77 79 80 82 85 90 91 94 96 97 99 100 103 107 109 111 108 102 95 93 92 85 74 67 64 60 57 53 55 55 53 52
64 66 68 71 70 69 72 73 74 76 78 81 79 81 86 92 93 95 96 98 100 102 106 109 112 113 110 104 100 97 97 84 72 69 63 56 53 52 54 52 56 56 57
67 69 71 71 71 72 74 75 77 78 79 80 84 88 89 94 98 97 98 101 104 106 110 115 115 112 106 100 97 100 83 73 71 62 59 58 52 48 49 51 51 55 61
74 73 73 73 74 74 75 77 76 78 81 87 91 95 95 96 94 100 103 106 108 112 115 116 112 107 99 97 100 85 76 71 63 61 59 56 58 55 49 50 48 52 57
76 75 76 76 76 77 78 80 83 86 89 92 96 98 98 97 96 99 103 105 112 114 114 110 105 98 98 100 89 79 72 64 63 63 61 62 60 57 60 52 50 49 51
77 77 78 78 79 81 84 86 89 92 95 97 96 96 98 101 103 104 105 111 113 114 107 102 97 95 99 91 80 75 65 63 63 66 63 65 74 68 64 57 50 55 49
79 80 81 83 85 88 91 94 96 97 97 97 97 100 101 103 105 109 111 115 113 102 99 95 94 94 93 80 75 66 62 63 66 67 70 73 69 67 65 68 53 61 60
84 85 87 89 91 94 97 99 99 99 100 102 104 103 105 106 111 113 113 111 100 92 91 94 94 92 82 74 69 62 61 64 68 69 68 67 58 54 63 70 59 58 61
89 90 91 93 95 97 99 100 101 102 104 104 107 109 109 113 113 111 105 99 93 89 93 94 91 81 75 71 64 62 62 65 69 67 68 64 54 47 53 62 62 60 57
96 96 97 99 101 102 103 104 104 106 110 108 111 111 112 110 107 102 99 93 89 88 90 88 80 75 71 63 60 61 62 67 69 65 63 59 45 37 44 56 64 67 61
102 102 103 104 103 103 104 106 107 107 110 109 108 107 106 104 97 95 93 91 88 88 85 77 73 69 62 59 59 62 63 64 65 61 55 52 41 24 38 54 67 64 66
104 103 104 104 106 107 108 108 107 107 108 106 105 101 98 93 93 90 89 87 87 82 74 70 67 59 56 57 59 61 65 61 60 55 51 48 39 24 26 40 58 66 65
107 107 107 106 106 104 104 106 105 101 105 99 96 92 89 88 87 89 87 85 78 70 65 64 59 55 55 56 58 61 62 61 56 50 49 46 40 32 26 23 29 48 62
103 103 102 102 100 100 98 95 95 91 90 89 85 85 84 84 85 85 82 75 69 64 60 59 55 53 54 56 58 60 60 57 53 50 45 40 36 36 32 29 28 30 36
98 97 93 90 88 87 84 82 84 82 83 85 79 80 81 82 82 78 70 64 62 59 57 55 54 54 55 58 60 60 61 59 54 49 45 43 37 33 30 31 34 35 32
86 81 80 81 78 80 79 85 83 84 88 85 78 78 78 78 75 68 63 60 59 56 55 54 54 54 56 58 59 61 61 59 55 51 47 44 44 44 43 41 41 41 42
77 76 78 80 87 87 85 79 80 82 83 78 76 74 76 70 65 62 59 57 55 54 54 54 55 55 57 60 60 59 59 58 54 53 50 50 53 51 52 53 52 52 52
87 87 90 91 89 89 73 74 74 77 73 75 71 73 69 61 56 54 53 53 53 53 53 55 55 56 57 58 58 57 56 54 53 56 59 58 58 59 60 59 60 61 63
91 93 90 96 72 68 72 65 70 70 73 67 69 69 60 55 53 52 50 50 49 50 51 52 53 55 56 56 54 53 55 57 58 60 63 63 65 66 67 68 68 68 67
75 72 64 62 68 69 58 65 69 72 67 67 68 63 55 53 52 51 51 50 49 48 48 48 49 49 49 52 54 56 58 62 64 66 68 70 70 71 71 72 72 70 68
57 60 63 62 52 57 63 68 67 66 65 65 61 56 53 51 53 51 49 49 48 48 48 47 47 48 50 53 57 61 63 66 69 71 72 75 75 73 71 68 68 66 65

GFSMA_250_spd_054.txt.gz
Wind_Speed
45 46 46 45 46 47 49 51 52 54 53 55 58 62 63 66 67 67 69 72 75 77 78 78 83 85 89 90 93 96 98 100 100 97 88 77 70 66 62 59 62 60 55
47 47 48 48 51 52 52 54 54 55 57 60 62 65 66 68 69 70 74 76 78 79 79 82 85 91 93 95 98 100 102 103 102 93 86 77 74 72 71 70 65 60 57
52 53 53 52 53 55 57 57 58 58 61 63 65 67 69 70 72 75 78 80 81 80 84 88 93 94 97 99 102 104 107 106 100 93 86 80 81 79 69 58 53 53 52
56 57 57 57 57 57 60 60 60 62 65 68 69 69 71 73 76 79 80 82 81 85 89 95 97 97 100 102 105 108 109 105 98 89 84 84 78 66 60 56 51 48 49
61 61 61 59 60 62 62 63 64 67 68 70 70 73 74 77 78 80 82 83 87 92 97 99 98 101 106 107 110 110 108 100 95 89 85 76 67 61 57 51 46 47 47
62 63 64 64 65 65 66 65 67 68 70 71 73 76 77 78 79 80 84 89 94 100 100 101 101 105 109 111 114 111 104 96 91 87 83 73 64 54 47 47 45 42 45
66 66 67 67 67 68 67 68 69 72 73 75 75 77 78 79 83 86 91 96 101 101 101 104 106 110 114 115 113 108 101 95 89 83 74 69 57 48 48 43 44 46 44
68 70 70 70 70 68 69 72 73 74 76 78 79 79 81 87 90 95 99 101 100 100 105 108 112 114 118 116 109 103 97 95 88 77 68 58 54 52 48 47 45 44 46
71 71 72 73 72 73 75 76 77 78 80 82 84 85 87 89 94 98 101 103 105 108 111 113 115 118 116 112 104 98 98 93 81 70 64 56 53 50 53 56 49 50 48
72 73 73 75 77 78 79 80 81 82 82 84 87 89 93 96 98 97 103 108 110 114 116 117 118 116 113 108 100 97 95 85 74 67 61 55 55 56 56 55 56 54 55
75 77 79 80 81 81 81 81 82 84 85 88 90 93 96 99 102 104 108 110 113 117 115 114 114 113 106 99 97 94 87 74 69 65 57 56 59 60 58 57 59 61 65
81 81 82 82 81 82 82 83 86 88 90 91 95 97 100 105 106 111 108 113 115 116 114 114 110 102 99 94 93 88 75 70 67 59 55 57 61 61 59 57 59 64 64
85 85 85 84 85 85 86 89 90 92 94 97 100 103 106 108 110 111 113 116 113 112 113 110 106 99 94 92 87 76 68 65 58 56 56 59 60 59 55 57 57 52 51
89 88 87 87 89 90 92 93 95 97 100 104 106 108 108 110 110 114 115 113 107 107 107 102 97 95 89 86 77 67 64 58 54 53 54 59 58 56 56 55 51 38 42
92 93 92 93 95 96 96 98 101 103 105 107 108 109 109 110 112 110 106 102 104 100 95 95 92 89 84 77 68 62 60 55 53 54 53 55 57 52 49 48 44 24 27
98 97 97 99 100 101 102 102 104 105 106 109 110 109 109 109 104 102 99 98 97 93 89 91 89 82 75 68 62 59 56 53 54 54 54 53 57 53 50 45 39 26 17
105 103 102 103 105 106 105 106 107 109 108 109 105 105 102 99 96 93 90 92 92 91 87 86 79 72 66 63 59 57 55 54 54 54 55 55 53 48 46 43 36 30 20
107 106 106 106 107 109 109 110 109 107 105 104 103 93 87 92 90 86 86 87 88 85 85 78 71 67 63 60 57 55 54 54 53 54 54 53 51 48 42 41 36 29 25
108 107 108 108 109 110 109 107 105 103 101 96 88 91 88 84 77 82 84 83 82 80 74 71 65 62 59 57 56 55 54 54 54 54 54 53 50 46 41 37 40 37 30
109 108 108 107 106 105 103 101 100 98 92 85 89 82 82 80 74 80 81 80 77 70 64 64 61 58 57 57 56 55 54 56 56 55 53 51 49 44 42 41 40 39 41
105 103 101 99 97 97 94 93 87 80 85 84 81 86 85 74 76 76 76 76 72 62 58 57 56 55 54 55 55 55 55 55 54 54 51 49 49 49 49 49 49 47 47
100 99 99 93 90 86 82 83 85 83 80 82 86 79 76 74 71 72 78 72 65 56 55 52 52 50 49 51 51 52 51 50 49 52 50 51 53 55 55 54 55 55 55
90 89 86 86 84 83 81 80 81 82 85 75 75 77 70 70 68 72 71 66 57 53 52 53 51 50 49 48 48 48 48 49 50 53 55 55 58 61 62 63 63 62 62
84 81 82 81 82 82 82 80 81 72 69 70 66 67 71 68 70 69 67 62 55 53 51 49 48 47 46 46 46 48 51 54 57 59 60 63 64 66 68 69 68 68 68
75 75 75 74 74 75 74 71 61 60 65 64 62 64 68 70 66 65 62 57 52 52 51 50 49 49 49 50 51 54 57 59 60 62 65 67 69 72 73 72 72 71 70
67 66 66 67 65 65 63 58 61 60 63 61 60 65 68 64 66 63 61 56 52 52 53 54 54 54 55 56 58 58 58 60 63 66 68 72 75 77 76 75 74 71 67

GFSMA_250_spd_057.txt.gz
Wind_Speed
43 42 43 43 45 46 47 50 51 52 54 55 57 59 60 61 63 67 68 70 71 72 75 77 78 78 79 85 92 95 93 98 102 105 110 106 96 86 78 72 68 67 64
47 47 47 48 48 49 51 53 54 56 56 59 59 62 63 64 66 69 71 72 74 76 78 79 78 79 86 92 95 96 100 103 105 109 109 102 93 87 79 74 72 62 56
52 52 51 52 53 54 55 56 57 59 60 61 63 64 65 67 69 72 73 75 77 80 79 77 79 87 92 96 96 100 105 107 111 113 106 100 92 84 79 74 67 56 53
54 56 56 56 56 57 58 59 61 61 63 65 66 67 67 69 72 74 77 78 80 78 78 83 87 92 96 96 100 105 107 112 115 111 105 94 89 85 79 68 56 52 46
60 59 59 61 60 61 62 63 63 65 67 68 68 70 71 73 74 77 79 81 81 84 88 87 93 95 97 102 106 109 113 114 113 108 100 94 86 83 74 58 51 41 40
63 64 62 60 62 63 63 64 66 68 70 70 71 71 73 76 79 81 83 86 87 88 91 94 95 98 102 106 111 111 116 118 112 102 94 89 86 79 65 54 45 39 38
68 65 66 64 64 67 68 69 70 71 73 73 74 75 78 81 83 86 88 89 90 92 94 96 100 104 107 113 113 117 119 116 107 98 92 85 80 72 60 49 42 41 40
72 71 72 69 69 68 70 72 73 72 74 76 77 80 83 88 86 89 92 92 93 94 97 101 104 109 115 116 117 119 118 109 102 97 90 83 77 63 57 48 40 42 44
79 77 78 73 71 67 70 72 73 74 76 78 82 85 86 87 88 89 92 95 97 100 103 108 113 114 117 118 119 118 112 104 97 92 85 78 70 61 52 43 44 46 49
81 82 77 72 73 72 73 76 79 79 79 82 84 86 88 89 90 93 94 98 103 107 109 114 117 118 120 121 119 114 107 101 95 88 79 71 66 57 49 46 49 49 50
84 84 79 77 77 77 79 79 80 82 82 84 86 88 91 93 95 97 98 103 108 114 113 115 119 120 120 119 115 109 104 96 91 83 71 64 61 54 52 50 48 45 45
81 80 84 85 85 84 84 85 86 88 89 90 91 92 94 95 99 102 105 107 110 114 118 119 121 116 117 113 108 105 97 89 83 73 65 60 57 54 54 54 49 45 43
89 89 89 90 90 88 90 91 91 90 90 92 94 95 97 99 101 105 109 111 114 114 118 116 116 114 112 109 107 95 86 82 74 65 60 56 54 55 56 55 49 46 47
93 93 93 93 94 94 94 95 93 94 94 95 96 97 101 103 106 109 111 116 112 114 115 106 111 108 106 99 96 84 79 73 64 61 56 54 52 55 56 55 48 45 44
101 100 99 97 96 96 98 99 98 99 100 101 102 104 107 108 111 114 115 115 113 114 103 107 104 103 100 92 87 78 73 66 60 57 54 53 52 54 55 52 49 46 42
107 105 104 101 100 100 101 102 101 102 104 106 108 109 111 112 113 115 114 112 113 105 98 99 93 93 90 84 80 74 67 61 57 53 52 52 52 53 51 49 46 42 40
112 110 108 107 107 107 106 106 107 108 109 110 111 112 111 113 112 113 112 108 104 100 95 90 90 87 83 79 73 67 64 59 55 52 51 52 52 49 48 46 46 40 33
113 112 111 110 108 108 107 109 110 111 112 111 111 111 113 112 109 107 106 95 93 95 89 86 84 82 80 74 66 63 61 57 54 53 53 52 50 47 44 41 40 41 39
114 112 111 111 111 111 110 110 111 112 111 111 112 113 112 107 104 100 92 94 91 88 82 80 79 79 75 66 61 59 56 53 50 49 48 47 45 42 40 40 40 40 40
117 118 119 117 115 115 115 115 115 112 112 112 110 105 102 99 91 91 86 87 82 77 78 77 78 76 69 59 58 57 56 53 50 46 44 42 42 41 40 42 43 44 44
111 113 114 115 117 117 116 113 110 109 105 104 102 100 97 91 88 84 85 77 75 75 74 79 77 72 61 55 55 53 51 48 46 44 43 44 44 45 46 47 47 48 48
106 107 106 105 107 104 102 102 103 102 101 100 96 92 89 87 83 81 80 73 67 72 75 75 75 65 59 54 53 51 49 48 46 47 48 51 52 51 52 52 53 54 54
98 96 98 100 101 100 102 103 102 100 96 92 90 87 84 79 73 73 74 66 68 68 72 73 70 63 58 54 54 54 53 52 52 53 54 54 54 56 57 58 59 60 61
94 95 96 98 97 97 95 95 93 91 89 87 86 82 75 69 65 68 67 66 65 67 71 70 65 62 59 57 56 57 57 58 58 58 58 58 60 62 64 65 65 65 66
87 87 88 89 89 88 87 87 86 84 81 77 73 70 63 62 64 63 65 66 66 68 69 70 65 63 61 60 60 61 61 62 63 65 65 66 67 68 70 71 70 70 71
77 78 79 79 80 79 79 79 74 72 68 66 62 59 61 61 64 64 63 62 65 66 71 71 66 65 64 64 63 63 64 66 67 68 69 70 69 70 71 71 73 73 75

GFSMA_250_spd_060.txt.gz
Wind_Speed
45 46 47 46 44 44 43 45 46 48 50 53 55 58 60 62 63 64 64 65 66 66 69 72 75 77 79 80 83 84 86 89 93 98 104 107 106 104 94 84 77 72 68
45 47 47 49 48 47 48 50 51 52 54 56 58 60 62 64 65 66 66 67 69 69 72 74 77 79 82 84 86 88 89 92 97 103 108 108 108 100 91 84 76 72 68
49 49 47 49 52 53 53 55 56 56 57 58 60 62 64 66 66 68 67 69 72 72 74 77 80 82 84 86 88 89 94 99 105 109 112 112 106 98 88 82 75 69 62
52 52 53 52 54 56 56 57 60 60 60 61 63 66 66 68 69 70 70 70 72 76 80 83 85 85 86 89 90 94 98 104 110 114 115 111 102 97 90 79 74 65 54
53 55 56 58 59 60 61 60 61 63 65 65 65 67 68 71 71 73 72 74 76 78 83 85 88 89 90 92 94 99 104 109 113 115 118 107 105 95 85 78 70 58 49
62 64 65 64 64 67 67 65 66 65 66 67 70 71 70 73 74 76 77 79 80 83 85 87 89 92 95 97 101 104 109 113 117 116 111 106 99 89 81 73 64 53 47
70 70 69 67 66 67 67 68 72 72 71 71 69 72 73 74 75 79 82 82 84 86 89 90 92 95 99 102 106 110 113 117 116 118 110 105 96 82 76 68 57 49 41
71 73 72 70 71 72 73 72 75 74 74 72 74 73 72 79 80 79 82 86 89 91 93 94 97 100 102 105 111 115 117 117 114 114 108 99 88 79 70 60 52 45 38
75 75 74 73 75 77 76 76 78 76 78 76 79 81 80 81 83 84 86 91 94 96 97 99 101 103 107 110 114 115 117 116 116 109 103 93 82 74 66 55 47 42 40
79 78 80 81 81 80 80 81 81 80 81 79 79 80 85 85 85 87 90 92 94 97 99 102 106 109 112 116 117 117 118 115 112 105 101 87 75 68 60 53 46 42 41
75 75 79 80 82 83 83 83 83 84 85 79 82 85 88 91 92 91 90 93 97 100 105 107 111 114 116 119 119 116 118 113 108 99 89 81 69 63 57 51 48 44 41
83 81 81 81 82 84 84 83 84 84 82 82 86 89 92 95 98 96 97 98 101 105 108 110 115 115 116 117 119 116 112 109 102 95 85 73 65 58 52 48 49 47 46
94 92 88 86 84 84 85 85 86 86 87 90 93 94 95 99 99 100 102 103 105 108 111 114 117 117 116 118 115 113 109 103 93 86 77 67 62 56 50 48 49 49 47
101 99 100 99 96 93 93 91 90 93 93 94 95 98 99 101 103 101 102 103 106 112 114 114 114 118 117 113 109 106 100 91 86 79 71 63 58 53 50 48 48 47 46
108 107 106 106 105 104 102 101 100 101 102 102 103 103 102 103 103 105 107 107 110 109 112 114 116 113 112 105 104 95 90 86 79 73 63 58 55 51 49 47 47 46 42
114 112 111 112 111 111 110 108 106 107 102 103 104 103 103 105 106 107 108 110 110 112 110 115 112 109 106 106 95 89 85 77 73 64 58 53 52 50 46 44 43 40 37
114 113 113 113 113 114 114 114 114 113 114 112 110 111 110 107 106 105 108 111 112 110 113 108 109 102 98 93 90 84 77 75 68 59 54 51 49 47 43 38 36 34 33
110 110 109 110 111 110 112 115 115 113 112 111 108 106 107 107 110 109 115 114 116 113 107 104 101 96 89 84 81 80 77 70 62 55 51 48 46 43 39 35 33 33 35
109 110 111 112 112 112 112 110 108 111 108 111 106 109 111 112 116 116 117 118 115 106 102 101 94 82 81 78 77 80 72 68 59 53 49 46 43 41 40 38 36 38 39
110 111 111 110 111 109 108 105 107 108 107 108 112 115 114 114 114 110 107 104 104 98 96 92 83 77 73 72 74 74 72 64 56 52 49 46 46 45 45 45 44 43 42
114 113 112 110 109 104 101 99 97 99 103 105 104 104 104 103 105 103 101 97 94 90 87 84 72 70 68 70 73 73 71 64 57 53 52 51 50 49 50 49 49 48 48
112 113 109 107 101 99 97 97 97 97 101 101 98 99 97 97 94 94 93 90 87 85 80 71 65 66 66 70 71 72 68 64 60 57 55 57 57 56 54 53 53 55 56
107 107 103 105 104 103 102 100 98 97 95 96 95 93 93 93 92 89 87 85 82 76 66 62 65 62 67 68 72 69 67 63 62 60 58 56 57 58 59 59 60 61 61
101 102 102 100 104 108 105 101 97 93 92 92 92 93 93 89 87 84 83 79 73 62 60 62 62 65 66 67 69 68 69 66 64 62 62 60 60 62 62 62 61 62 61
94 95 95 94 93 93 93 93 93 91 89 87 87 86 84 81 80 78 73 68 58 55 60 62 63 65 64 68 69 70 73 70 69 65 65 63 65 66 64 63 63 62 61
85 85 85 85 85 85 83 83 83 82 80 79 77 75 72 69 67 66 61 55 55 60 61 64 65 65 67 71 70 72 75 72 71 70 66 64 67 63 62 63 62 62 61

GFSMA_250_spd_063.txt.gz
Wind_Speed
44 44 43 42 42 42 43 46 46 46 48 49 50 51 54 57 60 62 63 65 66 65 67 67 70 71 74 75 79 82 84 85 87 89 92 96 100 103 104 99 89 80 73
48 48 46 45 44 44 44 44 46 48 49 52 54 55 57 59 62 63 64 66 69 67 66 68 70 73 76 79 84 87 89 89 91 93 95 99 106 108 106 95 86 78 73
52 53 53 51 51 48 46 48 48 49 52 53 55 56 59 62 63 64 64 66 68 70 70 70 74 75 77 82 86 90 90 93 95 99 103 105 108 106 100 92 83 78 69
57 56 56 54 53 52 51 54 55 55 55 57 59 62 62 65 63 64 68 70 71 72 75 77 80 80 82 85 88 92 93 95 97 103 107 108 109 107 98 91 80 73 65
57 55 51 53 53 57 60 60 58 58 58 60 61 63 65 67 69 69 75 73 73 74 78 81 82 84 86 89 92 92 96 99 103 106 108 109 109 104 98 85 77 71 62
61 57 63 65 65 66 64 63 62 64 65 63 65 67 70 73 72 77 78 78 78 80 82 83 85 86 89 93 94 96 99 102 108 112 112 111 109 102 95 80 73 65 55
69 70 69 68 68 68 67 67 69 69 67 67 69 71 72 75 78 79 81 81 82 84 86 87 89 91 93 95 98 103 105 107 112 113 113 112 111 101 88 78 69 58 50
70 71 74 71 71 71 70 71 72 71 73 74 74 74 74 79 83 82 83 86 85 83 86 91 94 94 95 98 102 104 107 110 114 113 114 113 104 98 84 74 62 58 47
71 71 71 72 71 72 72 74 74 76 75 77 79 82 81 80 82 83 84 86 82 86 90 94 95 97 99 100 102 105 110 113 114 115 115 110 104 93 78 70 60 52 46
79 78 73 75 75 74 77 77 80 80 80 81 83 84 83 81 82 82 83 84 84 89 92 98 100 100 103 103 104 110 112 113 116 116 115 110 96 84 75 66 58 49 43
81 80 79 78 81 83 84 83 82 83 84 84 83 85 85 83 83 82 85 89 89 92 94 98 101 103 103 104 109 110 113 114 117 117 109 104 91 79 71 61 55 48 42
86 86 86 85 83 81 79 82 82 82 83 83 84 83 84 85 88 89 90 94 95 95 100 103 101 104 104 108 108 111 114 114 120 115 108 95 84 76 66 58 52 47 44
94 93 94 93 93 92 92 92 90 88 86 86 85 87 87 89 91 93 97 100 100 102 100 102 103 106 106 109 110 111 118 120 118 110 102 90 79 69 62 54 50 47 43
101 102 103 102 101 102 102 100 100 99 99 98 97 98 98 98 99 102 103 102 104 104 107 109 109 109 110 108 112 116 118 120 111 101 93 80 71 66 58 51 48 45 42
111 109 108 107 105 106 106 105 106 106 105 104 105 107 108 110 111 109 109 111 112 113 109 106 104 103 109 110 115 118 111 106 97 91 85 75 66 62 54 47 45 44 41
114 114 113 113 114 113 114 112 112 113 111 110 112 115 115 112 111 111 110 103 104 108 106 105 105 102 111 115 111 103 105 95 88 83 78 68 65 59 51 45 43 40 38
120 119 119 119 117 118 116 114 115 117 117 116 114 111 111 109 107 107 105 102 99 98 96 99 102 105 111 107 97 99 88 84 78 73 72 66 63 56 48 45 40 39 36
114 115 116 117 116 116 115 114 114 112 111 111 108 106 107 104 101 103 99 97 96 100 103 106 107 105 100 97 91 81 79 72 69 68 67 65 62 55 47 46 44 42 40
119 118 118 115 115 113 113 111 108 109 109 107 106 106 105 104 102 98 95 94 95 96 96 100 100 98 92 84 81 77 70 66 64 65 65 65 62 54 49 47 47 47 46
115 115 116 115 115 115 113 111 109 108 108 107 105 105 105 104 102 95 95 92 95 95 96 93 91 85 81 81 77 73 62 61 63 62 63 62 60 57 52 49 48 47 46
111 111 112 111 111 111 109 109 110 109 107 107 109 106 105 104 100 95 91 99 92 88 87 86 84 81 81 78 74 64 60 62 59 62 62 64 60 58 56 54 54 51 50
109 111 112 110 111 109 109 108 109 109 107 106 106 98 96 96 93 94 93 87 86 85 85 86 87 82 78 76 65 60 59 61 62 63 62 63 64 62 58 57 57 56 55
105 107 107 109 111 110 109 107 106 104 100 98 97 94 93 94 95 90 90 87 86 85 82 85 80 75 73 61 58 57 60 62 61 63 64 65 63 64 63 61 58 55 54
95 96 99 100 101 102 102 101 100 99 95 94 93 93 92 93 93 91 89 88 80 80 79 77 72 68 59 57 55 60 61 64 65 64 65 68 68 69 66 63 60 56 57
90 91 91 93 94 93 95 95 95 94 92 91 92 92 89 86 83 82 79 76 74 74 70 64 60 56 54 53 59 63 62 64 64 67 68 69 71 70 69 66 61 61 57
85 86 87 87 86 86 86 86 86 86 86 86 84 83 81 78 76 73 71 69 66 61 59 55 55 49 53 61 61 64 64 66 68 65 69 72 70 70 72 66 63 62 58

GFSMA_250_spd_066.txt.gz
Wind_Speed
47 49 50 49 48 46 45 43 42 41 43 44 44 43 44 46 47 49 54 57 59 61 63 68 71 73 74 76 80 81 82 83 84 85 89 91 93 93 101 99 100 98 89
47 48 50 53 52 50 48 46 46 46 47 46 48 51 50 50 52 53 57 59 60 64 69 72 71 76 77 84 84 83 86 87 89 90 90 94 95 101 104 103 104 96 87
55 53 52 52 53 52 52 53 54 53 52 52 53 55 54 55 58 59 58 63 67 69 71 75 78 78 80 82 87 88 88 90 90 93 96 96 99 106 107 104 105 96 86
61 61 59 58 57 56 57 56 55 56 56 55 56 59 58 61 64 62 64 68 70 72 75 80 81 84 83 84 86 86 92 93 97 98 99 102 103 104 110 104 105 98 81
65 65 65 64 61 58 55 56 57 60 60 60 61 63 63 67 66 65 67 68 73 75 78 81 83 83 85 86 83 88 92 98 100 100 103 106 106 109 110 108 106 93 78
74 70 69 69 67 63 60 61 65 66 65 62 64 67 68 71 69 69 73 73 77 80 80 81 83 85 84 85 88 92 96 99 100 104 104 107 113 112 111 106 100 90 75
67 68 68 68 70 69 69 65 65 65 67 68 69 70 72 73 74 74 75 77 80 79 80 83 84 83 81 87 91 93 96 98 102 105 107 108 114 112 113 108 94 83 69
72 65 67 71 72 72 71 71 66 65 67 67 69 71 72 72 78 78 82 82 80 81 85 84 85 83 87 90 94 97 98 100 104 105 107 113 113 113 110 98 90 76 63
78 78 80 81 76 76 77 76 75 72 74 76 74 72 76 78 82 83 83 83 83 85 85 85 87 90 91 94 96 99 102 102 103 107 111 110 112 111 107 92 84 70 59
75 78 82 83 82 81 81 81 83 82 83 82 82 86 80 78 77 80 83 84 83 84 87 90 91 91 92 95 102 99 103 105 110 110 109 107 108 107 98 88 76 64 54
68 69 72 79 84 83 84 81 82 86 84 81 82 83 85 85 82 83 83 89 90 86 84 90 92 98 102 108 109 105 109 110 109 108 105 104 105 98 93 78 69 58 50
79 86 88 88 87 85 85 87 87 87 86 84 84 84 86 85 85 88 89 88 89 93 98 101 105 107 109 106 108 106 104 103 104 101 103 102 102 98 84 72 62 55 48
97 96 92 93 90 90 91 91 92 93 90 90 90 90 90 92 97 102 101 99 101 103 104 107 110 110 111 103 100 98 100 100 100 101 102 98 99 87 77 66 59 53 47
101 101 102 103 104 103 100 94 94 93 93 95 96 99 104 104 103 105 107 107 108 108 109 109 114 107 101 98 93 94 95 100 99 99 95 94 84 77 70 62 56 52 46
110 112 112 109 109 110 109 106 106 103 104 105 109 110 110 110 109 110 112 112 112 115 112 109 107 101 99 94 95 95 93 94 93 94 89 78 75 69 66 62 56 51 45
116 117 116 114 113 114 117 116 115 115 114 114 114 114 112 113 114 114 114 112 110 107 102 99 97 94 94 90 90 89 91 90 89 81 73 72 67 65 63 60 55 50 45
112 113 114 115 116 114 114 114 114 113 110 108 108 109 109 110 109 108 107 107 105 101 99 98 94 94 92 89 89 87 85 83 79 74 70 68 65 58 60 57 54 51 48
108 108 109 109 110 112 113 110 111 110 110 110 115 113 110 109 105 105 104 104 101 99 96 99 97 94 93 88 83 82 78 75 74 73 69 67 61 56 58 55 53 50 50
113 112 114 117 118 119 117 118 120 122 123 120 115 113 109 106 105 103 103 101 100 99 97 95 94 91 87 83 78 76 76 74 75 76 70 63 56 57 56 56 54 53 50
125 124 124 123 119 116 114 113 113 113 114 113 111 110 109 106 104 102 102 100 98 96 94 94 88 84 82 80 80 78 79 78 76 69 66 56 54 57 55 55 56 55 53
116 115 115 115 116 115 113 112 111 111 111 110 110 110 108 106 104 102 102 101 100 95 93 89 83 83 83 84 81 80 80 79 72 68 60 53 55 57 57 56 57 56 57
116 115 116 116 116 116 114 112 111 109 108 109 109 108 109 108 104 102 101 97 92 89 89 87 85 86 84 87 81 84 82 74 70 56 51 55 54 57 59 57 59 59 60
111 111 112 112 113 113 114 114 113 112 112 111 109 107 106 105 100 96 94 90 89 86 86 84 85 85 86 80 75 74 69 65 55 50 51 56 58 58 58 60 61 61 63
105 105 105 105 105 105 104 103 103 103 101 101 99 98 96 94 92 90 89 87 86 83 84 85 81 78 74 72 69 62 57 53 49 49 54 59 58 59 62 62 61 64 64
94 95 96 96 95 95 95 95 95 95 94 93 91 90 87 86 84 84 83 80 82 81 78 77 74 71 65 61 57 51 48 49 51 52 57 59 60 61 62 62 65 67 64
89 89 89 89 88 87 88 88 88 88 87 86 84 81 80 79 77 76 75 73 71 70 70 66 61 58 56 54 50 52 54 53 54 56 60 59 61 63 62 65 68 65 65

GFSMA_250_spd_069.txt.gz
Wind_Speed
50 49 47 48 44 43 44 45 47 48 47 45 46 47 49 50 49 50 51 54 52 57 60 62 66 71 72 76 76 77 81 80 82 85 85 90 91 95 98 101 103 108 105
55 54 51 53 53 55 50 48 47 48 49 50 51 52 54 55 56 56 55 58 58 63 65 66 67 69 74 78 78 82 82 83 84 84 88 90 92 96 99 104 106 105 101
55 57 57 56 58 59 55 54 54 54 53 53 54 54 56 57 59 57 58 60 61 67 69 71 72 72 75 79 81 82 82 82 82 86 88 91 95 101 104 107 108 102 95
56 59 57 54 54 55 56 56 58 59 55 53 53 57 60 63 61 61 58 65 68 70 71 73 75 77 78 81 81 83 83 85 87 88 89 93 99 106 104 107 101 97 93
64 62 59 60 60 62 65 66 65 63 60 59 59 64 61 59 60 62 65 67 68 70 73 76 80 78 79 80 83 82 84 88 88 89 93 102 108 108 105 101 98 94 91
63 65 66 66 66 69 67 63 61 60 60 63 62 63 66 64 64 66 68 69 72 75 79 81 83 82 80 80 83 84 87 86 89 99 104 107 111 108 103 99 95 93 87
65 64 64 70 71 68 64 65 61 65 67 67 69 68 69 67 74 77 79 76 77 79 79 80 82 80 79 82 88 89 83 91 102 106 108 107 107 105 100 97 96 88 82
76 76 76 73 70 64 64 69 78 75 74 75 75 72 76 81 80 79 82 81 80 77 79 81 83 81 85 86 84 86 95 102 104 105 106 103 104 100 97 95 94 86 77
79 76 77 77 73 72 74 80 77 75 76 77 76 78 79 80 81 83 81 82 82 82 82 82 85 87 82 83 96 101 103 107 104 99 105 103 99 96 93 93 89 83 68
77 77 79 79 80 84 86 86 85 84 83 85 87 89 80 78 81 79 83 83 82 83 83 83 85 94 99 103 100 103 105 105 109 99 98 95 92 91 89 88 87 74 68
79 80 82 86 89 93 94 95 90 91 89 82 80 82 81 82 80 84 84 88 85 82 84 88 96 103 106 107 108 109 109 108 93 92 91 87 86 85 88 85 81 70 63
83 85 88 89 90 90 88 92 94 90 86 88 86 84 86 87 85 91 90 91 92 89 93 96 104 109 110 109 109 106 100 93 88 86 86 83 83 83 84 79 71 66 60
94 89 89 90 87 85 89 87 91 93 92 93 95 93 96 96 99 100 94 96 93 96 98 105 110 107 105 102 103 98 92 89 85 85 83 84 81 80 75 70 66 60 56
101 102 98 98 96 101 96 97 101 105 104 105 105 105 106 108 110 108 111 112 111 112 108 100 99 106 100 97 93 91 88 86 85 82 83 77 74 70 70 64 64 60 53
107 101 100 101 105 105 108 109 110 111 111 113 112 113 118 117 117 117 115 117 110 103 100 105 104 100 96 93 90 85 86 85 83 84 77 73 68 68 66 66 61 55 53
112 115 113 115 118 121 121 121 117 115 116 122 124 122 119 119 120 113 108 110 111 107 104 101 99 96 94 91 89 87 87 86 83 80 73 67 68 64 64 66 56 50 52
131 131 131 130 130 130 129 130 130 127 123 121 119 116 115 111 107 110 114 110 106 105 104 101 99 97 93 92 91 90 86 83 81 76 73 71 67 67 65 66 57 49 49
140 141 141 140 138 135 129 124 120 116 112 109 107 106 107 105 111 111 116 111 111 109 105 103 101 97 93 91 89 88 86 83 77 73 71 68 69 72 65 60 54 49 49
129 129 127 127 127 125 121 118 118 117 114 112 112 110 115 121 124 117 113 112 109 109 105 100 99 97 94 92 89 87 80 79 75 71 73 72 78 70 67 59 49 47 51
122 122 123 123 122 120 121 122 122 122 127 124 125 126 124 118 115 113 113 110 108 106 103 101 100 97 95 91 85 81 77 75 74 73 76 75 71 67 58 48 45 46 50
124 125 125 125 125 125 127 129 128 127 126 123 120 118 117 115 113 112 111 108 107 107 105 104 105 99 91 85 82 78 76 76 74 76 79 72 69 59 53 45 45 47 50
120 120 120 121 121 121 120 120 120 120 119 120 119 118 117 115 112 109 110 109 107 105 101 96 93 88 84 81 78 76 74 76 75 79 79 66 62 52 48 45 48 50 53
116 117 118 117 116 115 114 115 116 117 117 117 116 113 111 110 108 106 102 100 96 92 89 85 85 83 80 76 75 74 76 77 75 67 64 62 53 45 47 48 47 53 55
108 109 110 111 112 112 112 111 111 112 111 110 109 108 105 102 100 97 94 90 88 85 82 80 80 77 75 72 69 71 68 65 63 60 55 52 48 47 46 47 50 56 55
101 100 101 103 104 103 103 102 102 102 101 101 100 98 96 94 93 90 84 81 80 77 74 71 71 71 69 67 66 62 60 57 58 56 53 49 47 46 47 50 54 56 56
96 95 95 96 96 95 94 95 95 95 93 93 93 90 89 87 85 82 80 77 74 71 67 65 64 62 61 60 56 54 53 54 53 53 49 50 49 50 52 53 55 59 61

GFSMA_250_spd_072.txt.gz
Wind_Speed
51 48 46 45 47 46 45 44 45 47 48 45 46 46 46 46 47 47 50 53 55 57 56 56 62 63 65 69 72 72 76 74 76 77 82 82 79 88 95 102 102 102 97
49 51 50 50 53 53 53 50 50 49 50 45 45 47 47 49 48 48 52 58 58 57 57 58 62 66 71 74 73 73 77 76 78 76 83 79 85 94 102 102 101 103 94
48 50 51 50 48 49 51 51 51 48 47 48 50 54 53 52 57 59 56 58 57 55 55 61 66 72 78 78 77 76 76 78 77 82 77 84 93 97 101 101 104 96 90
54 47 46 50 52 53 53 54 55 55 55 54 55 55 49 52 56 55 56 57 59 61 65 69 74 76 74 76 77 79 79 82 80 80 84 90 99 98 102 99 96 92 89
50 48 51 50 53 55 55 58 60 62 64 63 61 53 52 56 56 62 66 66 68 72 72 76 75 76 73 74 76 77 82 82 81 85 91 98 103 103 99 92 91 88 86
49 52 56 61 60 63 62 65 65 66 66 64 60 60 67 68 69 71 70 69 72 71 77 76 76 74 75 75 79 80 84 81 87 89 96 102 101 98 94 88 81 83 83
65 68 75 72 69 63 65 65 66 68 72 71 69 74 79 76 71 73 75 74 72 77 75 76 78 74 79 78 83 84 86 86 93 101 108 102 94 93 85 80 82 79 82
77 67 69 71 71 71 72 76 79 81 81 80 82 88 87 75 74 78 73 78 74 72 77 77 76 79 82 88 85 83 93 95 98 104 103 96 94 87 82 79 82 80 77
78 71 66 70 75 78 79 83 85 85 89 86 89 84 77 80 81 79 79 79 80 78 81 81 83 85 88 93 87 92 96 101 108 107 96 89 86 81 77 78 79 80 75
83 78 77 79 82 85 86 84 83 89 92 94 83 79 77 82 80 82 86 80 81 80 80 84 87 89 96 96 95 104 107 108 94 97 91 85 80 75 74 75 76 74 72
87 87 91 90 88 85 87 91 90 89 90 86 87 91 84 85 81 76 75 81 81 85 85 89 100 105 103 109 106 106 97 99 97 92 86 81 76 74 74 75 73 71 66
95 96 96 91 87 88 91 92 96 96 93 95 94 95 92 88 77 85 81 88 88 96 103 102 107 109 115 108 109 97 100 93 88 83 82 79 77 74 74 73 68 65 62
96 95 96 95 94 97 97 96 98 99 102 100 93 94 97 95 90 93 98 101 103 108 116 120 115 116 109 104 95 101 94 93 89 86 82 81 78 74 72 71 66 63 63
104 105 101 99 100 103 95 95 98 103 105 104 103 101 102 102 101 104 108 115 118 117 116 118 109 103 97 96 102 99 96 93 90 83 81 79 79 75 70 67 63 63 60
106 110 110 109 113 111 109 104 106 111 115 113 113 112 106 107 110 115 119 123 125 124 128 108 102 99 98 103 107 100 96 95 89 84 82 78 80 75 69 62 61 60 58
118 121 114 113 113 114 117 119 115 114 115 112 110 110 111 115 123 127 129 132 131 132 116 105 105 104 104 104 99 97 96 93 89 85 82 81 79 72 65 62 59 59 62
117 116 116 120 125 122 118 115 114 115 114 119 123 122 126 131 135 138 138 140 128 122 113 112 113 107 108 105 101 100 95 94 88 86 85 82 75 69 65 61 56 63 68
118 115 120 123 129 123 124 126 126 126 128 132 133 134 137 139 142 144 140 130 125 121 117 115 108 111 106 104 101 98 92 90 89 87 82 78 72 67 62 59 61 61 63
135 134 132 131 134 132 133 138 139 139 141 141 142 143 146 146 139 131 130 123 119 118 117 114 110 108 103 100 97 95 94 93 89 86 81 76 71 66 60 59 63 64 62
141 138 138 139 141 143 143 143 145 147 149 151 149 145 140 132 127 123 122 120 118 116 114 111 106 104 101 98 97 96 92 88 84 80 75 69 65 66 63 61 63 61 53
141 143 142 141 140 140 141 140 140 139 138 136 135 132 130 126 124 121 117 114 111 108 107 105 103 101 99 96 93 90 86 85 79 76 73 69 67 66 62 64 64 56 49
136 136 136 136 137 137 138 136 136 134 133 132 130 128 127 124 122 119 115 113 110 107 104 102 99 95 92 88 86 84 81 77 74 72 69 69 65 62 61 57 54 50 44
132 133 133 133 133 133 133 132 131 131 130 127 125 122 120 117 114 111 108 107 106 103 100 95 91 89 85 81 78 76 76 74 68 69 66 62 60 58 57 53 48 45 44
118 120 123 124 124 124 123 123 121 120 118 117 115 112 109 108 107 106 105 101 100 96 93 90 87 83 80 75 73 71 68 65 64 62 59 58 57 54 51 47 45 43 43
103 104 107 109 109 108 109 109 108 107 106 105 104 104 103 102 102 100 98 96 95 92 88 84 78 74 72 69 67 65 63 60 58 56 54 53 51 47 45 43 42 42 44
99 100 104 104 105 104 103 102 100 98 97 96 96 96 95 95 93 90 89 85 81 77 75 73 71 68 65 62 61 59 57 54 52 51 50 47 46 44 43 42 41 41 43

GFSMA_250_spd_075.txt.gz
Wind_Speed
47 48 50 49 49 46 45 42 43 44 45 46 42 44 44 42 39 40 44 46 51 55 56 55 55 54 54 61 65 65 68 69 69 72 76 83 87 80 83 88 94 93 89
48 50 50 49 46 45 46 48 49 45 46 45 45 45 45 46 47 45 45 52 54 55 54 59 62 62 65 64 70 72 69 70 69 73 82 82 81 85 87 94 101 90 83
51 53 52 49 47 49 46 49 49 49 46 47 49 48 51 50 51 54 58 60 57 61 58 61 64 65 65 69 71 68 72 68 74 81 85 81 85 92 98 99 87 87 84
51 46 41 45 51 53 58 53 50 52 49 52 51 53 54 56 59 60 64 59 63 68 65 62 61 62 67 66 62 70 73 77 80 85 87 86 92 99 104 82 89 83 76
63 65 64 63 63 61 49 48 50 52 54 58 59 61 61 62 64 64 63 65 70 74 64 68 66 70 68 67 68 71 73 77 82 88 92 93 98 99 93 89 82 78 75
69 73 72 66 57 57 54 56 57 60 66 68 73 74 71 64 62 66 66 71 72 67 71 73 77 74 72 71 69 73 77 80 86 96 94 101 100 95 90 83 75 72 73
79 80 75 71 69 69 73 71 75 77 71 76 72 68 68 70 69 70 72 75 75 73 73 78 82 81 72 67 68 78 81 91 100 100 102 103 90 90 83 79 75 70 69
57 65 70 66 71 73 77 81 79 82 78 78 72 71 74 76 70 72 75 82 82 73 81 84 84 64 76 74 80 83 92 101 102 99 101 85 82 85 83 78 77 70 69
66 71 72 73 75 78 80 85 86 80 80 84 77 78 82 79 81 83 83 83 81 87 85 80 81 74 77 81 88 93 102 105 102 112 95 82 86 84 80 80 75 69 68
76 76 79 83 86 88 89 88 84 88 88 90 94 91 92 86 87 81 87 90 91 93 84 83 82 90 87 90 93 101 106 108 106 102 91 89 86 80 78 77 73 68 67
74 60 57 65 74 76 82 79 80 90 89 94 97 95 91 85 83 90 94 94 91 86 88 94 97 97 96 97 101 107 116 116 122 102 91 91 83 83 80 75 73 69 68
76 75 75 72 74 87 89 86 86 92 96 96 98 103 92 94 98 96 87 87 88 97 99 104 100 98 96 101 110 115 119 115 111 102 97 97 85 86 82 76 73 69 67
79 81 80 78 85 83 85 89 94 93 96 97 102 103 104 102 98 98 96 101 100 106 106 106 100 98 107 114 114 123 122 120 110 104 97 89 86 86 81 75 73 70 68
81 84 88 91 94 87 92 102 101 104 107 106 108 109 112 107 109 111 111 108 111 112 104 103 102 112 115 117 123 128 127 121 112 101 97 90 88 86 81 75 72 68 66
90 86 88 90 94 87 98 106 113 115 113 112 113 109 113 118 120 119 119 121 121 115 109 112 116 120 124 126 130 131 129 113 107 98 94 91 88 82 77 76 73 68 64
110 106 108 104 103 108 106 112 114 116 117 113 111 115 118 126 129 120 122 126 125 121 120 123 127 133 132 133 134 134 119 105 100 95 93 90 84 81 79 76 71 67 63
110 110 110 112 118 112 117 115 113 113 112 114 127 129 128 127 125 123 124 124 132 126 131 135 140 139 139 145 129 118 108 100 95 90 88 86 82 80 77 74 71 65 61
118 122 125 125 123 118 117 120 122 116 120 127 127 125 127 127 127 131 131 132 138 137 140 143 144 146 138 127 119 115 109 100 93 88 85 82 81 79 76 73 68 64 61
128 120 116 122 123 125 124 125 133 128 133 132 131 132 133 133 134 139 141 146 146 148 147 149 140 134 129 121 115 107 100 95 90 86 84 81 79 78 74 71 67 61 59
128 124 127 131 127 131 134 129 129 132 134 135 139 142 144 145 148 150 153 153 150 149 144 138 130 127 122 113 106 98 94 89 86 83 80 77 76 73 71 69 63 61 59
137 135 136 135 136 137 140 139 140 141 144 146 151 151 152 151 151 153 151 147 144 137 134 131 127 119 110 103 97 92 88 83 80 78 76 73 72 71 68 64 62 60 57
149 145 144 146 144 149 148 149 152 153 155 156 155 156 153 151 152 148 143 135 134 132 130 124 114 107 100 97 94 89 85 81 78 75 72 70 68 65 64 61 57 56 55
151 151 150 153 153 153 157 158 161 157 153 152 150 151 148 144 142 136 133 134 131 121 112 107 103 101 97 92 89 86 81 75 72 69 67 65 63 60 58 56 53 50 48
158 156 157 157 159 162 164 163 156 150 148 145 142 140 139 134 132 129 122 113 109 106 104 102 99 94 91 88 82 76 70 67 66 64 62 59 57 54 53 51 48 44 41
152 158 160 158 156 149 141 136 135 133 132 130 128 124 119 113 110 107 106 104 101 100 98 95 88 82 77 74 69 66 62 61 61 60 57 55 52 50 48 44 41 38 37
117 116 118 120 120 121 119 118 115 114 115 114 111 106 104 103 103 101 99 95 91 88 82 78 73 68 65 60 56 53 50 48 49 49 48 46 44 43 37 37 36 36 36

GFSMA_250_spd_078.txt.gz
Wind_Speed
54 51 52 52 50 51 51 49 47 46 46 46 44 46 47 47 43 45 46 46 45 47 51 55 52 51 58 58 62 62 64 63 63 62 63 70 83 88 95 96 98 85 81
58 55 53 55 53 52 52 48 46 44 45 45 47 50 49 45 46 48 47 45 51 53 55 52 52 56 59 61 69 72 70 70 63 64 69 74 86 91 94 102 92 82 84
53 51 56 53 52 51 48 46 40 41 45 49 55 56 53 50 50 48 46 59 62 61 54 57 60 59 61 69 70 73 77 64 67 63 71 78 89 92 102 99 99 84 86
58 60 60 55 54 51 48 45 44 51 56 58 52 50 51 50 50 50 59 64 60 56 58 64 61 63 68 74 71 79 79 74 74 70 73 81 89 94 106 97 100 86 86
57 60 61 59 49 42 48 54 58 61 58 57 58 52 51 51 55 61 63 66 62 59 64 64 67 67 71 77 78 79 79 79 80 79 78 83 91 101 104 100 96 88 82
55 57 56 52 55 57 60 64 66 66 65 62 57 59 65 70 70 65 67 66 63 63 68 69 72 73 75 76 83 80 81 78 86 84 84 84 93 102 101 101 101 93 87
54 53 52 59 64 66 69 71 70 72 73 69 67 69 71 76 79 72 76 72 70 72 76 81 73 74 76 84 83 76 76 89 89 85 83 93 100 107 108 104 100 92 84
61 66 69 69 73 69 69 75 85 85 71 68 74 74 74 74 79 83 79 80 77 76 81 84 78 74 84 80 74 80 85 90 86 85 89 98 105 107 109 109 101 83 79
68 72 70 69 64 69 76 75 74 73 76 81 81 75 78 82 83 80 80 84 79 79 82 81 80 88 76 84 85 92 91 92 91 88 96 103 109 113 112 109 103 90 79
69 71 67 62 47 67 60 60 66 76 82 82 82 84 92 90 95 83 84 83 82 81 93 86 89 86 86 91 101 100 95 101 97 96 98 107 114 117 116 117 102 83 78
72 70 73 65 52 66 64 68 63 72 78 84 89 85 84 79 87 85 92 82 92 95 97 92 94 94 95 105 104 99 98 101 104 105 107 115 119 127 125 105 95 84 77
70 68 65 67 68 77 85 79 83 91 92 93 86 82 86 82 93 96 90 95 97 100 103 103 103 98 108 108 106 105 104 103 108 114 122 124 128 131 117 104 95 85 77
76 76 74 70 74 73 81 84 89 93 93 88 87 90 88 91 88 95 98 97 100 109 104 103 102 106 115 118 114 114 110 110 118 126 129 132 132 122 112 99 93 80 74
63 68 75 82 89 85 86 88 92 92 92 87 88 95 98 101 101 99 103 107 106 117 109 108 107 112 118 114 118 116 116 117 128 134 134 134 130 115 104 97 86 79 73
100 93 92 83 86 86 87 89 92 92 94 98 97 103 100 103 108 102 105 112 118 119 109 115 117 123 120 125 122 127 124 129 135 137 136 131 118 109 96 91 80 75 69
91 94 93 90 88 90 89 89 92 95 98 99 99 99 100 101 107 112 116 111 112 118 118 114 124 125 129 131 129 132 138 138 140 140 130 123 115 107 94 82 76 71 68
100 95 91 91 93 96 95 91 91 92 94 98 102 106 117 113 114 118 122 119 113 117 118 126 126 127 130 130 138 140 141 142 138 133 126 120 111 97 87 78 74 70 67
95 90 91 94 98 99 101 105 103 108 113 112 111 109 119 111 112 118 126 134 136 135 129 129 132 132 132 139 146 146 137 141 133 128 121 111 96 86 80 74 70 66 65
119 118 117 120 122 121 122 120 122 126 126 118 118 121 120 122 123 133 137 138 134 132 134 147 142 138 144 153 155 150 142 131 123 118 105 96 89 81 75 70 65 63 61
133 135 131 128 131 135 135 134 133 128 124 132 135 133 134 132 144 139 133 133 140 140 142 143 144 149 151 154 150 138 131 123 113 100 93 88 80 75 70 67 64 61 60
142 140 138 141 137 136 132 133 144 144 140 142 137 135 138 147 139 138 139 141 144 146 150 150 151 150 160 162 142 128 115 105 99 95 88 82 76 70 66 63 61 60 57
140 144 144 143 143 142 147 148 148 147 149 144 144 144 142 144 142 144 147 151 149 151 154 159 159 161 166 136 119 109 103 99 98 90 83 74 67 64 61 60 58 57 53
143 146 144 147 151 153 150 148 147 145 145 148 149 151 154 145 149 154 158 160 159 156 158 160 156 149 127 113 106 104 101 97 89 79 70 65 60 57 56 54 52 51 49
153 154 155 153 153 149 151 149 150 150 153 151 156 157 157 160 164 159 158 163 163 164 159 153 132 120 111 106 102 97 93 83 74 69 63 58 54 53 51 50 48 46 44
158 162 157 158 159 155 160 160 160 159 162 167 165 161 165 162 170 172 160 168 161 144 128 119 112 109 102 96 91 82 73 67 61 55 52 49 45 44 42 42 41 39 38
164 163 165 168 171 169 166 167 166 167 169 172 172 176 172 150 159 161 142 131 122 114 108 105 101 96 91 82 73 67 61 53 48 46 43 41 38 35 31 32 33 34 34

GFSMA_250_spd_081.txt.gz
Wind_Speed
54 54 55 53 49 46 46 50 52 52 51 50 47 46 44 43 40 46 47 48 45 42 43 45 49 54 49 56 60 62 62 67 67 72 76 71 72 72 72 75 81 90 97
54 50 51 57 58 57 53 56 54 54 52 50 47 42 38 39 46 48 48 46 48 45 44 47 53 57 56 61 61 66 70 66 70 72 73 69 77 72 77 77 84 90 99
58 53 57 62 57 54 56 62 58 57 52 49 46 42 43 47 50 50 48 45 48 49 50 57 58 62 62 63 64 71 73 71 72 74 71 80 77 77 84 82 82 95 102
54 58 58 56 54 49 59 58 56 55 53 54 51 48 51 51 52 53 51 51 48 53 63 63 65 64 67 69 69 70 74 76 76 75 74 87 82 80 81 82 84 102 107
56 55 54 55 58 60 62 61 60 57 56 56 50 54 55 56 59 54 50 52 55 63 66 70 70 70 71 70 72 71 75 75 71 71 79 82 78 75 82 82 95 105 113
65 61 61 61 61 61 62 61 60 56 51 56 58 59 58 63 64 64 65 68 69 67 66 67 70 73 69 70 69 75 81 76 72 74 80 83 84 83 90 94 102 111 117
66 58 57 65 61 61 61 63 60 58 58 62 64 69 74 72 72 63 70 67 74 71 71 77 73 73 71 61 73 81 84 80 79 80 87 87 97 97 102 104 111 119 123
60 63 63 60 61 61 57 60 61 63 66 70 74 77 77 72 73 76 77 75 76 77 77 80 81 74 69 76 78 85 83 86 85 86 90 95 96 100 103 111 117 121 122
56 65 66 63 61 62 62 63 66 69 73 75 71 76 81 83 74 73 71 79 81 81 84 82 76 74 79 84 85 85 88 92 95 94 98 100 101 100 106 108 119 120 125
72 71 69 66 65 66 67 67 67 72 76 72 77 75 73 69 77 78 85 89 86 81 85 78 76 83 88 86 87 88 96 97 97 98 100 107 107 112 111 117 125 128 123
76 77 75 72 70 71 70 70 70 66 62 64 68 70 73 74 72 86 87 90 88 91 84 82 86 80 85 90 90 99 92 95 102 101 111 110 112 122 115 119 129 130 122
80 79 78 78 76 73 71 68 68 59 56 64 77 76 79 80 90 96 94 96 95 94 91 87 87 87 91 90 93 91 98 100 110 118 115 117 118 117 121 130 133 137 137
85 86 85 85 80 78 82 81 75 65 67 72 81 85 91 94 99 98 100 99 96 96 95 93 94 95 98 93 94 103 101 111 117 122 115 114 121 125 130 132 132 141 117
90 90 88 89 86 85 88 88 85 87 82 81 84 85 90 93 101 101 103 98 97 95 98 95 100 99 97 105 118 106 114 114 123 127 127 123 127 131 132 139 139 142 105
88 89 87 87 87 85 87 91 86 83 81 79 93 98 96 100 99 99 100 102 99 101 98 98 99 99 116 111 99 108 113 121 134 123 127 128 132 135 140 140 144 116 90
92 94 90 88 89 90 89 84 85 90 92 96 89 95 100 94 106 103 102 102 101 101 96 100 104 115 114 103 115 117 122 128 130 129 133 138 137 140 139 139 122 98 78
101 104 104 97 94 93 94 92 88 87 93 96 99 93 99 103 102 103 105 106 107 98 110 108 119 119 112 116 123 130 129 136 135 140 140 142 148 151 146 139 102 82 75
100 104 102 101 97 104 103 101 103 103 97 98 97 96 103 102 104 103 108 103 109 107 112 111 123 126 115 118 139 144 135 139 139 143 150 152 154 134 124 100 89 81 73
99 100 98 98 100 99 100 101 103 104 105 107 107 106 105 104 109 108 106 110 109 112 130 125 125 125 134 147 146 143 137 143 145 151 153 142 129 116 102 92 85 79 72
112 104 100 102 100 100 104 112 112 111 109 111 113 112 111 110 103 112 116 122 115 121 123 135 133 138 147 142 142 147 148 155 156 145 132 133 113 101 96 88 81 71 64
115 113 119 118 121 121 124 120 115 113 115 112 112 110 109 112 113 116 126 126 135 136 144 145 140 145 144 145 147 148 147 148 121 134 128 110 104 96 89 81 69 59 54
128 125 120 117 117 121 124 126 133 134 132 133 144 144 144 144 140 144 142 146 145 146 146 147 149 151 150 151 146 129 138 148 140 142 115 105 97 89 76 66 60 54 49
148 146 150 147 147 140 136 131 127 132 139 138 136 136 142 146 147 145 142 144 150 148 150 152 148 148 143 137 150 158 146 148 135 115 108 98 85 73 65 59 52 48 46
157 149 152 155 155 155 150 150 149 149 151 153 155 155 155 149 149 148 150 155 151 156 148 150 154 155 156 153 154 149 139 119 111 103 94 81 72 62 53 48 44 40 38
152 152 154 154 154 157 156 155 155 152 151 155 155 151 154 155 146 152 148 153 154 159 159 147 158 159 159 155 144 136 116 107 97 90 79 67 55 49 44 40 36 33 33
157 161 160 159 158 156 157 161 163 162 159 160 155 163 164 155 160 158 156 156 156 161 158 157 161 159 149 149 121 111 100 92 84 76 63 53 49 44 39 33 31 30 30

GFSMA_250_spd_084.txt.gz
Wind_Speed
54 53 56 54 54 52 53 49 51 51 49 49 50 48 49 48 47 46 40 34 36 39 38 39 41 43 45 49 60 62 60 63 68 64 65 71 69 63 65 69 74 76 82
59 60 59 51 49 51 50 47 52 56 54 55 57 56 52 50 47 47 46 39 41 39 39 40 43 43 49 56 60 61 63 66 67 64 60 69 73 65 73 78 83 84 93
61 60 62 62 60 57 56 53 60 59 57 60 61 57 59 49 49 47 45 48 44 41 40 43 45 46 53 56 58 63 64 65 65 66 69 72 72 74 79 89 87 93 96
58 56 56 56 61 57 58 56 60 60 56 60 56 56 53 51 52 49 52 51 48 48 50 51 54 52 56 61 67 67 66 62 70 64 71 77 75 76 83 89 90 91 91
52 54 53 56 53 54 59 60 60 58 58 56 59 58 58 56 57 55 58 55 55 59 55 60 56 54 62 69 73 68 68 67 69 75 73 74 74 83 87 91 99 97 98
57 60 59 54 54 56 58 58 59 56 61 61 59 57 60 58 60 61 58 58 56 59 63 62 70 66 68 73 73 76 72 67 69 76 70 78 83 83 86 92 102 99 105
65 57 60 61 62 64 60 63 63 61 63 61 60 62 63 62 65 59 60 65 59 65 68 69 72 71 72 80 78 79 67 68 72 75 66 88 89 81 85 95 101 102 105
57 61 66 63 67 67 67 66 68 64 64 60 58 60 65 66 66 68 71 70 71 73 76 79 76 77 79 78 74 73 71 72 75 72 75 92 77 86 90 97 102 110 108
65 67 65 65 64 65 67 66 60 62 65 63 64 64 66 68 69 75 76 75 77 80 81 80 78 81 80 78 75 73 71 74 76 72 79 96 84 86 98 100 107 114 114
63 61 61 61 57 63 65 67 67 68 66 65 67 69 68 70 74 79 80 82 87 84 83 81 84 85 78 79 78 79 75 78 75 75 86 102 89 91 101 109 113 118 121
72 70 70 68 66 64 68 72 73 73 74 70 69 71 74 75 77 78 77 88 85 77 84 84 88 85 83 84 89 82 78 76 75 81 93 100 92 91 108 119 116 122 121
78 72 77 78 74 75 72 70 69 71 72 74 77 77 80 81 80 71 78 83 82 87 88 89 91 86 89 84 91 85 83 80 82 90 93 99 95 98 111 123 125 126 126
82 79 79 79 81 81 80 75 72 74 75 76 79 80 85 83 86 88 83 79 87 92 90 94 95 93 92 90 93 88 88 88 90 93 96 98 90 108 119 126 128 129 131
85 87 85 88 83 83 79 75 82 85 83 85 87 88 87 87 89 90 86 94 94 96 98 98 96 95 94 99 99 91 93 93 91 94 100 88 108 120 128 132 137 128 117
88 89 90 92 90 89 91 93 87 86 87 87 88 89 90 91 92 93 96 94 99 97 98 102 96 98 101 98 103 97 93 99 99 101 98 98 110 130 130 131 140 138 129
92 90 93 93 90 86 89 93 90 87 91 95 95 93 93 90 91 93 96 100 99 97 102 103 105 102 105 104 99 101 99 101 106 105 100 114 126 135 133 139 141 140 150
106 105 105 106 110 107 109 107 95 90 91 92 96 93 95 95 99 99 100 99 101 103 106 106 107 107 108 106 109 106 105 109 103 111 121 124 136 139 140 137 148 139 131
113 107 104 101 98 99 94 97 100 99 97 97 99 95 97 102 101 101 100 98 102 101 107 109 108 108 111 108 108 106 109 102 117 117 124 138 142 146 147 145 153 133 108
108 105 97 99 105 105 104 101 102 105 105 102 101 101 97 97 102 105 107 104 108 106 106 110 109 107 112 112 111 111 111 113 122 138 139 135 143 142 151 145 140 122 99
100 107 101 102 103 102 107 102 104 102 105 104 105 106 104 107 110 112 113 112 109 109 108 110 113 116 115 114 117 108 122 127 138 139 139 139 135 144 145 146 140 104 97
110 108 106 108 113 107 106 105 103 105 107 107 107 111 111 105 112 115 114 113 114 110 113 112 116 117 113 122 127 135 137 136 145 139 142 140 143 146 146 137 117 101 84
111 116 119 114 108 107 107 116 117 117 119 120 120 118 118 117 115 115 115 114 113 111 115 114 125 129 136 141 135 128 141 145 140 136 142 146 147 141 135 125 106 88 74
120 118 118 117 117 126 124 119 119 120 124 127 128 124 125 123 120 117 117 123 126 130 133 131 133 133 135 139 139 146 139 138 142 141 142 144 150 138 131 103 92 75 59
143 146 140 133 134 137 135 128 125 124 127 125 125 126 128 129 126 133 132 134 133 131 132 134 138 145 153 148 149 148 147 148 146 151 141 135 129 124 102 89 76 61 53
148 151 150 150 151 148 145 143 147 152 143 137 132 132 137 137 138 137 136 141 147 152 157 156 149 152 142 144 150 157 153 143 142 128 137 135 119 97 90 77 63 55 49
160 166 172 172 173 172 175 163 164 161 158 152 150 153 152 150 150 155 158 165 162 158 152 150 151 155 150 142 141 145 143 134 115 136 129 106 90 86 78 63 55 48 41

GFSMA_250_spd_087.txt.gz
Wind_Speed
59 62 62 58 53 52 52 51 51 54 52 49 44 46 50 50 50 51 49 48 46 45 43 42 38 38 35 37 39 42 44 50 57 62 69 59 58 57 69 58 63 69 73
66 62 62 60 56 53 52 48 46 48 49 50 48 48 56 55 54 56 54 55 50 45 47 46 43 45 45 40 41 43 52 59 62 66 67 60 60 59 64 67 68 67 75
70 64 59 61 61 60 59 62 58 58 55 58 56 50 60 59 55 56 55 54 47 47 49 51 53 53 49 48 47 49 56 55 62 65 69 67 61 62 62 75 65 66 77
62 65 67 69 64 65 66 59 58 59 55 58 59 53 62 62 56 55 51 53 52 52 56 54 54 54 55 55 51 53 59 60 68 70 68 67 59 61 67 74 69 65 69
61 61 64 65 65 63 59 55 56 60 55 57 56 62 61 59 58 52 53 51 54 55 56 59 60 61 58 54 58 61 63 69 71 68 71 65 59 59 69 74 73 69 69
63 61 57 61 62 64 62 60 54 55 55 59 59 60 62 57 57 54 55 55 56 58 61 64 63 63 62 62 62 64 68 69 72 67 68 64 63 64 68 73 73 70 70
62 62 63 59 60 57 61 60 55 59 61 60 62 63 64 68 62 62 58 58 59 62 64 69 68 66 68 69 68 70 73 70 74 65 70 64 64 66 69 71 76 76 68
60 59 60 59 59 60 65 59 60 63 66 66 69 71 71 72 69 63 61 59 60 64 67 67 71 73 74 73 71 78 75 72 75 64 69 68 65 67 70 69 72 71 74
69 66 60 62 60 61 67 59 64 71 75 73 70 68 67 67 65 61 64 63 65 64 71 73 74 74 76 78 75 73 77 77 73 67 70 75 72 70 66 72 77 78 84
74 69 67 69 69 67 60 62 63 69 70 70 71 71 69 67 67 66 68 69 71 75 77 76 76 76 82 78 74 74 76 75 77 70 73 78 72 73 74 79 80 79 85
81 73 74 69 69 68 67 72 74 78 75 74 77 77 74 70 70 73 73 76 75 78 79 83 80 82 79 77 76 78 78 78 77 76 80 82 78 80 78 82 81 79 81
79 82 83 77 75 72 73 70 74 74 71 68 66 66 71 76 79 80 78 77 82 82 83 86 83 84 83 82 79 79 84 81 81 80 81 83 85 82 84 84 81 75 102
89 91 88 84 78 76 77 78 79 78 75 73 71 69 72 73 76 78 79 85 84 86 86 86 84 87 86 86 85 86 88 85 85 86 86 82 86 89 90 87 84 82 99
97 91 90 92 86 84 84 85 84 80 82 81 83 82 84 79 82 82 84 89 86 88 89 89 89 88 87 89 90 91 92 89 88 86 89 85 90 91 94 91 83 95 114
101 96 92 92 92 90 89 93 91 89 86 88 83 82 85 85 86 87 88 89 88 93 93 92 90 90 92 92 96 93 95 102 92 90 89 90 94 95 91 93 93 109 119
100 102 101 101 98 98 99 93 93 91 89 93 91 90 87 91 91 89 86 91 91 93 95 94 95 95 96 98 98 101 103 101 97 97 98 96 98 102 99 103 103 119 125
97 99 106 102 100 102 103 107 105 101 96 95 96 92 93 92 88 88 93 100 97 95 93 95 97 97 97 101 104 107 106 99 100 102 103 100 101 101 102 105 113 125 125
112 110 106 106 104 105 106 105 109 105 108 105 102 102 100 100 103 106 110 107 99 104 101 101 101 101 107 105 106 105 103 101 104 102 105 105 103 102 116 113 124 127 128
117 118 113 108 107 110 111 112 113 112 108 110 109 108 110 111 115 116 115 118 116 115 113 117 110 109 109 107 100 101 106 105 103 104 105 109 107 106 118 122 129 132 126
119 119 117 114 115 112 116 119 121 121 119 118 119 120 123 121 119 119 113 115 111 109 112 108 105 104 110 106 103 101 108 107 110 109 110 111 114 120 120 131 134 128 128
114 120 120 120 120 119 119 118 119 120 122 126 125 122 116 118 108 108 112 108 112 113 104 106 108 107 105 105 106 110 109 108 113 117 118 120 123 120 136 140 137 132 131
112 115 119 112 122 121 124 124 120 119 128 122 109 114 111 110 113 113 112 110 107 113 104 111 110 109 113 113 113 113 112 117 116 122 126 127 124 138 144 133 130 130 131
119 118 120 127 125 122 121 126 123 125 122 123 120 119 118 119 121 117 115 115 114 113 117 113 114 120 118 120 119 125 120 121 122 127 135 133 136 147 145 140 134 133 122
128 131 134 131 128 127 127 126 127 126 128 126 126 125 124 122 128 120 114 120 123 118 114 123 122 121 128 122 125 123 129 129 130 135 141 140 144 146 140 136 125 113 109
135 142 142 143 142 141 141 140 138 138 135 137 132 132 134 136 133 132 123 123 124 132 139 130 128 131 119 124 133 141 134 137 148 148 152 144 150 147 147 133 117 118 101
157 155 154 153 152 152 155 151 151 150 149 148 146 140 142 136 135 142 141 126 128 136 132 134 141 134 138 151 148 138 143 148 148 156 140 137 143 139 120 111 109 87 75

GFSMA_250_spd_090.txt.gz
Wind_Speed
64 66 63 62 64 61 58 56 55 52 49 48 50 49 48 49 44 48 47 46 45 47 50 49 46 46 48 46 47 47 50 45 42 45 45 57 62 61 62 61 58 57 56
67 64 72 64 62 63 61 60 58 55 53 51 49 52 54 51 47 52 52 49 49 50 50 53 49 44 46 47 49 52 53 50 51 47 51 57 60 63 68 62 59 53 55
69 69 66 62 61 60 59 59 60 59 58 56 57 61 63 55 54 50 59 57 56 50 51 53 47 47 49 50 52 53 54 57 61 53 54 64 63 61 67 64 57 57 55
68 66 67 70 69 65 65 60 58 59 61 62 62 63 59 58 59 58 58 60 55 52 52 51 47 50 48 51 52 55 58 61 61 58 57 62 64 63 69 65 60 56 56
65 67 70 70 66 66 66 65 65 66 66 66 66 61 55 56 55 63 63 60 55 52 52 51 51 51 50 52 54 52 56 62 63 65 59 61 64 65 66 69 57 59 57
64 67 65 61 58 55 61 65 64 66 69 68 64 59 58 59 60 62 63 60 60 54 55 55 56 55 56 57 55 58 59 64 62 65 64 61 67 62 66 65 59 64 58
56 69 68 65 60 55 60 61 59 61 66 66 54 60 65 61 61 62 63 60 60 59 59 64 66 64 60 57 57 58 64 65 62 65 66 62 66 58 65 60 58 61 60
65 61 69 64 67 58 61 62 62 60 59 57 59 64 68 62 66 68 67 67 65 64 64 63 65 65 60 59 59 63 62 67 66 68 67 65 61 64 66 63 57 62 64
71 69 71 66 68 62 63 60 63 64 64 60 68 67 61 66 71 70 71 69 72 69 68 71 73 67 65 64 62 69 65 70 66 69 68 68 67 68 69 67 62 67 66
71 77 82 77 74 68 69 66 62 59 63 68 68 72 62 67 69 73 76 76 72 72 74 73 69 66 69 70 68 70 70 70 71 70 73 68 70 71 77 66 74 66 69
79 86 85 85 80 82 76 76 71 68 71 71 74 70 72 72 72 76 76 74 72 69 72 65 69 72 74 74 71 76 72 72 72 78 74 76 71 73 79 79 71 75 73
82 91 81 83 83 85 83 89 89 80 77 78 69 78 79 78 79 75 76 81 76 69 65 70 76 78 78 79 76 76 78 77 79 79 75 77 77 76 85 80 76 74 71
89 87 87 84 81 82 81 83 82 81 80 82 81 81 79 78 79 77 69 66 72 72 72 78 80 84 82 80 82 82 78 80 78 79 81 81 81 87 83 82 81 73 76
96 89 90 92 88 80 80 81 83 83 78 84 81 81 82 83 83 84 86 88 82 84 82 85 85 82 84 86 82 75 80 81 81 83 86 88 88 92 89 90 89 80 78
90 95 98 94 84 82 92 93 97 91 88 88 88 82 84 83 89 90 85 80 78 82 87 83 87 87 86 86 80 86 92 87 87 90 101 93 96 92 93 97 96 84 87
100 99 94 101 97 98 102 106 100 101 97 98 90 87 88 90 87 88 90 91 90 88 87 85 88 89 88 83 90 92 91 93 95 99 101 100 98 97 98 94 90 89 90
100 105 103 103 103 103 105 103 106 105 95 98 99 93 95 97 97 102 101 94 93 91 92 94 91 89 92 97 96 99 99 102 100 101 102 101 102 98 99 94 94 95 92
99 102 101 102 103 108 110 113 117 111 109 105 106 97 102 103 104 103 109 110 105 103 101 101 101 101 102 103 102 102 99 99 103 101 106 98 98 100 97 101 98 99 104
99 105 107 104 107 111 114 114 115 114 111 115 109 102 99 103 109 108 110 108 107 104 105 104 105 107 109 108 107 109 107 102 107 105 105 101 96 100 97 98 99 103 108
115 111 113 115 110 114 118 118 115 117 115 119 118 117 118 115 114 113 111 117 119 119 114 117 114 116 115 114 115 115 112 120 110 109 107 104 103 105 105 102 108 108 107
113 110 116 121 117 118 121 123 124 122 126 123 123 119 124 126 123 124 122 122 123 123 122 123 126 125 125 124 125 124 118 104 108 107 102 105 106 112 110 113 111 114 108
108 110 107 118 118 124 127 128 128 130 126 125 125 124 126 131 132 129 128 130 127 126 126 124 126 124 125 128 113 109 112 108 104 107 109 111 113 117 114 120 123 126 124
108 108 110 114 116 116 122 129 135 130 131 121 123 130 135 132 127 125 125 126 121 122 119 115 111 108 113 106 104 107 109 111 114 115 113 115 117 120 127 127 125 129 134
127 129 129 131 133 127 126 125 127 128 127 127 125 123 129 128 131 126 129 126 121 122 123 113 115 112 110 110 109 113 115 115 117 119 116 118 123 123 134 136 136 139 136
141 147 155 152 152 151 153 147 146 143 137 136 134 138 136 131 131 133 131 123 126 127 122 126 125 120 119 115 118 115 122 121 122 120 120 127 127 138 139 138 141 138 134
136 139 140 144 149 163 165 164 159 154 149 149 147 143 138 138 141 137 134 132 130 130 131 130 132 127 126 127 124 130 123 127 122 122 128 137 135 137 140 134 125 119 108

GFSMA_250_spd_093.txt.gz
Wind_Speed
70 70 75 76 73 69 65 64 62 59 55 54 54 53 50 49 47 48 46 48 44 37 44 46 49 49 47 46 46 45 43 45 48 48 49 53 56 58 57 61 63 62 61
74 71 71 76 75 70 66 67 68 63 60 57 58 58 55 53 51 51 51 52 53 49 46 46 48 49 47 43 47 45 45 43 46 46 45 51 56 55 57 60 59 63 59
70 74 60 74 74 62 74 60 61 63 65 63 61 60 59 58 58 58 56 56 55 59 60 57 52 48 50 45 45 45 45 46 44 45 49 53 55 56 59 59 61 63 61
69 73 74 72 72 71 70 69 71 68 68 64 63 61 62 61 61 62 62 62 59 57 54 59 58 53 50 49 45 47 46 49 51 50 46 52 57 58 56 63 60 61 61
69 71 73 74 65 66 67 71 66 66 65 61 62 63 61 64 65 65 60 59 62 63 65 61 57 54 51 48 50 50 50 55 57 53 45 48 49 58 59 62 62 64 62
71 73 71 71 72 67 73 70 75 73 69 69 66 66 67 67 68 66 68 61 61 58 63 60 57 54 51 49 53 57 59 60 57 51 51 51 51 56 58 62 64 64 62
75 74 75 75 77 77 75 71 71 74 74 75 67 65 69 68 65 64 66 65 60 61 63 62 57 58 53 53 57 62 63 61 56 52 50 53 53 57 59 62 65 66 63
74 76 77 74 68 63 72 72 76 73 69 65 59 59 62 62 61 61 55 61 59 62 63 63 64 60 55 58 66 62 62 61 55 56 60 58 59 62 61 62 66 66 68
72 73 72 73 68 57 60 67 65 70 69 72 67 66 67 64 66 62 60 65 68 69 68 68 69 64 64 65 67 63 61 57 60 59 62 65 64 64 64 65 66 68 69
66 69 70 71 70 63 67 63 69 73 74 73 67 67 67 69 68 70 67 70 72 71 65 64 69 66 63 62 65 68 64 58 62 64 65 69 69 70 66 65 68 71 76
70 72 74 73 77 72 74 75 66 72 72 67 74 73 71 71 72 72 72 71 74 73 74 75 70 66 68 66 74 61 58 60 64 71 70 70 72 69 69 71 70 76 77
65 73 73 77 74 72 72 79 73 72 74 73 77 76 79 81 80 79 74 69 75 69 71 71 74 74 70 65 62 66 66 68 73 72 73 71 72 73 75 73 73 75 81
72 74 75 76 84 85 80 80 86 84 82 85 84 89 85 87 89 86 79 82 79 80 77 74 76 76 77 76 71 78 76 74 78 74 74 75 76 76 75 77 79 83 80
69 79 88 90 89 87 90 92 93 95 92 95 94 94 93 93 91 90 82 78 79 81 77 73 79 79 79 81 83 85 78 79 77 81 81 79 77 78 82 85 85 84 88
82 79 80 85 86 89 86 87 87 92 94 99 97 97 99 98 89 81 81 81 83 80 84 80 80 82 83 87 81 81 82 84 83 80 80 78 82 87 90 93 87 97 90
88 89 90 87 92 94 96 88 87 89 91 95 97 94 96 83 89 91 90 90 91 88 90 84 81 83 85 87 89 88 86 83 87 91 90 90 90 93 96 100 100 98 94
87 86 89 96 97 95 93 93 96 99 98 99 98 96 94 93 94 87 94 93 95 96 92 86 87 88 90 91 88 89 91 92 93 93 93 96 100 103 104 105 109 96 87
88 86 87 88 94 94 94 100 99 101 99 100 99 105 97 102 104 102 96 98 91 97 96 99 97 93 93 95 94 93 96 99 99 101 103 107 107 108 111 108 92 94 86
97 91 91 97 96 96 101 103 107 104 106 113 115 116 116 113 105 107 109 107 102 104 104 103 103 101 97 100 104 101 101 102 105 105 107 109 112 110 108 103 85 94 89
103 99 99 99 105 103 103 106 107 109 112 118 123 122 124 115 111 110 110 107 110 105 107 110 104 108 106 106 112 110 112 108 111 114 114 114 116 113 105 94 89 94 92
104 108 103 104 107 110 109 105 109 114 114 111 114 115 110 117 122 120 119 118 119 123 125 123 116 114 116 118 119 116 120 119 120 120 121 123 115 102 99 95 98 96 100
97 93 93 106 108 111 114 117 119 119 120 126 119 118 119 120 122 125 125 121 122 117 117 117 121 124 126 126 129 118 117 121 119 118 109 111 104 102 99 100 101 104 106
110 111 102 101 108 117 121 116 116 118 124 130 125 126 126 123 125 130 133 129 124 125 127 128 127 122 126 126 123 129 113 118 105 104 107 100 101 103 104 106 107 110 111
95 111 128 125 126 128 128 133 138 132 132 132 128 131 132 130 132 133 131 126 128 127 125 127 122 120 118 122 113 111 114 108 106 109 108 106 106 109 108 112 112 117 119
80 87 100 114 131 141 151 147 146 149 146 143 152 144 140 137 134 135 134 130 125 121 128 126 127 127 127 115 118 114 118 114 117 112 109 112 116 115 119 117 116 119 123
88 91 100 109 119 128 137 149 158 160 162 158 159 151 157 151 146 144 138 135 134 130 129 126 125 124 124 122 123 121 122 123 121 116 116 115 115 120 121 119 126 130 123

GFSMA_250_spd_096.txt.gz
Wind_Speed
63 66 73 70 61 66 74 74 72 68 65 63 62 60 56 52 51 53 53 50 46 46 45 47 45 44 46 43 41 41 42 45 40 41 39 38 37 40 39 39 45 49 53
58 55 66 71 74 68 67 75 76 74 71 66 62 64 65 61 57 55 56 55 53 51 52 52 50 48 52 52 55 55 49 48 41 40 39 39 42 42 36 36 38 46 50
51 60 54 62 65 69 73 72 75 77 76 73 68 64 66 66 64 62 60 59 58 57 55 57 52 54 57 60 57 49 49 46 43 43 40 42 49 49 40 41 40 44 46
50 48 61 65 68 68 69 70 68 69 78 78 72 65 64 71 71 66 65 61 60 59 59 60 61 59 59 59 57 52 44 46 45 45 47 48 51 48 44 42 42 44 47
59 52 52 59 64 70 72 70 67 62 72 76 76 70 60 61 72 69 63 60 61 61 60 61 58 59 64 61 56 52 49 47 44 46 50 53 53 47 42 43 47 50 49
64 57 58 59 60 61 66 71 70 66 64 72 72 70 70 65 63 66 64 62 66 65 62 60 64 62 65 61 59 54 52 49 49 50 53 54 52 46 46 50 52 54 55
67 61 59 58 63 57 61 67 75 80 73 74 72 72 71 71 69 68 68 72 72 71 72 70 55 59 58 55 55 55 57 55 52 54 54 52 54 49 50 52 54 56 60
69 69 64 63 68 63 60 69 71 69 75 76 74 72 64 69 71 75 71 69 65 58 53 62 60 65 66 63 60 60 61 56 53 51 52 52 57 52 54 53 56 60 61
73 75 72 70 70 73 65 69 68 71 69 77 76 74 75 75 77 78 74 74 74 69 67 69 64 63 63 66 66 66 58 55 55 51 51 55 52 53 55 55 60 62 60
79 79 77 75 72 71 69 69 71 72 73 79 81 72 76 75 76 78 79 78 70 73 71 71 70 66 67 68 69 64 60 61 56 51 59 57 52 53 62 60 63 61 64
84 81 77 78 71 69 68 71 70 65 71 70 77 68 69 71 74 77 71 78 78 71 69 71 71 68 68 68 67 68 65 61 62 60 58 56 61 67 65 68 68 65 70
81 81 82 76 67 67 70 66 69 67 71 65 63 73 76 75 70 71 73 75 76 75 75 72 69 69 71 70 72 72 69 65 61 65 64 66 67 69 65 68 68 67 71
83 80 74 67 63 65 66 67 62 73 74 77 72 72 77 81 80 77 79 77 75 74 75 76 76 77 76 76 72 72 69 64 64 65 72 71 73 67 67 70 68 73 70
70 63 59 55 58 65 66 69 73 76 74 80 81 82 78 77 83 82 79 82 82 81 81 80 84 80 79 70 75 74 72 74 75 75 71 72 76 73 71 73 72 72 74
53 49 55 57 58 65 66 70 76 78 82 86 84 87 85 86 87 89 90 91 88 91 87 88 90 86 80 74 79 78 77 75 72 75 75 73 74 75 76 70 74 75 84
47 51 57 63 68 62 68 75 80 86 86 87 92 92 95 95 95 95 96 98 96 95 95 85 90 92 86 85 88 91 88 82 81 76 77 76 74 78 78 83 85 88 86
53 58 59 62 73 74 76 82 84 85 83 89 92 93 100 100 105 104 105 104 101 101 92 92 97 93 86 88 87 89 88 81 81 80 80 82 88 88 87 82 86 92 96
57 65 71 73 72 77 83 86 82 82 86 85 90 90 93 94 99 102 99 100 97 93 95 95 88 85 90 90 90 89 82 82 89 87 88 87 86 88 86 88 90 96 104
62 68 79 78 82 82 85 84 87 91 88 91 92 96 98 99 101 98 99 100 103 106 94 91 87 93 94 97 96 90 94 97 98 101 102 86 88 91 95 97 97 90 96
63 66 67 78 92 92 89 88 90 93 96 98 100 100 96 98 102 104 104 100 99 99 100 93 97 101 95 98 106 105 99 95 89 93 93 94 97 100 107 110 107 105 108
62 74 77 75 85 88 91 96 94 96 100 102 105 107 104 107 110 107 107 110 110 109 107 107 98 98 104 104 105 108 103 102 104 104 104 105 111 113 112 114 114 108 103
63 68 80 87 97 92 90 95 101 100 100 102 110 113 116 119 120 121 116 113 118 114 113 116 113 104 106 110 110 113 116 113 112 115 120 122 116 119 117 120 109 103 99
68 79 81 78 96 110 110 112 110 107 106 109 113 116 119 125 124 122 123 128 128 128 122 114 106 107 110 110 111 113 114 110 116 118 112 111 111 104 102 98 99 99 94
59 64 69 75 82 93 104 115 125 135 134 132 131 132 130 125 125 127 128 122 117 120 120 121 117 109 110 116 108 104 109 111 109 108 108 105 103 100 91 95 101 100 99
63 68 75 84 92 98 103 105 112 123 133 147 153 149 150 151 152 146 135 132 130 130 124 121 121 118 119 119 117 115 113 112 111 111 113 107 101 106 106 105 103 100 103
69 75 79 86 93 99 100 115 115 122 129 137 143 156 163 161 166 160 157 149 142 139 136 133 133 130 126 120 119 118 116 114 117 123 123 113 110 109 106 112 107 109 117

GFSMA_250_spd_099.txt.gz
Wind_Speed
50 53 54 53 55 57 60 62 60 61 65 74 74 71 68 66 63 60 57 56 54 54 53 51 48 44 46 47 48 49 52 49 47 45 43 44 39 36 34 39 42 39 33
53 51 48 48 53 53 54 60 61 63 62 62 71 76 73 70 69 65 63 61 58 56 57 56 55 51 49 53 54 55 56 52 50 47 45 41 40 37 38 40 42 40 37
62 56 57 54 56 56 50 57 58 57 57 57 61 68 77 75 72 69 66 64 64 64 62 58 59 56 49 51 54 55 58 58 54 50 48 42 43 42 41 42 42 37 37
64 59 59 62 57 58 57 54 59 59 60 60 59 62 69 79 78 77 73 68 64 64 65 65 64 60 54 49 53 55 57 58 55 52 43 45 43 45 45 47 42 40 41
67 66 62 61 58 58 54 50 56 61 62 61 65 64 62 67 75 78 79 72 65 62 60 61 63 58 57 59 57 58 63 64 60 59 52 44 45 48 49 50 43 43 42
71 66 66 65 62 61 62 57 52 57 56 58 58 65 61 60 63 68 72 76 69 65 58 56 56 61 64 65 67 63 64 68 63 57 51 48 45 47 50 45 44 44 46
70 71 71 71 67 64 64 62 58 56 53 56 61 59 61 65 64 63 66 70 69 70 69 64 62 64 61 54 55 59 72 69 59 56 52 50 46 46 47 47 47 45 44
74 73 73 73 69 68 65 65 63 63 61 62 58 62 62 62 65 68 66 67 72 70 69 70 67 71 71 69 73 73 67 64 56 57 55 50 45 44 48 47 48 46 47
76 72 73 70 73 69 66 71 69 64 69 66 62 61 64 63 72 72 72 67 68 67 70 73 75 77 76 71 73 69 66 65 61 60 53 53 49 50 48 51 49 48 48
75 71 70 72 75 73 69 73 71 71 70 67 69 58 63 70 69 69 70 60 71 74 77 76 77 78 82 78 77 71 64 66 63 60 62 57 53 52 50 53 53 53 57
79 75 72 74 76 74 75 78 74 72 70 69 70 61 63 65 62 69 73 73 75 76 75 72 81 77 74 71 72 69 63 60 61 59 58 58 59 61 56 52 55 57 62
86 80 76 77 76 74 74 77 77 74 77 75 71 65 68 71 68 68 66 70 65 72 72 73 73 72 74 70 68 68 66 66 67 63 65 65 65 60 57 58 58 57 63
84 84 81 79 78 78 76 77 78 76 79 74 69 67 69 64 74 76 76 76 78 81 78 78 76 74 71 69 71 70 70 71 69 68 64 64 63 61 58 58 60 60 64
80 81 81 80 81 79 80 80 82 80 71 68 65 70 70 69 75 78 71 71 71 77 81 79 74 77 77 77 71 76 77 74 76 76 73 64 65 67 68 68 69 66 60
74 74 78 77 81 83 80 75 68 63 63 68 73 75 74 72 75 76 82 77 77 78 76 81 83 82 80 78 80 83 82 82 81 65 68 67 76 71 76 70 71 66 69
67 69 72 72 71 67 63 59 56 51 55 64 73 77 81 82 80 83 82 81 86 88 85 85 85 81 84 85 86 90 89 90 84 75 78 82 85 83 83 74 72 67 71
57 58 57 57 55 51 55 57 58 57 59 64 73 77 80 81 83 86 87 91 92 95 96 95 91 91 96 96 94 93 96 96 96 90 91 88 78 84 75 74 66 71 77
51 51 52 55 55 58 59 60 62 67 65 67 71 77 82 84 85 87 90 94 99 99 100 96 95 95 96 99 102 101 102 99 103 101 94 85 85 80 76 68 78 76 80
47 49 53 58 59 61 63 66 68 71 76 81 82 83 85 88 89 92 95 96 98 100 101 104 105 104 104 103 103 107 104 101 95 97 86 82 84 81 76 81 79 81 85
46 51 55 60 66 69 71 74 78 80 82 83 87 91 92 95 96 100 98 98 100 104 105 105 106 107 107 104 99 97 100 98 93 88 89 89 91 90 81 81 84 83 84
43 51 54 61 64 67 76 77 83 85 88 93 94 95 96 98 99 104 107 108 109 110 112 111 108 105 102 104 101 100 106 103 98 99 99 97 95 94 90 91 92 83 87
51 54 54 60 62 64 75 81 89 93 95 92 95 101 104 107 105 107 106 107 109 108 112 117 115 113 113 112 107 103 106 103 108 104 107 103 95 95 102 95 94 96 107
47 52 58 61 67 73 77 78 79 87 101 106 112 115 115 122 118 115 114 113 115 118 120 116 114 116 117 114 112 109 107 108 108 107 107 109 114 101 100 102 102 105 101
56 61 65 67 69 73 75 79 83 89 96 101 109 116 121 122 129 131 129 133 129 124 125 129 125 119 118 117 117 112 110 105 102 105 112 107 105 108 104 98 101 95 92
67 68 72 76 79 83 86 90 94 96 99 103 108 117 121 128 136 142 145 143 141 140 144 134 131 128 127 122 123 118 115 113 111 108 112 103 101 102 95 93 94 93 92
71 80 79 83 86 84 90 100 104 106 108 109 113 116 122 127 136 142 145 157 158 156 153 153 153 150 140 134 128 119 114 115 110 108 109 102 104 105 98 98 95 103 99

GFSMA_250_spd_102.txt.gz
Wind_Speed
55 55 55 52 54 52 48 50 49 47 46 48 51 52 57 67 70 68 70 70 66 64 62 58 55 53 54 54 53 51 45 47 49 50 50 46 45 46 46 45 44 42 38
59 56 56 56 56 58 57 53 52 51 51 51 52 52 49 51 60 68 76 75 72 70 68 65 61 59 57 55 55 55 51 44 46 53 48 45 47 46 48 45 43 45 44
67 63 60 58 56 55 55 57 55 56 55 54 54 54 54 50 49 58 61 66 75 76 72 70 67 63 63 61 59 60 56 50 46 45 54 55 57 55 53 44 43 45 45
71 69 66 66 60 59 61 58 60 63 61 58 56 54 60 56 52 51 58 59 62 72 75 74 73 66 62 62 58 56 55 49 53 56 55 62 61 61 51 46 44 46 46
75 73 70 67 67 65 65 64 63 63 62 63 57 55 53 58 60 58 56 58 61 65 71 77 75 71 62 57 54 50 52 52 56 58 63 59 59 56 47 44 42 47 45
79 77 75 74 72 70 67 68 65 66 61 62 60 59 54 53 55 54 55 56 57 56 60 65 71 73 71 63 59 56 55 59 60 61 64 62 61 54 48 44 49 50 45
78 77 75 77 78 76 72 69 70 66 65 64 62 60 59 55 52 48 52 55 57 63 62 60 58 61 64 64 62 62 65 66 64 64 64 67 68 56 54 49 50 46 47
77 78 80 81 79 80 77 75 74 71 66 68 67 63 60 59 57 56 60 57 59 62 64 68 63 63 63 62 56 63 68 70 71 69 67 71 64 59 52 50 50 46 51
78 77 79 79 78 77 79 78 77 74 71 71 70 66 61 63 66 64 62 62 62 66 68 70 70 64 61 66 69 69 68 69 71 70 68 70 64 56 54 53 55 55 52
81 81 81 78 77 76 73 75 75 74 71 72 73 71 68 66 69 69 64 61 63 70 71 74 72 66 67 63 69 72 73 73 74 69 63 61 59 53 52 51 51 56 55
84 83 82 80 76 76 75 75 73 73 71 73 73 75 76 72 71 71 69 65 63 73 74 73 69 59 63 66 75 72 69 72 69 64 61 64 63 61 56 55 55 59 60
89 90 87 84 82 81 82 81 79 78 77 77 75 76 77 77 74 74 73 72 68 74 78 73 66 65 71 67 65 68 76 75 69 62 63 64 60 61 57 57 56 58 59
87 89 91 90 89 88 88 89 88 86 85 83 81 80 80 78 77 76 74 75 71 73 71 75 75 79 78 78 76 77 78 79 70 64 66 65 62 65 62 62 65 65 63
78 83 87 89 91 93 93 93 94 93 91 90 89 85 81 78 77 77 78 77 75 77 76 76 82 83 85 78 79 75 77 77 71 69 70 69 70 76 71 72 68 59 64
72 75 77 79 81 84 86 87 87 87 87 88 87 86 84 83 83 84 81 78 78 81 86 84 81 85 86 79 86 82 82 78 76 73 76 75 75 77 78 76 72 63 66
70 72 73 74 75 77 78 77 77 78 81 81 81 85 86 87 83 78 70 70 80 84 86 81 79 81 86 91 86 83 76 75 76 77 77 78 81 82 80 79 77 75 81
61 63 64 66 68 69 68 70 71 73 77 77 77 76 72 68 62 63 69 76 84 86 85 83 83 85 85 86 88 83 87 84 82 82 83 85 87 86 87 85 82 82 85
52 56 56 58 56 57 59 62 61 64 66 69 70 68 66 64 64 68 76 82 84 90 94 93 92 90 90 90 89 90 91 93 92 97 95 93 92 91 89 85 83 83 89
42 44 49 51 53 56 57 59 65 67 68 67 68 69 69 71 74 76 78 85 88 96 100 101 98 97 95 95 98 99 101 103 101 99 100 99 98 98 94 96 95 89 89
37 36 44 46 50 54 59 64 65 65 70 72 71 73 77 78 80 79 83 88 91 94 97 99 98 99 100 98 97 99 103 104 105 105 102 101 101 102 99 101 101 93 87
38 41 42 45 50 54 60 63 70 72 75 76 77 78 80 83 86 89 91 92 92 93 96 101 104 106 105 103 103 104 105 106 106 107 105 105 111 109 110 104 100 98 96
44 49 51 52 55 54 59 64 68 74 80 85 86 88 90 93 93 94 96 99 101 102 104 106 105 105 104 105 108 106 109 108 104 103 105 106 111 108 108 104 99 96 95
46 49 52 55 57 60 62 68 72 75 77 82 88 97 99 100 102 106 106 108 109 111 114 112 109 110 112 114 115 114 115 113 114 112 109 109 105 102 103 106 106 102 98
58 61 63 66 69 70 71 73 74 76 79 82 85 91 99 103 109 115 116 116 119 123 123 120 120 115 114 110 112 120 122 118 113 110 108 109 106 108 105 104 101 99 95
68 71 72 73 76 78 80 83 85 88 89 92 94 97 97 100 103 110 114 116 123 130 132 130 131 127 126 124 121 121 119 118 120 118 111 105 106 106 104 104 105 101 93
75 75 78 79 81 84 88 92 93 94 98 101 102 103 107 111 114 116 115 118 119 122 126 130 132 143 144 140 140 139 136 130 129 123 117 118 111 109 104 104 105 102 104

GFSMA_250_spd_105.txt.gz
Wind_Speed
60 58 57 51 54 52 52 51 51 50 53 51 50 46 42 42 45 47 53 56 58 64 69 68 67 66 63 62 59 56 54 53 52 53 49 40 43 48 38 46 52 50 49
66 64 61 60 59 58 55 53 52 53 56 55 57 55 53 48 47 46 44 48 52 57 61 67 70 71 70 68 65 63 61 57 55 52 52 53 45 47 51 53 47 52 50
71 69 67 65 68 65 63 61 59 59 54 55 54 57 56 56 56 53 50 49 48 47 55 59 62 62 69 73 71 68 65 61 56 55 44 40 46 50 53 50 49 49 48
81 74 73 72 69 70 68 66 65 66 65 61 60 58 57 59 59 60 56 53 50 51 49 52 58 62 62 64 70 70 68 63 58 46 45 46 47 46 56 54 55 53 54
87 82 79 76 75 71 69 72 70 71 69 66 65 62 60 60 61 60 59 54 52 52 55 54 54 56 61 60 62 68 70 65 60 52 53 53 53 55 53 55 55 54 57
87 84 83 80 77 74 76 77 75 74 74 75 71 66 63 63 61 60 61 58 57 51 56 54 53 53 54 52 54 58 63 68 62 64 62 61 58 57 57 57 56 58 57
87 85 81 80 79 79 79 81 79 79 77 80 75 73 65 64 63 62 60 65 62 56 55 55 56 53 52 55 54 56 54 53 53 58 62 62 65 61 60 61 62 62 54
93 89 84 82 80 83 84 86 86 84 83 83 79 77 69 68 64 68 67 66 66 64 58 61 59 57 56 58 62 60 55 55 52 58 50 57 69 65 62 59 62 56 50
95 92 90 89 88 90 90 90 88 89 88 86 84 80 76 72 73 73 70 69 70 69 66 63 64 61 60 63 60 60 61 58 58 58 62 64 67 69 67 63 56 53 50
89 90 95 97 90 88 88 90 88 86 86 85 86 84 80 77 76 75 73 71 72 71 70 69 68 66 64 62 66 68 64 62 59 55 58 67 70 70 67 62 57 54 53
79 81 86 89 85 85 86 88 89 88 87 85 86 85 83 81 79 75 72 72 74 75 74 75 74 69 67 62 70 70 68 67 62 61 63 64 68 69 67 56 55 57 56
73 77 80 83 84 86 87 87 90 90 89 87 87 86 84 83 80 77 73 74 76 77 78 78 79 76 69 65 72 77 72 66 66 68 72 64 65 65 65 57 59 59 56
71 72 75 78 82 83 85 87 91 93 94 92 90 88 86 86 85 83 81 78 79 79 76 79 82 79 75 73 71 79 79 72 70 72 70 70 67 68 69 61 61 60 58
70 72 73 76 77 81 84 86 89 91 94 96 95 93 92 91 91 91 90 90 86 85 83 81 82 80 78 79 73 79 82 80 75 76 77 72 72 64 65 67 66 60 62
62 62 64 67 70 74 76 78 84 87 89 92 95 95 96 97 97 98 97 96 95 91 89 86 84 82 79 80 79 80 85 87 80 88 88 82 80 77 76 72 67 66 69
59 60 62 64 66 68 70 71 73 75 78 82 87 91 94 97 97 98 96 93 93 91 87 87 85 86 85 86 85 80 87 87 91 93 91 90 85 83 76 78 74 72 73
53 55 56 58 60 63 67 69 71 76 77 78 80 85 87 89 91 91 87 86 87 86 84 86 88 86 86 82 82 84 88 89 89 90 88 87 85 83 79 78 79 79 75
46 47 51 53 55 57 59 64 67 70 71 75 76 78 80 79 81 78 79 80 80 79 81 82 78 76 72 76 82 89 89 92 93 90 88 84 83 83 87 85 86 84 83
40 41 43 43 46 47 49 54 57 61 62 65 66 66 67 68 69 71 70 74 75 78 78 75 74 76 77 82 88 92 94 93 93 97 92 91 90 88 86 88 89 89 90
36 39 44 44 44 47 51 52 54 54 58 59 60 58 62 72 71 71 74 78 77 77 75 75 78 78 80 84 90 95 95 96 97 100 95 95 94 91 92 95 96 96 96
42 44 45 47 50 50 51 54 55 59 62 63 66 72 74 74 78 78 80 80 82 83 81 82 83 84 88 88 91 91 93 94 96 98 99 99 99 98 98 100 102 104 102
41 44 47 50 53 54 57 59 61 66 70 73 75 78 81 85 80 84 85 86 85 92 93 88 90 89 92 92 94 96 96 95 96 97 103 105 107 107 107 105 105 105 104
51 52 53 54 56 57 59 62 66 69 72 75 77 82 86 89 89 90 91 91 92 94 93 93 95 100 99 100 101 100 99 100 97 98 99 99 102 102 102 103 103 104 102
61 63 65 67 68 70 72 73 74 76 77 79 81 82 83 87 90 93 97 102 102 100 103 107 105 104 102 106 110 109 110 109 107 105 107 107 103 102 104 105 106 106 104
73 74 76 78 79 81 82 83 85 87 88 90 92 93 94 94 95 96 95 96 98 104 110 112 115 115 115 115 116 115 116 115 116 114 111 108 106 105 106 104 102 102 100
81 83 85 87 89 90 93 94 97 97 100 101 103 103 103 104 105 105 105 104 104 106 106 106 108 111 118 123 126 125 125 126 126 124 121 120 119 117 114 108 107 104 101

GFSMA_250_spd_108.txt.gz
Wind_Speed
67 65 64 59 60 58 60 56 54 48 47 45 45 45 48 47 47 44 44 43 42 44 46 51 54 56 57 60 65 66 64 63 62 61 58 55 52 48 46 47 43 44 45
73 72 71 66 65 62 65 64 62 57 54 53 52 51 49 48 48 49 44 47 48 43 45 45 44 49 51 57 58 62 64 66 66 67 65 59 56 51 47 39 45 40 40
81 78 76 72 68 67 66 67 67 66 64 61 62 60 59 56 53 52 48 46 50 52 51 49 50 48 49 47 50 56 58 60 61 62 64 62 60 52 45 46 47 50 50
88 86 83 82 78 73 70 69 71 72 69 67 67 67 67 61 60 57 56 51 52 54 55 55 52 50 47 49 50 52 56 59 59 59 60 60 58 54 49 56 53 47 47
96 94 90 89 88 84 80 77 74 75 76 75 73 71 71 68 66 61 60 58 55 57 60 59 55 54 51 50 53 53 55 56 57 59 56 56 58 55 58 57 60 55 52
102 98 95 93 93 91 87 84 81 78 81 81 79 77 76 74 71 66 64 65 62 62 62 63 60 57 56 53 52 53 48 52 55 55 49 48 49 54 52 56 54 55 56
105 100 97 94 93 91 91 89 86 87 83 84 83 81 81 78 75 73 69 71 68 68 65 64 62 64 59 57 54 57 56 55 52 55 51 55 55 46 50 52 55 57 57
106 102 97 95 94 91 89 88 89 92 90 90 86 87 84 83 80 80 76 75 74 74 68 68 68 67 66 63 62 59 59 58 58 55 57 57 54 48 52 56 57 57 55
107 106 101 102 98 93 95 97 96 95 94 97 94 93 91 85 87 86 83 82 77 75 76 74 73 73 69 67 69 66 62 60 62 60 60 62 59 57 54 54 55 60 61
91 91 88 88 91 95 98 97 100 102 103 102 103 99 97 93 89 90 89 88 87 81 81 82 79 74 74 70 71 71 70 65 64 63 62 63 58 59 57 53 57 61 62
81 78 80 77 80 84 86 86 89 93 96 99 103 105 104 100 97 97 94 92 91 87 83 82 80 79 76 75 75 75 73 69 66 65 63 64 66 68 60 59 60 63 61
73 74 78 77 74 78 78 76 79 86 90 93 97 101 104 103 103 100 97 94 91 89 86 86 79 80 78 76 76 77 77 74 71 69 65 66 70 70 65 66 67 68 68
70 72 73 73 74 71 70 71 77 83 88 91 94 95 95 97 99 99 97 95 91 89 84 86 84 82 78 77 76 78 78 78 75 73 71 67 72 73 68 62 64 69 71
65 68 69 69 69 69 69 71 75 78 83 86 88 91 91 92 93 96 97 96 95 92 89 85 88 85 82 81 79 78 78 80 79 77 76 74 69 76 72 70 68 71 75
57 60 64 65 66 66 67 70 72 74 75 78 81 83 83 85 88 91 94 95 98 97 96 91 90 90 88 87 87 87 85 85 85 81 77 76 72 73 79 76 77 80 82
52 55 58 61 63 64 65 66 66 66 68 70 74 75 74 82 83 86 88 91 95 97 95 96 96 96 94 94 95 95 91 89 87 85 81 80 77 74 80 82 83 83 82
48 52 55 57 59 60 62 63 63 63 66 67 73 68 73 82 80 79 81 84 88 92 91 94 95 96 96 96 95 93 91 88 87 85 85 82 81 82 83 87 87 86 88
42 44 46 49 52 55 58 59 59 59 60 62 65 67 70 77 79 76 78 80 85 83 85 87 88 88 86 85 85 84 85 85 83 85 86 88 88 88 88 90 88 87 88
41 43 45 47 49 51 54 54 57 58 61 63 65 68 71 73 76 75 74 76 77 79 80 80 79 76 75 76 74 77 77 80 81 81 84 83 84 83 85 88 88 87 87
39 42 44 46 46 45 49 51 53 55 56 58 63 66 68 70 69 70 73 73 74 74 71 74 75 72 69 68 68 68 69 69 68 70 71 73 78 80 79 83 82 82 84
44 47 49 49 50 51 51 53 53 57 58 60 61 65 67 68 67 71 70 72 71 69 70 72 76 74 70 74 76 74 71 70 70 70 70 73 76 77 76 76 76 78 85
48 50 52 52 52 52 53 55 59 62 64 66 68 70 73 70 74 75 72 75 73 74 76 77 78 80 81 81 82 83 81 77 79 80 79 76 76 77 78 79 86 85 81
56 58 60 61 63 64 65 65 66 68 69 71 73 75 76 78 80 81 81 82 83 86 90 90 83 83 88 89 88 88 88 89 87 88 83 84 86 85 84 84 83 84 85
68 70 71 72 73 74 74 74 75 77 78 80 82 82 83 84 84 85 89 91 93 95 97 98 97 95 91 91 92 91 92 89 94 94 92 91 91 91 90 88 89 90 90
68 69 70 73 75 78 80 84 86 88 89 89 91 92 91 91 93 93 92 94 95 97 96 98 100 103 101 104 105 102 101 99 97 98 99 97 100 98 97 96 96 97 94
70 71 72 72 74 76 77 77 79 81 85 89 93 97 98 98 99 100 100 100 102 103 102 103 103 104 103 105 106 105 109 107 104 105 106 104 98 100 101 102 101 100 103

GFSMA_250_spd_111.txt.gz
Wind_Speed
72 70 70 68 69 68 65 63 62 61 61 59 57 53 48 45 46 45 44 43 43 40 41 41 42 41 39 40 43 48 50 52 55 56 59 63 63 58 55 57 58 53 45
79 79 79 76 76 74 73 72 67 67 65 64 65 63 60 54 51 51 51 51 49 45 42 42 43 45 44 46 46 45 46 48 47 50 54 56 57 58 59 60 60 54 51
90 89 87 86 85 83 81 78 75 74 73 71 67 68 68 65 63 61 58 55 53 54 51 48 47 45 49 51 49 49 50 48 50 47 48 50 53 54 54 54 57 56 51
96 94 95 96 93 89 86 85 82 79 80 77 74 73 70 69 69 67 65 62 59 59 58 57 54 52 52 53 53 52 51 51 49 50 50 50 49 53 55 56 54 52 51
100 99 100 100 98 95 91 88 87 84 84 86 84 81 78 75 72 72 71 65 64 64 65 64 62 59 59 56 55 54 53 53 51 49 50 48 48 50 55 55 55 45 47
105 104 103 102 102 98 93 95 96 93 91 92 92 89 88 87 81 78 76 74 71 70 70 70 69 65 64 64 61 59 56 57 55 55 51 48 49 49 50 53 52 52 48
107 108 105 104 101 98 98 98 98 97 96 96 93 95 93 92 90 86 81 81 79 76 71 71 73 74 68 67 67 65 61 58 58 57 56 53 57 53 49 49 53 50 55
108 110 110 108 106 101 98 96 97 98 96 98 97 97 96 95 93 94 90 86 86 84 82 76 75 76 76 75 72 74 68 64 63 60 61 60 57 58 56 52 52 51 51
104 108 106 105 105 104 99 102 101 98 98 101 103 100 96 93 99 97 93 92 91 89 86 85 82 82 82 83 78 75 72 72 69 68 66 63 63 61 61 59 53 56 58
98 100 101 99 99 93 89 89 96 100 103 107 110 108 101 96 94 95 98 96 94 96 96 94 92 87 85 85 85 82 81 78 77 72 69 67 66 66 65 63 61 57 58
93 93 92 92 90 86 83 80 79 89 90 94 95 99 98 98 96 97 101 105 104 102 101 100 99 96 92 89 87 87 85 82 80 76 72 71 72 67 68 67 65 61 58
73 78 79 79 81 81 85 88 87 84 87 85 87 91 89 88 89 95 97 100 103 106 108 108 104 101 98 97 95 92 90 88 83 78 74 75 73 70 68 69 66 65 61
67 71 73 75 78 74 79 80 79 78 80 83 83 84 86 85 88 93 94 93 93 95 101 105 104 104 103 101 97 93 90 86 84 79 75 74 73 72 70 69 68 63 54
57 61 64 67 71 73 74 77 79 81 82 80 81 82 81 81 82 86 90 86 91 92 91 91 98 100 101 100 97 93 91 87 83 79 76 76 74 73 70 68 64 64 63
49 52 54 57 61 64 67 70 72 73 74 75 76 77 78 81 85 88 89 89 92 93 90 96 93 93 96 97 97 94 93 90 86 82 79 78 76 75 73 72 71 67 67
42 45 48 50 54 57 60 63 65 66 68 69 72 74 77 81 82 83 86 87 87 87 87 87 81 83 85 87 91 94 94 94 93 88 83 84 81 80 79 79 78 77 76
34 40 43 45 47 50 53 57 60 62 64 66 68 71 73 75 77 77 81 79 83 87 82 79 77 79 80 83 87 90 93 94 94 93 90 90 88 86 86 85 85 82 80
33 36 39 41 44 47 51 53 57 60 62 64 66 70 72 73 76 77 77 76 78 81 82 79 78 79 79 81 83 85 87 89 91 90 90 91 92 92 90 89 88 86 84
33 36 39 42 44 46 49 51 54 57 58 60 61 63 65 68 71 74 72 77 77 79 83 77 76 77 78 79 78 77 79 82 83 82 84 86 85 84 79 79 78 78 80
41 41 42 43 46 48 50 52 53 54 56 57 59 63 64 67 68 73 72 75 78 79 79 77 78 77 74 75 73 74 75 74 73 72 71 71 70 68 65 68 74 77 79
48 50 52 53 54 56 58 59 60 60 60 62 61 62 63 65 68 70 72 77 77 80 79 79 79 77 75 73 73 74 71 65 67 67 67 68 62 61 62 61 63 62 62
49 52 55 58 62 64 65 66 68 70 70 70 69 68 69 69 68 69 71 75 77 78 79 80 77 79 78 75 73 71 74 64 70 69 68 65 64 63 60 59 58 57 57
52 53 54 57 60 61 64 67 71 74 77 78 78 79 79 79 78 78 78 80 78 79 80 77 78 80 80 78 74 73 75 71 77 72 73 72 72 69 64 60 63 62 59
62 63 65 66 68 68 68 69 70 73 75 77 79 82 86 89 87 86 86 86 88 87 86 86 83 85 85 85 82 78 79 78 79 78 75 77 77 75 73 72 69 69 71
67 68 70 73 75 76 75 75 73 73 78 81 81 83 85 87 89 91 92 94 97 97 95 93 93 92 92 91 89 91 93 88 85 82 83 79 81 82 80 79 79 82 81
63 65 69 71 71 73 76 77 78 77 74 77 82 87 88 88 91 94 95 93 95 103 102 103 102 101 100 99 100 97 98 98 100 98 97 91 89 85 85 85 86 83 82

GFSMA_250_spd_114.txt.gz
Wind_Speed
74 74 73 72 72 70 68 67 68 69 66 66 65 64 64 61 57 55 54 52 51 48 46 45 43 44 43 43 44 44 42 42 43 43 44 46 47 48 49 50 51 52 55
81 81 81 80 79 79 78 77 75 74 74 73 73 72 70 66 65 63 62 61 58 55 52 54 52 50 49 47 47 46 47 48 47 46 47 47 48 49 47 47 47 48 50
89 90 91 89 87 88 87 85 84 82 82 81 79 78 79 75 72 70 69 68 65 63 62 58 60 60 58 55 52 49 48 51 50 50 49 49 49 46 48 49 47 47 48
97 96 95 94 95 95 95 94 94 92 90 89 89 89 85 82 80 78 75 72 70 69 68 66 65 63 62 61 59 56 54 53 53 52 51 49 50 49 48 48 49 46 46
103 103 101 102 100 99 99 99 98 96 95 95 93 93 92 91 88 83 84 80 78 77 71 71 73 69 67 65 64 63 61 58 57 57 56 54 51 51 50 51 48 45 44
107 107 107 107 105 104 104 100 99 98 98 98 96 96 96 95 94 91 89 88 86 84 82 80 77 75 74 71 70 69 65 64 60 61 59 58 54 52 51 52 52 50 49
108 108 107 107 107 107 109 105 103 102 102 103 99 101 99 100 100 101 101 97 92 91 88 86 86 83 80 79 76 74 72 69 66 64 62 61 61 57 55 53 52 55 53
103 103 103 104 105 106 107 107 104 103 103 105 103 105 103 101 101 103 102 102 99 96 94 93 90 90 87 85 83 80 78 77 73 68 67 67 65 64 61 59 58 54 55
102 102 102 102 102 103 113 100 101 99 96 95 96 102 105 105 110 107 106 103 101 98 97 95 95 93 94 90 88 88 83 82 81 77 75 70 71 68 65 67 65 62 59
92 95 96 98 106 101 111 109 104 100 92 91 91 93 96 100 108 107 110 107 106 104 100 96 95 96 96 94 92 94 93 88 81 81 81 78 76 74 70 69 72 66 61
74 77 80 83 90 94 99 108 109 96 91 97 94 90 93 94 96 97 99 102 106 107 103 100 100 101 102 99 97 97 98 96 94 90 88 85 83 79 77 74 69 68 69
59 63 64 69 74 78 86 93 100 99 91 95 90 87 91 91 95 96 91 94 96 94 94 94 95 97 101 103 103 101 101 100 95 90 90 88 89 87 82 80 75 73 69
50 53 55 59 63 67 72 78 83 87 90 90 89 90 91 93 94 99 94 92 84 85 87 92 96 95 95 98 101 104 105 106 106 104 101 98 95 91 88 85 79 73 70
40 43 46 50 52 57 62 68 74 77 79 81 83 84 86 89 91 91 90 92 89 82 88 88 92 95 97 96 98 99 99 101 101 101 100 100 99 96 94 90 80 74 71
33 36 40 44 48 51 54 58 63 66 68 71 74 77 80 82 84 85 86 86 88 89 89 88 90 92 98 101 94 93 95 96 96 94 95 97 97 96 96 89 82 76 71
31 33 36 38 42 45 47 50 53 56 59 61 64 67 70 73 76 79 82 83 83 87 88 87 87 87 91 90 88 91 90 89 89 88 87 89 92 93 92 87 82 77 76
31 32 34 37 40 43 45 49 53 55 58 59 61 64 66 68 69 71 75 78 80 83 85 83 83 85 87 87 84 88 85 85 87 87 86 84 87 88 88 87 84 81 80
33 33 34 35 37 40 42 43 46 51 55 58 60 62 65 67 68 68 70 72 75 77 81 81 83 82 85 85 85 85 83 81 83 83 83 83 81 82 84 86 85 83 84
40 41 42 44 45 46 47 48 49 51 52 53 55 57 60 63 65 67 69 73 74 76 79 80 83 84 84 84 84 82 81 81 80 79 81 81 80 80 81 84 84 84 86
40 41 43 45 47 49 52 56 58 61 61 60 61 61 62 62 63 67 70 71 73 76 75 76 78 81 85 84 84 82 78 79 78 77 79 78 78 76 76 79 78 78 80
47 49 50 50 52 53 54 55 59 62 64 65 66 68 69 70 71 70 69 71 73 74 77 76 78 78 81 82 79 80 78 73 75 73 76 76 73 72 73 72 71 69 70
49 50 51 53 55 57 59 62 65 68 69 70 71 72 74 75 76 77 78 78 77 75 76 76 80 81 80 80 85 79 79 76 73 72 73 73 71 69 69 69 65 64 63
52 52 54 57 60 63 65 67 70 72 74 75 78 80 81 80 81 82 83 84 86 86 84 81 79 79 80 82 83 82 82 81 78 76 75 69 67 69 67 64 61 61 61
54 55 57 58 61 62 65 67 70 74 77 80 81 82 83 83 81 84 86 87 88 90 91 91 89 88 86 84 83 86 86 83 81 80 76 72 72 67 66 65 66 60 58
57 58 61 62 63 63 66 68 70 74 78 79 82 84 84 85 85 83 83 89 92 94 94 94 95 97 96 93 92 87 84 82 81 81 79 74 73 74 70 70 75 65 64
62 64 64 65 64 65 69 71 69 71 75 79 80 82 83 84 85 85 86 84 88 97 97 96 96 98 99 102 101 96 93 89 86 85 84 80 82 77 72 77 79 77 66

GFSMA_250_spd_117.txt.gz
Wind_Speed
74 75 75 75 73 72 72 71 71 72 72 71 70 68 68 67 66 64 63 62 61 56 54 53 51 49 48 48 47 47 47 46 46 45 45 44 43 41 40 41 44 48 50
83 83 82 80 79 78 77 79 80 78 80 80 78 75 76 76 73 71 69 68 68 68 62 60 61 59 56 54 53 54 53 52 50 48 47 45 46 44 44 45 46 46 47
92 91 88 87 87 87 87 87 87 87 86 87 86 85 84 82 81 80 78 76 75 74 75 70 67 66 65 63 62 61 61 60 57 55 50 48 46 48 45 46 46 46 48
96 95 93 93 96 96 95 95 95 94 93 93 91 91 90 90 89 87 87 87 84 82 82 80 78 75 72 70 69 68 66 63 61 59 57 53 51 51 49 47 48 48 47
101 101 101 101 102 101 100 101 102 102 101 99 99 97 97 96 96 95 94 93 91 90 88 89 86 83 80 76 75 74 72 67 67 65 60 59 57 54 55 53 52 48 47
106 105 106 105 104 105 105 103 102 102 103 104 101 98 100 98 97 98 99 99 97 97 94 92 92 88 87 85 82 79 79 77 73 70 68 65 61 59 57 53 54 52 49
106 104 101 102 104 102 102 101 102 103 103 102 100 98 97 98 100 102 100 99 97 99 99 97 97 94 91 90 88 86 84 85 82 79 77 72 67 63 61 59 58 54 54
102 100 98 97 98 97 97 98 99 102 102 98 98 100 93 97 97 99 102 104 104 103 102 102 100 100 99 98 96 95 91 89 88 87 84 81 76 69 68 64 64 63 61
99 98 96 97 99 99 98 101 103 103 108 108 112 93 94 100 103 100 101 101 103 103 103 103 103 102 102 99 100 100 98 96 92 91 89 87 84 76 72 68 69 69 65
85 85 85 88 90 91 94 98 104 107 108 114 117 104 102 96 97 97 102 101 98 99 100 101 102 102 103 104 103 99 96 95 94 92 90 89 90 86 80 75 72 71 67
67 67 67 70 72 72 78 84 87 94 98 103 109 114 112 92 93 85 92 104 102 102 104 105 106 106 104 101 97 97 100 99 96 95 92 90 90 91 88 83 78 76 76
54 56 57 59 60 61 67 71 75 79 82 89 95 101 108 104 94 84 80 96 101 105 108 109 108 108 107 105 97 92 94 94 95 98 98 97 96 93 91 90 87 85 84
43 44 47 50 53 54 55 60 65 68 70 74 79 86 95 100 99 89 84 83 87 95 104 112 115 114 109 105 98 92 87 88 90 93 95 95 96 97 99 96 91 87 85
37 35 35 37 39 41 45 50 56 60 63 65 70 74 80 84 87 85 83 81 80 86 94 98 105 110 111 106 100 95 90 89 87 89 90 92 93 95 98 100 99 96 94
32 33 33 34 36 38 39 40 43 46 51 57 63 66 69 73 75 78 79 79 78 81 86 93 93 96 99 102 101 97 93 91 90 93 94 95 94 92 92 95 97 98 96
36 34 33 34 34 35 36 38 40 43 45 47 51 55 60 63 66 70 73 74 74 73 77 88 87 85 87 91 91 92 94 97 94 93 91 88 89 88 87 91 89 88 87
35 36 37 37 38 39 40 40 42 44 47 49 53 56 58 61 62 63 66 68 67 66 66 76 80 80 81 82 84 86 87 90 92 90 87 85 84 86 83 84 84 83 82
36 36 36 35 36 38 40 42 44 46 49 52 55 57 59 61 63 65 67 68 68 67 65 69 72 73 76 75 77 79 82 84 85 83 78 81 79 79 81 81 85 82 80
42 43 42 44 46 47 49 48 48 49 51 53 56 59 62 65 66 66 67 67 68 68 67 65 69 70 73 73 73 74 78 78 79 77 77 79 75 76 81 79 82 81 79
43 44 44 45 45 46 48 49 51 54 58 60 61 64 66 68 70 71 72 74 73 72 69 67 68 70 71 75 76 77 76 78 78 77 78 79 77 73 75 72 72 74 75
47 48 49 49 50 51 53 54 57 60 62 65 66 68 71 73 75 75 76 78 77 77 76 75 74 73 73 74 76 78 79 81 81 80 81 81 79 75 77 76 74 73 70
50 51 54 56 56 57 59 61 62 64 66 68 70 73 75 77 79 80 81 80 81 81 82 79 79 81 80 78 76 78 79 82 81 81 83 82 79 76 74 72 72 71 66
54 55 57 59 59 60 61 62 65 66 67 70 74 77 81 84 85 85 85 85 84 84 83 84 85 84 85 85 84 82 80 80 81 84 79 78 80 75 76 77 71 70 68
59 62 63 62 63 64 65 66 66 67 69 73 77 79 81 84 86 86 86 86 87 87 84 83 84 87 89 90 89 88 88 84 82 84 81 80 82 79 73 74 72 71 68
64 66 68 70 70 70 68 68 69 72 74 76 76 77 78 81 82 82 84 86 88 89 88 87 86 85 89 92 93 91 92 91 88 86 84 80 83 81 80 75 72 71 68
69 72 76 76 77 77 73 73 73 75 76 77 78 77 77 78 80 81 79 80 82 86 88 88 86 87 88 93 94 95 94 94 94 93 92 86 85 82 81 80 75 73 71